[[{"header":{"parameterUnit":"m.s-1","parameterCategory":1,"la1":30.6,"la2":29.2853,"lo1":-89.7004,"lo2":-87.6739,"dy":0.0162,"dx":0.0183,"nx":112,"ny":82,"refTime":"2025-05-17T06:00:00:Z","depth":0,"parameterNumber":2,"parameterNumberName":"U-component_of_WINDS"},"data":[0.0,0.0,0.0,0.0,0.0,0.0,0.0,0.0,0.0,0.0,0.0,0.0,0.0,0.0,0.0,0.0,0.0,0.0,0.0,0.0,0.0,0.0,0.0,0.0,0.0,0.0,0.0,0.0,0.0,0.0,0.0,0.0,0.0,0.0,0.0,0.0,0.0,0.0,0.0,0.0,0.0,0.0,0.0,0.0,0.0,0.0,0.0,0.0,0.0,0.0,0.0,0.0,0.0,0.0,0.0,0.0,0.0,0.0,0.0,0.0,0.0,0.0,0.0,0.0,0.0,0.0,0.0,0.0,0.0,0.0,0.0,0.0,0.0,0.0,0.0,0.0,0.0,0.0,0.0,0.0,0.0,0.0,0.0,0.0,0.0,0.0,0.0,0.0,0.0,0.0,0.0,4.8133,5.084,5.2498,5.2498,5.1647,5.0126,4.7844,0.0,0.0,0.0,0.0,0.0,0.0,0.0,0.0,0.0,0.0,0.0,0.0,0.0,0.0,0.0,0.0,0.0,0.0,0.0,0.0,0.0,0.0,0.0,0.0,0.0,0.0,0.0,0.0,0.0,0.0,0.0,0.0,0.0,0.0,0.0,0.0,0.0,0.0,0.0,0.0,0.0,0.0,0.0,0.0,0.0,0.0,0.0,0.0,0.0,0.0,0.0,0.0,0.0,0.0,0.0,0.0,0.0,0.0,0.0,0.0,0.0,0.0,0.0,0.0,0.0,0.0,0.0,0.0,0.0,0.0,0.0,0.0,0.0,0.0,0.0,0.0,0.0,0.0,0.0,0.0,0.0,0.0,0.0,0.0,0.0,0.0,0.0,0.0,0.0,0.0,0.0,0.0,0.0,0.0,0.0,0.0,0.0,0.0,0.0,0.0,0.0,0.0,0.0,0.0,4.6099,5.0333,5.1792,5.2498,5.2498,5.1122,4.9528,4.7826,0.0,0.0,0.0,0.0,0.0,0.0,0.0,0.0,0.0,0.0,0.0,0.0,0.0,0.0,0.0,0.0,0.0,0.0,0.0,0.0,0.0,0.0,0.0,0.0,0.0,0.0,0.0,0.0,0.0,0.0,0.0,0.0,0.0,0.0,0.0,0.0,0.0,0.0,0.0,0.0,0.0,0.0,0.0,0.0,0.0,0.0,0.0,0.0,0.0,0.0,0.0,0.0,0.0,0.0,0.0,0.0,0.0,0.0,0.0,0.0,0.0,0.0,0.0,0.0,0.0,0.0,0.0,0.0,0.0,0.0,0.0,0.0,0.0,0.0,0.0,0.0,0.0,0.0,0.0,0.0,0.0,0.0,0.0,0.0,0.0,0.0,0.0,0.0,0.0,0.0,0.0,0.0,0.0,0.0,0.0,0.0,0.0,0.0,0.0,0.0,0.0,0.0,0.0,4.4717,4.6654,5.143,5.2281,5.2498,5.2498,5.1013,4.9401,4.7808,4.5037,0.0,0.0,0.0,0.0,0.0,0.0,0.0,0.0,0.0,0.0,0.0,0.0,0.0,0.0,0.0,0.0,0.0,0.0,0.0,0.0,0.0,0.0,0.0,0.0,0.0,0.0,0.0,0.0,0.0,0.0,0.0,0.0,0.0,0.0,0.0,0.0,0.0,0.0,0.0,0.0,0.0,0.0,0.0,0.0,0.0,0.0,0.0,0.0,0.0,0.0,0.0,0.0,0.0,0.0,0.0,0.0,0.0,0.0,0.0,0.0,0.0,0.0,0.0,0.0,0.0,0.0,0.0,0.0,0.0,0.0,0.0,0.0,0.0,0.0,0.0,0.0,0.0,0.0,0.0,0.0,0.0,0.0,0.0,0.0,0.0,0.0,0.0,0.0,0.0,0.0,0.0,0.0,0.0,0.0,0.0,0.0,0.0,0.0,0.0,0.0,0.0,0.0,4.6613,4.7989,5.2063,5.2498,5.2498,5.2498,5.085,4.9202,4.779,4.4494,0.0,0.0,0.0,0.0,0.0,0.0,0.0,0.0,0.0,0.0,0.0,0.0,0.0,0.0,0.0,0.0,0.0,0.0,0.0,0.0,0.0,0.0,0.0,0.0,0.0,0.0,0.0,0.0,0.0,0.0,0.0,0.0,0.0,0.0,0.0,0.0,0.0,0.0,0.0,0.0,0.0,0.0,0.0,0.0,0.0,0.0,0.0,0.0,0.0,0.0,0.0,0.0,0.0,0.0,0.0,0.0,0.0,0.0,0.0,0.0,0.0,0.0,0.0,0.0,0.0,0.0,0.0,0.0,0.0,0.0,0.0,0.0,0.0,0.0,0.0,0.0,0.0,0.0,0.0,0.0,0.0,0.0,0.0,0.0,0.0,0.0,0.0,0.0,0.0,0.0,0.0,0.0,0.0,0.0,0.0,0.0,0.0,0.0,0.0,0.0,0.0,0.0,4.7518,5.0452,5.2299,5.2498,5.2498,5.2498,5.0343,4.8641,4.7753,4.3987,0.0,0.0,0.0,0.0,0.0,0.0,0.0,0.0,0.0,0.0,0.0,0.0,0.0,0.0,0.0,0.0,0.0,0.0,0.0,0.0,0.0,0.0,0.0,0.0,0.0,0.0,0.0,0.0,0.0,0.0,0.0,0.0,0.0,0.0,0.0,0.0,0.0,0.0,0.0,0.0,0.0,0.0,0.0,0.0,0.0,0.0,0.0,0.0,0.0,0.0,0.0,0.0,0.0,0.0,0.0,0.0,0.0,0.0,0.0,0.0,0.0,0.0,0.0,0.0,0.0,0.0,0.0,0.0,0.0,0.0,0.0,0.0,0.0,0.0,0.0,0.0,0.0,0.0,0.0,0.0,0.0,0.0,0.0,0.0,0.0,0.0,0.0,0.0,0.0,0.0,0.0,0.0,0.0,0.0,0.0,0.0,0.0,0.0,0.0,0.0,0.0,0.0,4.6287,4.9039,0.0,5.2498,5.2498,5.2498,5.0741,4.8876,4.7065,0.0,0.0,0.0,0.0,0.0,0.0,0.0,0.0,0.0,0.0,0.0,0.0,0.0,0.0,0.0,0.0,0.0,0.0,0.0,0.0,0.0,0.0,0.0,0.0,0.0,0.0,0.0,0.0,0.0,0.0,0.0,0.0,0.0,0.0,0.0,0.0,0.0,0.0,0.0,0.0,0.0,0.0,0.0,0.0,0.0,0.0,0.0,0.0,0.0,0.0,0.0,0.0,0.0,0.0,0.0,0.0,0.0,0.0,0.0,0.0,0.0,0.0,0.0,0.0,0.0,0.0,0.0,0.0,0.0,0.0,0.0,0.0,0.0,0.0,0.0,0.0,0.0,0.0,0.0,0.0,0.0,0.0,0.0,0.0,0.0,0.0,0.0,0.0,0.0,0.0,0.0,0.0,0.0,0.0,0.0,0.0,0.0,0.0,0.0,0.0,0.0,0.0,4.3226,4.6015,4.8894,0.0,5.2498,5.2498,5.2498,5.0542,4.8363,4.625,0.0,0.0,0.0,0.0,0.0,0.0,0.0,0.0,0.0,0.0,0.0,0.0,0.0,0.0,0.0,0.0,0.0,0.0,0.0,0.0,0.0,0.0,0.0,0.0,0.0,0.0,0.0,0.0,0.0,0.0,0.0,0.0,0.0,0.0,0.0,0.0,0.0,0.0,0.0,0.0,0.0,0.0,0.0,0.0,0.0,0.0,0.0,0.0,0.0,0.0,0.0,0.0,0.0,0.0,0.0,0.0,0.0,0.0,0.0,0.0,0.0,0.0,0.0,0.0,0.0,0.0,0.0,0.0,0.0,0.0,0.0,0.0,0.0,0.0,0.0,0.0,0.0,0.0,0.0,0.0,0.0,0.0,0.0,0.0,0.0,0.0,0.0,0.0,0.0,0.0,0.0,0.0,0.0,0.0,0.0,0.0,0.0,0.0,0.0,0.0,0.0,0.0,4.2683,4.7102,5.0705,5.2317,5.2498,5.2498,5.2498,4.9422,4.6892,0.0,0.0,0.0,0.0,0.0,0.0,0.0,0.0,0.0,0.0,0.0,0.0,0.0,0.0,0.0,0.0,0.0,0.0,0.0,0.0,0.0,0.0,0.0,0.0,0.0,0.0,0.0,0.0,0.0,0.0,0.0,0.0,0.0,0.0,0.0,0.0,0.0,0.0,0.0,0.0,0.0,0.0,0.0,0.0,0.0,0.0,0.0,0.0,0.0,0.0,0.0,0.0,0.0,0.0,0.0,0.0,0.0,0.0,0.0,0.0,0.0,0.0,0.0,0.0,0.0,0.0,0.0,0.0,0.0,0.0,0.0,0.0,0.0,0.0,0.0,0.0,0.0,0.0,0.0,0.0,0.0,0.0,0.0,0.0,0.0,0.0,0.0,0.0,0.0,0.0,0.0,0.0,0.0,0.0,0.0,0.0,0.0,0.0,0.0,0.0,0.0,0.0,0.0,4.2611,4.7042,5.0597,5.2317,5.2498,5.2452,5.2358,4.9902,4.7211,4.4462,0.0,0.0,0.0,0.0,0.0,0.0,0.0,0.0,0.0,0.0,0.0,0.0,0.0,0.0,0.0,0.0,0.0,0.0,0.0,0.0,0.0,0.0,0.0,0.0,0.0,0.0,0.0,0.0,0.0,0.0,0.0,0.0,0.0,0.0,0.0,0.0,0.0,0.0,0.0,0.0,0.0,0.0,0.0,0.0,0.0,0.0,0.0,0.0,0.0,0.0,0.0,0.0,0.0,0.0,0.0,0.0,0.0,0.0,0.0,0.0,0.0,0.0,0.0,0.0,0.0,0.0,0.0,0.0,0.0,0.0,0.0,0.0,0.0,0.0,0.0,0.0,0.0,0.0,0.0,0.0,0.0,0.0,0.0,0.0,0.0,0.0,0.0,0.0,0.0,0.0,0.0,0.0,0.0,0.0,0.0,0.0,0.0,0.0,0.0,0.0,0.0,0.0,4.2517,4.6916,5.0461,5.2177,5.234,5.2293,5.2216,5.0,4.7219,4.4075,0.0,0.0,0.0,0.0,0.0,0.0,0.0,0.0,0.0,0.0,0.0,0.0,0.0,0.0,0.0,0.0,0.0,0.0,0.0,0.0,0.0,0.0,0.0,0.0,0.0,0.0,0.0,0.0,0.0,0.0,0.0,0.0,0.0,0.0,0.0,0.0,0.0,0.0,0.0,0.0,0.0,0.0,0.0,0.0,0.0,0.0,0.0,0.0,0.0,0.0,0.0,0.0,0.0,0.0,0.0,0.0,0.0,0.0,0.0,0.0,0.0,0.0,0.0,0.0,0.0,0.0,0.0,0.0,0.0,0.0,0.0,0.0,0.0,0.0,0.0,0.0,0.0,0.0,0.0,0.0,0.0,0.0,0.0,0.0,0.0,0.0,0.0,0.0,0.0,0.0,0.0,0.0,0.0,0.0,0.0,0.0,0.0,0.0,0.0,0.0,0.0,0.0,4.251,4.6841,5.0304,5.1922,5.2102,5.2084,5.2084,4.9834,4.7097,4.406,0.0,0.0,0.0,0.0,0.0,0.0,0.0,0.0,0.0,0.0,0.0,0.0,0.0,0.0,0.0,0.0,0.0,0.0,0.0,0.0,0.0,0.0,0.0,0.0,0.0,0.0,0.0,0.0,0.0,0.0,0.0,0.0,0.0,0.0,0.0,0.0,0.0,0.0,0.0,0.0,0.0,0.0,0.0,0.0,0.0,0.0,0.0,0.0,0.0,0.0,0.0,0.0,0.0,0.0,0.0,0.0,0.0,0.0,0.0,0.0,3.6996,0.0,0.0,0.0,0.0,0.0,0.0,0.0,0.0,0.0,0.0,0.0,0.0,0.0,0.0,0.0,0.0,0.0,0.0,0.0,0.0,0.0,0.0,0.0,0.0,0.0,0.0,0.0,0.0,0.0,0.0,0.0,0.0,0.0,0.0,0.0,0.0,0.0,0.0,0.0,0.0,0.0,4.3268,4.7096,5.021,5.1922,5.2102,5.2054,5.1956,4.974,4.7304,4.4742,4.1608,0.0,0.0,0.0,0.0,0.0,0.0,0.0,0.0,0.0,0.0,0.0,0.0,0.0,0.0,0.0,0.0,0.0,0.0,0.0,0.0,0.0,0.0,0.0,0.0,0.0,0.0,0.0,0.0,0.0,0.0,0.0,0.0,0.0,0.0,0.0,0.0,0.0,0.0,0.0,0.0,0.0,0.0,0.0,0.0,0.0,0.0,0.0,0.0,0.0,0.0,0.0,0.0,0.0,0.0,0.0,0.0,0.0,0.0,0.0,0.0,3.854,0.0,0.0,0.0,0.0,0.0,0.0,0.0,0.0,0.0,0.0,0.0,0.0,0.0,0.0,0.0,0.0,0.0,0.0,0.0,0.0,0.0,0.0,0.0,0.0,0.0,0.0,0.0,0.0,0.0,0.0,0.0,0.0,0.0,0.0,0.0,0.0,0.0,0.0,0.0,0.0,4.3364,4.6855,4.9742,5.171,5.1889,5.1889,5.1808,5.0044,4.7961,4.5638,4.2608,0.0,0.0,0.0,0.0,0.0,0.0,0.0,0.0,0.0,0.0,0.0,0.0,0.0,0.0,0.0,0.0,0.0,0.0,0.0,0.0,0.0,0.0,0.0,0.0,0.0,0.0,0.0,0.0,0.0,0.0,0.0,0.0,0.0,0.0,0.0,0.0,0.0,0.0,0.0,0.0,0.0,0.0,0.0,0.0,0.0,0.0,0.0,0.0,0.0,0.0,0.0,0.0,0.0,4.301,4.3776,4.4996,4.4986,4.5332,4.5885,4.3304,4.2232,4.2141,4.0613,0.0,0.0,0.0,0.0,0.0,0.0,0.0,0.0,0.0,0.0,0.0,0.0,0.0,0.0,0.0,0.0,0.0,0.0,0.0,0.0,0.0,0.0,0.0,0.0,4.203,4.0963,0.0,0.0,0.0,0.0,0.0,0.0,0.0,0.0,0.0,0.0,0.0,0.0,4.3351,4.6482,4.9117,5.1172,5.1401,5.1401,5.1401,5.0048,4.8382,4.6353,4.3588,4.0504,0.0,0.0,0.0,0.0,0.0,0.0,0.0,0.0,0.0,0.0,0.0,0.0,0.0,0.0,0.0,0.0,0.0,0.0,0.0,0.0,0.0,0.0,0.0,0.0,0.0,0.0,0.0,0.0,0.0,0.0,0.0,0.0,3.7823,3.8035,0.0,0.0,0.0,0.0,0.0,0.0,0.0,0.0,0.0,0.0,0.0,0.0,0.0,4.2105,4.3482,4.5576,4.6364,4.5931,4.7328,4.774,4.7241,4.7253,4.7662,4.8425,4.8019,0.0,4.3699,4.2011,0.0,0.0,0.0,0.0,0.0,0.0,0.0,0.0,0.0,0.0,0.0,0.0,0.0,0.0,0.0,0.0,0.0,0.0,0.0,0.0,0.0,0.0,4.2783,4.2515,4.29,4.3024,0.0,4.0154,3.823,3.6035,3.4743,0.0,0.0,0.0,0.0,0.0,0.0,0.0,4.3805,4.6256,4.8332,4.9877,5.005,5.005,5.005,4.8713,4.7447,4.6426,4.4165,4.229,4.112,3.7789,0.0,0.0,0.0,0.0,0.0,0.0,0.0,0.0,0.0,0.0,0.0,0.0,0.0,0.0,0.0,0.0,0.0,0.0,0.0,0.0,0.0,0.0,0.0,0.0,0.0,0.0,0.0,0.0,0.0,3.7257,3.9175,3.9527,3.9799,3.9342,0.0,0.0,0.0,0.0,0.0,0.0,0.0,0.0,0.0,4.3095,4.386,4.4983,4.6571,4.762,4.8252,4.8425,4.9131,4.9543,4.9701,4.9704,5.0171,5.0911,5.0931,4.9812,4.7825,4.5274,4.3538,4.2255,0.0,0.0,0.0,0.0,4.0183,4.1405,4.2526,4.3225,0.0,4.2422,0.0,0.0,0.0,0.0,0.0,0.0,0.0,0.0,0.0,0.0,4.3783,4.4632,4.5016,4.5181,4.4805,4.3568,4.1688,0.0,3.7807,3.7055,3.5224,0.0,0.0,0.0,0.0,4.1559,4.4509,4.6529,4.823,4.9642,4.9804,4.9804,4.9804,4.8494,4.7397,4.663,4.4558,4.2762,4.1493,3.9042,3.7067,0.0,0.0,0.0,0.0,0.0,0.0,0.0,0.0,0.0,0.0,0.0,0.0,0.0,0.0,0.0,0.0,0.0,0.0,0.0,0.0,0.0,0.0,0.0,0.0,0.0,0.0,0.0,0.0,3.8696,4.0126,4.0615,4.1287,4.1062,0.0,0.0,0.0,0.0,0.0,0.0,4.2032,4.3099,4.4379,4.5923,4.6638,4.7693,4.9089,4.9329,4.9785,5.0471,5.0449,5.0814,5.1531,5.1477,5.1842,5.2423,5.2405,5.1968,5.1099,4.8289,4.6518,4.5336,4.3337,4.2691,4.2893,4.2656,4.3337,4.4534,4.5873,4.6692,4.6855,4.5092,0.0,4.2894,3.9732,0.0,0.0,0.0,0.0,4.0851,4.2618,4.3717,4.4686,4.6174,4.6684,4.6766,4.6733,4.611,4.4601,0.0,4.0779,4.0113,3.7498,0.0,0.0,0.0,0.0,4.2453,4.5166,4.6709,4.8027,4.9223,4.9368,4.9283,4.9078,4.7936,4.6908,4.6211,4.4471,4.2954,4.1824,4.012,3.8454,3.6705,0.0,0.0,0.0,0.0,0.0,0.0,0.0,0.0,0.0,0.0,0.0,0.0,0.0,0.0,0.0,0.0,0.0,0.0,0.0,0.0,0.0,0.0,0.0,0.0,0.0,0.0,0.0,0.0,0.0,4.0595,4.2915,0.0,0.0,0.0,0.0,4.2668,4.2629,4.3602,4.5887,4.5974,4.6662,4.8258,4.9123,4.991,5.0777,5.1537,5.1927,5.1981,5.1969,5.2005,5.2058,5.2064,5.2059,5.2095,5.212,5.2036,5.1728,5.0168,4.8614,4.7096,4.6122,4.4946,4.3917,4.5262,4.5809,4.5989,4.6839,4.7187,4.7229,4.7449,4.5799,4.3598,4.2691,4.1444,0.0,0.0,4.2749,4.3328,4.3994,4.5177,4.6307,4.6356,4.6913,4.7421,4.7421,4.6848,4.5865,0.0,4.3005,4.1922,4.1049,0.0,4.0437,4.1083,4.1913,4.3256,4.5507,4.6441,4.7237,4.8048,4.8115,4.7832,4.7135,4.6231,4.5425,4.4848,4.3767,4.3141,4.3273,4.1099,3.9788,3.9689,3.6233,0.0,0.0,0.0,0.0,0.0,0.0,0.0,0.0,0.0,0.0,0.0,0.0,0.0,0.0,0.0,0.0,0.0,0.0,0.0,0.0,0.0,0.0,0.0,0.0,0.0,0.0,0.0,0.0,4.2415,4.4254,0.0,4.4053,4.4107,4.4465,4.5204,4.5606,4.6422,4.7795,4.8609,4.9342,4.9893,5.0628,5.1131,5.1405,5.1705,5.1915,5.1987,5.1983,5.2005,5.2086,5.2082,5.2077,5.2089,5.2102,5.2005,5.1871,5.1346,5.042,4.9269,4.8436,4.7793,4.7392,4.7918,4.8199,4.8367,4.8643,4.8818,4.8782,4.7988,4.6535,4.5031,4.4627,4.4103,4.3822,4.42,4.4828,4.5372,4.5553,4.6356,4.7093,4.6943,4.7139,4.7251,4.7115,4.6903,4.6562,4.6057,4.5016,4.3863,4.2649,4.2676,4.2758,4.2528,4.3514,4.4729,4.6026,4.6881,4.749,4.7654,4.7737,4.749,4.6634,4.5846,4.4926,4.3805,4.2911,4.2245,4.1743,4.0442,3.9291,3.8267,3.656,3.4267,0.0,0.0,0.0,0.0,0.0,0.0,0.0,0.0,0.0,0.0,0.0,0.0,0.0,0.0,0.0,0.0,0.0,0.0,0.0,0.0,0.0,0.0,0.0,0.0,0.0,0.0,4.2638,4.3736,4.592,4.7012,4.6291,4.6684,4.7257,4.7995,4.8423,4.8986,4.9738,5.0577,5.1012,5.1012,5.1482,5.169,5.169,5.169,5.1726,5.1847,5.1847,5.1897,5.1979,5.1979,5.1943,5.1956,5.1956,5.1889,5.1858,5.1858,5.1486,5.0852,5.0334,4.9959,4.9745,5.0031,4.9897,4.9591,4.944,4.9292,4.9008,4.7793,4.6762,4.6019,4.5828,4.5828,4.5814,4.5914,4.6323,4.6667,4.66,4.6959,4.7251,4.7098,4.7098,4.703,4.6961,4.6876,4.6876,4.6876,4.6417,4.5538,4.4313,4.4573,4.48,4.4309,4.5062,4.5947,4.6667,4.7292,4.7588,4.747,4.7604,4.7193,4.6094,4.5293,4.436,4.3227,4.2185,4.1428,4.1157,3.991,3.8764,3.7695,3.6529,3.4646,3.1983,0.0,0.0,0.0,0.0,0.0,0.0,0.0,0.0,0.0,0.0,0.0,0.0,0.0,0.0,0.0,0.0,0.0,0.0,0.0,0.0,0.0,0.0,0.0,3.9717,4.2359,4.4358,4.4543,4.7879,4.9542,4.8065,4.9289,5.0457,5.1074,5.102,5.1185,5.1868,5.1768,5.169,5.169,5.169,5.169,5.169,5.169,5.169,5.169,5.169,5.169,5.169,5.169,5.169,5.169,5.169,5.169,5.169,5.169,5.169,5.169,5.169,5.1226,5.0637,5.1405,5.0801,4.9518,4.9035,4.8513,4.7819,4.6946,4.6634,4.6585,4.6471,4.6405,4.6503,4.7055,4.7183,4.7183,4.6961,4.6876,4.6876,4.6876,4.6876,4.6876,4.6876,4.6876,4.6892,4.6892,4.703,4.6955,4.6254,4.6273,4.6422,4.6422,4.6422,0.0,4.7388,4.7486,4.7486,4.747,4.7486,4.6897,4.5439,4.4542,4.3744,4.3052,4.1455,4.0864,4.1666,3.9583,3.8424,3.8424,3.6319,3.4872,3.4211,0.0,0.0,0.0,0.0,0.0,0.0,0.0,0.0,0.0,0.0,0.0,0.0,0.0,0.0,0.0,0.0,0.0,0.0,0.0,0.0,0.0,0.0,4.2026,4.205,4.4263,4.6549,4.8296,4.9978,5.0985,5.1066,5.1457,5.1719,5.181,5.1719,5.1728,5.186,5.1795,5.169,5.169,5.169,5.169,5.169,5.169,5.169,5.169,5.169,5.169,5.169,5.169,5.169,5.169,5.169,5.169,5.169,5.169,5.169,5.169,5.169,5.1547,5.1387,5.1619,5.0858,4.9602,4.8618,4.8033,4.7737,4.7474,4.7342,4.7242,4.7025,4.6957,4.699,4.6981,4.6961,4.6961,4.6876,4.6876,4.6876,4.6876,4.6668,4.6442,4.6442,4.6246,4.612,4.612,4.612,4.6269,4.6617,4.6738,4.6738,4.6738,4.6738,0.0,4.7014,4.7183,4.7251,4.7098,4.7183,4.6808,4.5731,4.5016,4.3879,4.2093,4.1059,4.0367,4.0118,3.9551,3.9185,3.9185,3.708,3.6115,0.0,0.0,0.0,0.0,0.0,0.0,0.0,0.0,0.0,0.0,0.0,0.0,0.0,0.0,0.0,0.0,0.0,0.0,0.0,0.0,0.0,0.0,4.2951,4.4711,4.5376,4.6935,4.8641,5.0384,5.132,5.1919,5.2299,5.2271,5.2242,5.2024,5.1952,5.1898,5.1796,5.1732,5.1529,5.1217,5.1302,5.1106,5.0678,5.0782,5.0943,5.1229,5.1211,5.1383,5.169,5.169,5.169,0.0,5.169,5.169,5.1672,5.1333,5.1387,0.0,0.0,0.0,0.0,0.0,5.0293,4.9291,4.8258,4.7787,4.7704,4.7504,4.7454,4.7335,4.7115,4.7098,4.703,4.6961,4.6876,4.6876,4.6876,4.6738,4.6582,4.6356,4.5985,4.5608,4.5285,4.5332,4.529,4.5036,4.52,0.0,4.5929,4.623,4.6458,4.6668,4.6668,4.6738,4.6876,4.703,4.703,4.6876,4.703,4.6738,4.5872,4.4901,0.0,0.0,0.0,4.0189,3.9509,3.9476,0.0,0.0,0.0,0.0,0.0,0.0,0.0,0.0,3.6261,3.6275,0.0,0.0,0.0,0.0,0.0,0.0,0.0,0.0,0.0,0.0,0.0,0.0,0.0,0.0,0.0,0.0,4.5278,4.7284,4.881,4.9731,5.0484,5.1056,5.181,5.2271,5.2126,5.2188,5.2126,5.1794,5.1787,5.1668,5.1526,0.0,0.0,0.0,0.0,5.021,4.9325,4.9484,4.9855,5.035,5.0345,5.0804,5.1571,5.1571,5.1622,5.169,5.1601,5.1497,5.1444,5.0749,5.0927,5.164,5.1571,5.1521,5.1349,5.0107,4.9291,4.8714,4.7951,0.0,0.0,4.7319,4.7183,4.7098,4.6961,4.6876,4.6876,4.6876,4.6876,4.6876,4.6807,4.6512,4.6072,4.5478,4.4946,4.4479,4.3821,4.4098,4.4296,4.3714,4.3991,4.4355,4.4355,4.5106,4.5817,4.6159,4.6301,4.6442,4.6807,4.6876,4.6876,4.6876,0.0,0.0,4.5986,4.4642,4.38,4.3719,4.184,4.0496,3.9978,4.0027,4.0043,3.9962,4.0545,4.1144,4.1783,4.2201,4.2512,4.259,3.8345,3.7816,0.0,0.0,0.0,0.0,0.0,0.0,0.0,0.0,0.0,0.0,0.0,0.0,0.0,0.0,0.0,4.5401,4.7339,4.8781,4.9749,5.0557,5.0823,5.0254,5.0782,5.1142,5.1002,5.1622,5.1701,5.1055,5.0986,5.0805,5.0176,5.0026,4.9939,4.9756,4.9675,4.9526,4.9323,4.9345,4.9423,4.9529,0.0,0.0,5.0733,5.0733,5.1105,5.1654,5.0794,5.0409,5.0409,5.0249,5.0657,5.1333,5.0875,5.0587,5.0272,4.9127,4.8589,4.84,4.777,4.7454,4.7319,4.7251,4.7098,4.6961,4.6876,4.6876,0.0,4.6876,4.6876,4.6807,4.6512,4.6001,4.5478,4.5036,4.4174,4.3461,4.3367,4.2742,4.2242,4.2164,4.1826,4.1545,4.1545,4.3487,4.52,4.5817,4.6088,4.6356,4.6442,4.6738,4.6876,4.6876,4.6876,4.6828,4.6682,4.5386,4.4334,4.3751,4.2763,4.2423,4.2877,4.346,4.3492,4.2909,4.3022,4.3153,4.3283,4.2181,4.2088,4.2959,4.1488,4.0852,0.0,0.0,0.0,0.0,0.0,0.0,0.0,0.0,0.0,0.0,0.0,4.0318,4.2668,0.0,4.5101,4.791,4.927,5.0127,5.0515,5.0823,5.0715,4.9973,5.0225,5.0354,5.0257,5.0611,5.0715,5.0363,5.0226,5.0059,4.9693,4.9567,4.9278,4.8838,4.8861,4.861,4.8101,4.8183,4.8375,4.8692,4.8692,4.912,4.9884,4.9764,4.9938,5.0277,4.9714,4.9468,4.9394,4.973,4.989,4.9878,4.974,4.9646,4.9487,4.8714,4.8242,4.7886,4.7521,4.7251,4.7183,4.7098,4.6961,4.6876,4.6876,4.6876,4.6892,4.6668,4.6582,4.6442,4.5697,4.5184,4.4571,4.3789,4.2763,4.1902,4.1578,4.1084,4.0633,4.0343,4.0307,4.0324,4.0324,4.1448,4.2833,4.4359,4.4981,4.5332,4.5697,4.5841,4.5913,4.5697,4.6072,4.6285,4.6285,4.5685,4.4998,4.4285,4.3913,4.367,4.3677,4.4029,4.3759,4.2868,4.3214,4.3317,4.3216,4.2786,4.2923,4.3411,4.2864,4.2303,0.0,0.0,0.0,0.0,0.0,0.0,0.0,0.0,3.8853,4.1194,4.1668,4.2523,4.5344,4.6379,4.757,4.997,5.0785,5.109,5.0909,5.0704,5.0311,4.9538,4.9686,4.9803,4.9751,4.9763,4.975,4.9564,4.9483,4.9309,4.9176,4.8976,4.8575,4.7988,4.8024,4.7743,4.6892,4.703,4.7404,4.7868,4.7719,4.8069,4.8865,4.85,4.8402,4.8571,4.8377,4.8318,4.8451,4.8868,4.8868,4.8548,4.8663,4.8697,4.8759,4.8272,4.7803,4.7335,4.7183,4.7115,4.7115,4.6961,4.6876,4.6876,4.6876,4.6876,4.6738,4.6372,4.623,4.6001,4.4962,4.4358,4.3741,4.2452,4.1435,4.0581,3.997,3.968,3.9424,3.8855,3.9036,3.924,3.924,3.9341,4.0226,4.2637,4.3442,4.4052,4.4631,4.4796,4.4721,4.4419,4.5005,4.54,4.5507,4.5565,4.5362,4.4814,4.4565,4.4257,4.3741,4.367,4.3226,4.2376,4.2909,4.3107,4.2925,4.3316,4.3587,4.3509,4.2971,4.2666,3.9013,3.8213,3.7947,3.9369,3.8987,3.9139,0.0,0.0,4.2242,4.4375,4.4805,4.5349,4.7143,4.75,4.8351,5.076,5.1112,5.0915,5.0378,5.0143,4.9536,4.8136,4.8943,4.9609,4.959,4.9698,4.9514,4.8779,4.873,4.843,4.7781,4.7515,4.7365,4.7264,4.7127,4.701,4.6876,4.6945,4.6945,4.6997,4.6348,4.6454,4.722,4.6608,4.6676,4.7352,4.6402,4.6656,4.7742,4.692,4.746,4.8781,4.808,4.782,4.782,4.727,4.7014,4.6945,4.6945,4.6961,4.6961,4.6892,4.6876,4.6876,4.6876,4.6652,4.6372,4.6285,4.6104,4.5599,4.4526,4.3804,4.3081,4.199,4.1226,4.052,3.9901,3.9379,3.8774,3.8116,3.7634,3.7346,3.7346,3.7797,3.8945,4.1494,4.2264,4.2737,4.3307,4.3758,4.3975,4.4129,4.4205,4.4412,4.4669,4.4756,4.4693,4.4614,4.378,4.3528,4.4021,4.3899,4.3747,4.3593,4.3669,4.3714,4.3699,4.3006,4.2666,4.2438,4.1645,4.1645,4.0422,4.0361,0.0,0.0,4.1334,4.2042,4.3882,4.3777,4.3814,4.5639,4.5997,4.659,4.8627,4.905,4.9577,0.0,5.1254,5.0936,5.0348,5.0008,4.9611,4.902,4.9091,4.8833,4.7807,4.8184,4.8123,4.7358,4.7586,4.7667,4.7316,4.7131,4.703,4.703,4.6945,4.6668,4.6214,4.6249,4.6039,4.5591,4.533,4.5391,4.5716,4.5293,4.5236,4.558,4.5412,4.5747,4.6457,4.6731,4.7104,4.7528,4.7176,4.6865,4.6647,4.6799,4.6876,4.6876,4.6876,4.6876,4.6876,4.6876,4.6738,4.6512,4.6512,4.6317,4.5794,4.4862,4.446,4.3923,4.213,4.1415,4.1018,4.0267,3.9587,3.9002,3.8749,3.8201,3.7695,3.7428,3.7161,3.6978,3.6978,3.7203,3.7904,3.9247,4.0554,4.1521,4.1945,4.2444,4.2906,4.3367,4.3367,4.373,4.4468,4.4526,4.4511,4.4316,4.3927,4.3532,4.3259,4.3115,4.2812,4.2164,4.2179,4.2097,4.2029,4.1645,4.1408,4.1339,4.1015,4.1015,4.1491,0.0,0.0,4.2852,4.3573,4.4397,4.5094,4.4836,4.4892,4.6504,4.6649,4.7132,4.9171,4.9838,5.0326,5.0948,5.1154,5.0929,5.0181,4.9591,4.923,4.9274,4.8714,4.7821,4.6502,4.6948,4.7032,4.6372,4.6445,4.6597,4.6791,4.6442,4.6214,4.6214,4.6198,4.5802,4.5018,4.5033,4.4824,4.4267,4.4253,4.4282,4.4464,4.4085,4.4043,4.4224,4.4318,4.4764,4.5386,4.6033,4.6251,4.6126,4.6126,4.5864,4.5597,4.6115,4.6309,4.6342,4.652,4.6585,4.6617,4.6673,4.6512,4.6285,4.6159,4.5801,4.5122,4.3866,4.3213,4.2423,4.0546,3.9902,3.9613,3.901,3.851,3.8116,3.7934,3.7555,3.7189,3.7021,3.6978,3.6978,3.6978,3.6978,3.7133,3.7583,3.8956,4.0187,4.0694,4.1367,4.199,4.2371,4.268,4.324,4.3959,4.4036,4.3944,4.3743,4.3416,4.2956,4.2193,4.2111,4.1713,4.0916,4.093,4.0859,4.0702,4.0702,4.0702,4.0702,4.0702,4.0702,0.0,0.0,4.291,4.4956,4.5282,4.5397,4.6654,4.6057,4.5725,4.7337,4.7047,4.6951,4.8449,4.9477,5.0146,5.0218,5.0799,5.075,4.9563,4.8532,4.7939,4.8032,4.7419,4.6843,0.0,4.6585,4.652,4.6158,4.5383,4.5199,4.5737,4.5036,4.4586,4.4586,4.4297,4.3884,4.3315,4.3315,4.3345,4.3457,4.2932,4.3033,4.3719,4.299,4.3039,4.367,4.2974,4.3476,4.4805,4.4123,4.4253,4.4886,4.4886,4.482,4.482,4.4852,4.4852,4.4949,4.5613,4.584,4.5885,4.6218,4.6285,4.623,4.5889,4.5067,4.422,4.4205,4.3025,4.1592,4.0966,4.0248,3.9613,3.901,3.8847,3.8664,3.8032,3.7892,3.7695,3.7091,3.6978,3.6978,3.6978,3.6978,3.6993,3.7007,3.7555,3.8478,3.9703,4.0745,4.1297,4.1071,4.2126,4.2921,4.2936,4.2761,4.2746,4.2921,4.1796,4.1071,4.1071,4.0845,4.0773,4.0702,4.0702,4.0702,4.0702,4.0702,4.0702,4.0702,4.0702,4.0702,0.0,0.0,4.4645,4.5151,4.5416,4.5607,4.582,4.557,4.5454,4.5997,4.5888,4.5892,4.6551,4.733,4.7915,4.8187,4.8691,4.8946,4.8618,4.8186,4.7961,4.7968,4.7785,0.0,0.0,0.0,0.0,4.5144,4.4409,4.4215,4.4856,4.4214,4.3818,4.3818,4.3223,4.2574,4.1836,4.1815,4.1626,4.1122,4.1647,4.2021,4.2218,4.2478,4.2763,4.3006,4.3249,4.3346,4.3411,4.414,4.4285,4.4075,4.4075,4.4075,4.401,4.3541,4.3362,4.3589,4.5241,4.5672,4.5463,4.5619,4.5349,4.4834,4.4235,4.396,4.3524,4.2287,4.1544,4.0792,3.9301,3.8677,3.8422,3.7788,3.7934,3.8159,3.7948,3.7906,3.7835,3.7639,3.7259,3.6978,3.6978,3.6978,3.7274,3.8102,3.8412,3.8847,3.9676,4.0492,4.0944,4.1001,4.1394,4.1728,4.2073,4.1922,4.1854,4.1937,4.1339,4.0916,4.0773,4.0773,4.0702,4.0702,4.0702,4.0702,4.0702,4.0702,4.0702,4.0702,4.0702,4.0702,4.4369,4.5359,4.6076,4.6227,4.6248,4.6176,4.5805,4.5273,4.4947,4.5236,4.4718,4.4407,4.5036,4.523,4.562,4.6725,4.7147,4.753,4.8219,4.7963,4.7703,4.7588,4.7325,4.6662,0.0,0.0,0.0,4.385,4.3094,4.2923,4.3396,4.2682,4.2289,4.2289,4.1731,4.1024,4.0297,4.0338,4.0157,3.9728,4.0685,4.1245,4.1525,4.2013,4.2349,4.2666,4.312,4.3055,4.2636,4.3638,4.3735,4.333,4.333,4.333,4.3265,4.2796,4.2815,4.3396,4.475,4.5098,4.492,4.5221,4.4937,4.4429,4.3594,4.3268,4.2971,4.1526,4.0761,4.0114,3.8672,3.8074,3.7793,3.74,3.7611,3.7962,3.8201,3.8243,3.8243,3.8243,3.7737,3.7316,3.7316,3.7316,3.7583,3.8397,3.8903,3.9423,4.0027,4.0534,4.0859,4.093,4.0916,4.1085,4.1437,4.1297,4.1213,4.1283,4.1029,4.0845,4.0702,4.0702,4.0702,4.0702,4.0702,4.0702,4.0702,4.0702,4.0702,4.0702,4.0702,4.0702,4.6159,4.6694,4.7224,4.8034,4.7627,4.6908,4.6459,4.5164,4.424,4.4965,4.3584,4.2632,0.0,0.0,4.3423,4.5763,4.6075,4.6612,4.8228,4.7725,4.7077,0.0,0.0,0.0,0.0,0.0,0.0,4.2349,0.0,4.1174,4.1324,4.0529,4.0046,4.0046,3.9809,3.9441,3.8837,3.8793,3.8906,3.9233,3.9999,4.069,4.1393,4.1459,4.1868,4.2492,4.2571,4.2571,4.2571,4.2571,4.2634,4.2634,4.2634,4.2571,4.2571,4.2571,4.325,4.4106,4.407,4.417,4.4288,4.4909,4.511,4.4887,4.3758,4.3001,4.2386,4.1767,4.07,3.9634,3.8988,3.8383,3.7934,3.7906,3.7948,3.8159,3.8777,3.8917,3.8903,3.8875,3.8313,3.7864,3.7892,3.7906,3.792,3.799,3.9016,3.9999,4.0575,4.083,4.093,4.0688,4.0845,4.1001,4.1001,4.0859,4.0773,4.1001,4.0845,4.0702,4.0702,4.0702,4.0702,4.0702,4.0702,4.0702,4.0702,4.0702,4.0702,4.0702,4.0702,4.0702,4.6727,4.7535,4.8147,4.7574,4.6574,4.5594,4.4877,4.3914,4.3081,4.2701,4.1905,4.109,0.0,0.0,0.0,4.3546,4.4943,0.0,4.7947,4.739,0.0,4.6795,0.0,4.5331,4.4312,4.3259,0.0,0.0,4.0132,3.992,4.0388,3.9824,3.9421,3.9421,3.8741,3.8333,3.8174,3.816,3.8225,3.8472,3.9247,3.9662,3.9859,4.0977,4.1311,4.1044,4.2142,4.2285,4.1803,4.2349,4.2634,4.2634,4.2634,4.2429,4.2238,4.2238,4.2539,4.2963,4.2723,4.3323,4.4156,4.3828,4.3487,4.2939,4.1175,4.1236,4.1569,4.0075,3.9716,3.9535,3.8426,3.8383,3.8496,3.8018,3.8622,3.9339,3.9507,3.955,3.9423,3.8959,3.7976,3.7358,3.7821,3.7906,3.8215,3.9156,3.9578,3.9845,3.9999,4.0492,4.0773,4.0702,4.0773,4.0859,4.1001,4.0859,4.0773,4.1001,4.0845,4.0702,4.0702,4.0702,4.0702,4.0702,4.0702,4.0702,4.0702,4.0702,4.0702,4.0702,4.0702,4.0702,4.7691,4.8163,4.8366,4.7584,4.6342,4.5091,4.4277,4.3075,4.1895,4.1065,4.0077,0.0,0.0,0.0,0.0,0.0,0.0,0.0,4.6848,4.699,4.6673,0.0,4.539,0.0,4.31,4.2329,4.1379,0.0,3.9392,3.9218,3.9262,3.8942,3.8768,3.8768,3.8254,3.7991,3.7991,3.7991,3.8066,3.8202,3.862,3.8972,3.9305,4.0139,4.0485,4.0416,0.0,4.1591,4.1525,4.1948,4.2285,4.2634,4.2634,4.2381,4.2109,4.2109,4.223,4.2338,4.1838,4.2475,4.3438,4.3029,4.2809,4.2357,4.0952,4.1112,4.1377,4.011,3.9718,3.962,3.8917,3.8791,3.8847,3.8749,3.9269,3.9859,4.0126,4.0182,4.0013,3.9381,3.8482,3.792,3.8271,3.8552,3.8974,3.9676,4.0013,4.0182,4.0182,4.0491,4.0702,4.0702,4.0702,4.0773,4.0845,4.0773,4.0773,4.0845,4.0773,4.0702,4.0702,4.0702,4.0702,4.0702,4.0702,4.0702,4.0702,4.0702,4.0702,4.0702,4.0702,4.0702,4.8714,4.8586,4.8267,4.7824,4.6504,4.5091,4.4277,4.2519,4.0846,3.9935,0.0,3.7489,3.819,3.7225,3.7586,4.1328,0.0,4.341,4.5619,4.6361,4.6071,4.4646,4.4357,4.3547,4.1932,4.1145,4.0327,3.931,3.9193,3.8812,3.8231,3.8202,3.8202,3.8202,3.8202,3.8202,3.8202,3.8202,3.8202,3.8202,3.8202,3.8546,3.9175,3.9247,3.9591,4.0139,4.0347,0.0,4.1245,4.1459,4.1868,4.2492,4.2571,4.2381,4.2109,4.1964,4.1948,4.1876,4.1138,4.1445,4.2204,4.2202,4.2276,4.2239,4.1439,4.1288,4.1165,4.0421,3.9873,3.9535,3.9535,3.9198,3.9016,3.9634,3.9845,4.0041,4.0589,4.0631,4.0421,3.9887,3.9283,3.8903,3.8974,3.9423,3.9816,3.9901,4.035,4.0702,4.0702,4.0702,4.0702,4.0702,4.0702,4.0702,4.0702,4.0702,4.0702,4.0702,4.0702,4.0702,4.0702,4.0702,4.0702,4.0702,4.0702,4.0702,4.0702,4.0702,4.0702,4.0702,4.0702,4.0702,4.893,4.8746,4.855,4.7888,4.6504,4.5091,4.4277,4.2519,0.0,0.0,0.0,3.718,3.6784,3.7017,3.807,4.0565,0.0,0.0,0.0,0.0,4.4251,0.0,0.0,0.0,0.0,0.0,0.0,0.0,0.0,3.8483,3.8217,3.8202,3.8202,3.8202,3.8202,3.8202,3.8202,3.8202,3.8202,3.8202,3.8202,3.8277,3.8412,3.903,3.903,3.862,3.9859,0.0,3.9788,4.0977,4.1591,4.1738,4.2349,4.2381,4.2029,4.126,4.1086,4.1138,3.9711,3.9688,4.0263,4.03,4.0625,4.079,3.9098,3.8926,3.9123,3.8,3.792,3.8229,3.8229,3.8538,3.9016,3.9634,4.0168,4.0561,4.0674,4.0308,3.9915,3.9802,3.9283,3.903,3.9535,3.9718,3.9957,4.0463,4.0631,4.0702,4.0702,4.0702,4.0702,4.0702,4.0702,4.0702,4.0702,4.0702,4.0702,4.0702,4.0702,4.0702,4.0702,4.0702,4.0702,4.0702,4.0702,4.0702,4.0702,4.0702,4.0702,4.0702,4.0702,4.0702,4.9246,4.885,4.8458,4.8111,4.6648,4.4983,4.3751,0.0,0.0,0.0,3.7012,3.627,3.5983,0.0,0.0,0.0,0.0,0.0,0.0,0.0,0.0,0.0,0.0,0.0,0.0,0.0,0.0,0.0,0.0,3.8501,3.8202,3.8202,3.8202,3.8202,3.8202,3.8202,3.8202,3.8202,3.8202,3.8202,3.8202,3.8202,3.8202,3.8546,3.8546,3.8277,3.8972,0.0,3.9376,4.0069,4.0554,4.0961,4.1311,4.126,4.0925,4.0432,4.0314,4.0118,3.894,3.8905,3.9304,3.8582,3.8993,3.9676,3.8661,3.8622,3.8735,3.8131,3.7934,3.7976,3.8313,3.8636,3.9016,3.9634,4.0252,4.0702,4.0702,4.0224,3.9873,4.0196,3.976,3.9535,4.0154,4.0266,4.0364,4.0659,4.0702,4.0702,4.0702,4.0773,4.0859,4.0702,4.0702,4.0702,4.0702,4.0702,4.0702,4.0702,4.0702,4.0702,4.0702,4.0702,4.0702,4.0702,4.0702,4.0702,4.0702,4.0702,4.0702,4.0702,4.0702,4.0702,4.937,4.8869,4.8231,4.797,4.6582,4.4838,4.3045,4.0917,0.0,0.0,3.6156,3.552,3.5577,0.0,0.0,0.0,0.0,0.0,0.0,0.0,0.0,0.0,0.0,0.0,0.0,0.0,0.0,0.0,0.0,0.0,3.8277,3.8202,3.8202,3.8202,3.8202,3.8202,3.8202,3.8202,3.8202,3.8202,3.8202,3.8202,3.8202,3.8202,3.8202,3.8202,3.8202,0.0,0.0,3.9233,3.9662,4.0209,4.0347,4.0224,3.996,3.9804,3.955,3.9205,3.8337,3.8384,3.8563,3.7445,3.7817,3.8636,3.8496,3.8454,3.8454,3.8454,3.8088,3.785,3.8496,3.8763,3.9044,3.9802,4.0336,4.0702,4.0702,4.0322,4.0112,4.0603,4.0308,4.0126,4.0617,4.0702,4.0688,4.0773,4.0688,4.0702,4.0873,4.093,4.0916,4.0873,4.0873,4.0787,4.0702,4.0773,4.0773,4.0702,4.0702,4.0702,4.0702,4.0702,4.0702,4.0702,4.0702,4.0702,4.0702,4.0702,4.0702,4.0702,4.0702,4.0702,4.9048,4.864,4.8064,4.6939,4.5983,4.4693,4.2357,0.0,0.0,3.7216,3.6224,3.5577,3.5622,3.5628,0.0,0.0,0.0,0.0,0.0,0.0,0.0,0.0,0.0,0.0,0.0,0.0,0.0,0.0,0.0,0.0,3.8516,3.8277,3.8202,3.8202,3.8202,3.8202,3.8202,3.8202,3.8202,3.8202,3.8202,3.8202,3.8202,3.8202,3.8202,3.8202,3.8202,0.0,0.0,3.903,3.9305,3.9448,4.0139,4.0347,4.0278,3.9433,3.9073,3.8928,3.7976,3.7577,3.7451,3.7317,3.76,3.7892,3.733,3.7161,3.7161,3.7161,3.7119,3.7203,3.7835,3.8426,3.9156,4.0336,4.0659,4.0702,4.0702,4.0659,4.0631,4.0688,4.0659,4.0631,4.0688,4.0702,4.0773,4.0916,4.0859,4.0873,4.1311,4.11,4.11,4.1311,4.1311,4.1142,4.0702,4.0845,4.093,4.0688,4.0702,4.0702,4.0702,4.0702,4.0702,4.0702,4.0702,4.0702,4.0702,4.0702,4.0702,4.0702,4.0702,4.0702,4.9058,4.8866,4.8216,4.775,4.6455,4.4841,4.2957,0.0,3.916,3.7294,3.6433,3.5915,3.5667,3.5622,3.5763,0.0,0.0,0.0,0.0,0.0,0.0,0.0,0.0,0.0,0.0,0.0,0.0,0.0,0.0,0.0,3.8885,3.8649,3.856,3.856,3.8113,3.8037,3.8366,3.8037,3.7962,3.8202,3.8277,3.8277,3.8202,3.8202,3.8202,3.8202,3.8202,0.0,0.0,3.856,3.862,3.8694,3.8957,3.9103,3.903,3.8679,3.8531,3.8472,3.7915,3.7701,3.7625,3.7534,3.755,3.7629,3.7141,3.6978,3.6978,3.6978,3.6978,3.6957,3.6626,3.7318,3.8365,3.9477,4.0229,4.0502,3.9954,4.0229,4.0702,4.0702,4.0702,4.0702,4.0702,4.0773,4.093,4.1001,4.1029,4.1227,4.1396,4.1451,4.1451,4.1396,4.1396,4.1311,4.1128,4.1213,4.1114,4.093,4.0845,4.0859,4.0702,4.0702,4.0702,4.0702,4.0702,4.0702,4.0702,4.0702,4.0702,4.0702,4.0702,4.0702,4.8232,4.8174,4.7666,4.761,4.63,4.4647,0.0,4.1191,3.9203,3.7294,3.6474,3.6045,3.5667,3.5622,3.5667,0.0,0.0,0.0,0.0,0.0,0.0,0.0,0.0,0.0,0.0,0.0,0.0,0.0,0.0,0.0,3.9177,3.9031,3.8943,3.8782,3.8023,3.781,3.8202,3.781,3.772,3.8037,3.8366,3.8441,3.8352,3.8277,3.8202,3.8277,3.8202,0.0,0.0,3.8202,3.8202,3.8202,3.8202,3.8202,3.8202,3.8202,3.8202,3.8202,3.8066,3.7929,3.7853,3.7701,3.7625,3.7534,3.7226,3.7148,3.7148,3.7148,3.7148,3.7021,3.6209,3.688,3.7895,3.8391,3.9317,3.992,3.936,3.9766,4.0329,4.0602,4.0773,4.0773,4.0773,4.093,4.1184,4.117,4.1283,4.148,4.1578,4.1633,4.1702,4.1564,4.1578,4.1564,4.1396,4.148,4.1381,4.11,4.1001,4.0916,4.0759,4.0773,4.0773,4.0702,4.0773,4.0773,4.0702,4.0702,4.0702,4.0702,4.0702,4.0702,4.6178,4.6181,4.5954,4.5717,4.502,4.3962,0.0,4.0607,3.8929,3.7255,3.6326,3.5773,3.5622,3.5728,3.5773,3.5622,0.0,0.0,0.0,0.0,0.0,0.0,0.0,0.0,0.0,0.0,0.0,0.0,0.0,0.0,3.9424,3.9424,3.9192,3.8782,3.8023,3.7567,3.7644,3.7567,3.7567,3.7644,3.8202,3.8575,3.8782,3.8352,3.8277,0.0,0.0,0.0,0.0,3.8202,3.8202,3.8202,3.8202,3.8202,3.8202,3.8202,3.8202,3.8202,3.8202,3.8066,3.7929,3.7929,3.7777,3.7625,3.7625,3.7625,3.7625,3.7625,3.7625,3.7508,3.704,3.7704,3.8201,3.7249,3.788,3.8751,3.9074,3.921,3.9489,4.0516,4.0845,4.1001,4.1001,4.1198,4.1465,4.1702,4.1549,4.1578,4.2009,4.1883,4.1785,4.2092,4.2092,4.1926,4.1396,4.1535,4.1619,4.1396,4.1184,4.1001,4.1001,4.1001,4.093,4.0688,4.093,4.093,4.0702,4.0702,4.0702,4.0702,4.0702,4.0702,4.4225,4.4383,4.4124,4.4053,4.3397,4.2503,4.1499,4.0362,3.9157,3.7774,3.7114,3.6643,3.6333,3.6002,3.5987,3.6542,3.629,0.0,0.0,0.0,0.0,0.0,0.0,0.0,0.0,0.0,0.0,0.0,0.0,0.0,3.9424,3.9424,3.9337,3.9192,3.8427,3.7962,3.781,3.7962,3.7886,3.7644,3.8486,3.887,3.8797,3.8634,3.8575,0.0,0.0,0.0,0.0,3.8202,3.8202,3.8202,3.8202,3.8202,3.8202,3.8202,3.8202,3.8202,3.8202,3.8142,3.8142,3.8142,3.8066,3.7976,3.7976,3.7839,3.7457,3.6886,3.6294,3.5872,3.6181,3.6387,3.6346,3.6002,3.7289,3.8252,3.7337,3.7947,3.8778,3.9135,3.9779,4.0329,4.0329,4.1015,4.1619,4.1688,4.1814,4.1926,4.2092,4.2009,4.1995,4.2092,4.2092,4.2009,4.1926,4.1912,4.1897,4.1619,4.1535,4.1437,4.1297,4.1283,4.1198,4.093,4.1001,4.093,4.0702,4.0702,4.0702,4.0702,4.0702,4.0702,0.0,4.2705,4.2665,4.2878,4.2297,4.1549,4.1107,4.0188,3.9111,3.8023,3.736,3.6921,3.6661,3.6241,3.6103,3.6608,3.6144,0.0,0.0,0.0,0.0,0.0,0.0,0.0,0.0,0.0,0.0,0.0,0.0,0.0,3.9409,3.917,3.9035,3.9035,3.8458,3.7997,3.7676,3.775,3.7546,3.7077,3.7915,3.829,3.8275,3.8132,3.8135,0.0,0.0,0.0,0.0,3.8277,3.8277,3.8202,3.8202,3.8202,3.8202,3.8202,3.8202,3.8202,3.8202,3.8202,3.8202,3.8202,3.8202,3.8202,3.8202,3.8052,3.7672,3.678,3.6122,3.5642,3.5306,3.5423,3.5482,3.5182,3.6272,3.7256,3.6766,3.739,3.816,3.8881,3.9618,4.0243,4.0588,4.1283,4.1883,4.1883,4.1995,4.2092,4.2092,4.2092,4.2092,4.2092,4.2092,4.2092,4.2092,4.2092,4.1995,4.1883,4.1785,4.1619,4.1549,4.1549,4.1381,4.1184,4.1269,4.11,4.0845,4.0773,4.0702,4.0702,4.0702,4.0702,0.0,4.1095,4.1427,4.1912,4.1479,4.0914,4.0848,3.9904,0.0,3.8039,3.7285,3.6803,3.6771,3.6444,3.6242,3.6216,3.574,0.0,0.0,0.0,0.0,0.0,0.0,0.0,0.0,0.0,0.0,0.0,0.0,0.0,3.9349,3.8691,3.8332,3.8317,3.8194,3.7841,3.7143,3.7216,3.6838,3.6186,3.6851,3.7213,3.7404,3.699,3.726,0.0,0.0,0.0,0.0,3.8501,3.8366,3.8277,3.8202,3.8202,3.8202,3.8202,3.8202,3.8202,3.8202,3.8173,3.813,3.8086,3.8072,3.8072,3.804,3.8098,3.8037,3.7169,3.6858,3.636,3.4485,3.4786,3.537,3.4598,3.5043,3.5926,3.7078,3.7183,3.7559,3.9367,3.9968,4.0474,4.1254,4.1814,4.2092,4.1995,4.2092,4.2092,4.2092,4.2092,4.2092,4.2092,4.2092,4.2092,4.2092,4.2092,4.2092,4.2092,4.1897,4.1702,4.1702,4.1702,4.1619,4.1396,4.1535,4.1437,4.1001,4.0773,4.0702,4.0702,4.0702,4.0702,3.9166,0.0,3.9387,3.9528,3.9405,3.9276,0.0,3.8999,3.8734,3.8519,0.0,0.0,3.8067,3.7268,3.688,3.7853,0.0,3.7648,0.0,0.0,0.0,0.0,0.0,0.0,0.0,0.0,0.0,0.0,0.0,3.9013,3.9098,3.8157,3.7713,3.7865,3.7655,3.7219,3.6475,3.7057,3.6969,3.6186,3.6976,3.7336,3.7404,3.7267,3.7302,0.0,0.0,0.0,3.8017,3.8385,3.8575,3.8634,3.8352,3.8277,3.8441,3.8277,3.8202,3.8202,3.8202,3.7897,3.7433,3.6925,3.6751,3.6693,3.6561,3.7347,3.8037,3.7169,3.6439,3.5628,3.4607,3.4611,3.4652,3.368,3.4805,3.6033,3.5493,3.6024,3.6734,3.7188,3.8419,3.9299,3.8778,4.0574,4.1814,4.1057,4.1633,4.2092,4.2092,4.2092,4.2092,4.2092,4.2092,4.2092,4.2092,4.2092,4.2092,4.2092,4.1995,4.1995,4.1995,4.1995,4.1897,4.1619,4.1339,4.1085,4.1001,4.0773,4.0702,4.0702,4.0702,4.0702,3.8269,3.8474,3.8707,3.8707,3.8707,3.8707,3.8707,0.0,0.0,0.0,0.0,0.0,0.0,0.0,0.0,0.0,3.7988,0.0,0.0,0.0,0.0,0.0,0.0,0.0,0.0,0.0,0.0,0.0,0.0,3.8508,3.8523,3.7684,3.727,3.7404,3.6872,3.6507,3.634,3.6767,3.6618,3.5898,3.632,3.6537,3.6537,3.6537,3.6634,0.0,0.0,0.0,3.7511,3.8089,3.8354,3.8369,3.8443,3.8575,3.8575,3.8427,3.8177,3.7929,3.7781,3.7375,3.6722,3.6043,3.5783,3.5695,3.525,3.5843,3.6557,3.5908,3.5642,3.5305,3.4134,3.3855,3.396,3.4028,3.4895,3.5596,3.5685,3.602,3.6546,3.7002,3.8238,3.921,3.9121,4.0745,4.1912,4.1353,4.1717,4.2092,4.2092,4.2092,4.2092,4.2092,4.2092,4.2092,4.2092,4.2092,4.2092,4.2092,4.2092,4.2092,4.2092,4.2092,4.1995,4.1897,4.1521,4.1269,4.1184,4.093,4.0773,4.0702,4.0702,4.0702,3.7811,3.82,3.8619,3.8566,3.8646,3.8738,3.8738,0.0,0.0,0.0,0.0,0.0,0.0,0.0,0.0,0.0,0.0,0.0,0.0,0.0,0.0,0.0,0.0,0.0,0.0,0.0,0.0,0.0,0.0,3.7994,3.7877,3.7203,3.6854,3.6854,3.6133,3.5989,3.6379,3.6342,3.6058,3.5504,3.5504,3.5439,3.5294,3.5294,3.5591,3.5978,0.0,0.0,3.6832,3.7411,3.7664,3.7724,3.8121,3.8473,3.862,3.8324,3.7945,3.7535,3.707,3.649,3.5683,3.5004,3.4741,3.4594,3.3991,3.4145,3.4454,3.4304,3.4841,3.5168,3.3666,3.3343,3.3694,3.4727,3.4946,3.5246,3.6406,3.6501,3.664,3.7441,3.8509,3.9373,4.0073,4.1269,4.2009,4.1912,4.2009,4.2092,4.2092,4.2092,4.2092,4.2092,4.2092,4.2092,4.2092,4.2092,4.2092,4.2092,4.2092,4.2092,4.2092,4.2092,4.2092,4.2092,4.18,4.1619,4.148,4.1184,4.093,4.0773,4.0602,4.0502,3.8028,3.8286,3.8278,3.7942,3.8324,3.8792,3.8792,0.0,0.0,0.0,0.0,0.0,0.0,0.0,0.0,0.0,0.0,0.0,0.0,0.0,0.0,0.0,0.0,0.0,0.0,0.0,0.0,0.0,0.0,3.7437,3.7517,3.6697,3.6189,3.63,3.6082,3.5891,3.5838,3.5704,3.5609,3.5504,3.5504,3.5133,3.4461,3.4461,3.4167,3.3746,0.0,3.4909,3.5543,3.5408,3.6139,3.7215,3.6363,3.6807,3.7979,3.7207,3.7243,3.7518,3.5798,3.4538,3.3688,3.3059,3.2736,3.2673,3.2955,3.3159,3.332,3.3487,3.4415,3.5128,3.4347,3.4627,3.4951,3.4262,3.5118,3.61,3.5802,3.6062,3.6452,3.6546,3.8056,3.9033,3.8328,4.0388,4.1814,4.0972,4.1535,4.2092,4.2092,4.2092,4.2092,4.2092,4.2092,4.2092,4.2092,4.2092,4.2092,4.2092,4.2092,4.2092,4.2092,4.2092,4.2092,4.2092,4.18,4.1688,4.1619,4.117,4.1001,4.0916,3.9927,3.9387,3.7024,3.7351,3.7596,3.7502,3.8359,3.9354,3.9848,0.0,0.0,0.0,0.0,0.0,0.0,0.0,0.0,0.0,0.0,0.0,0.0,0.0,0.0,0.0,0.0,0.0,0.0,0.0,0.0,0.0,0.0,0.0,3.6953,3.6536,3.6289,3.6352,3.6211,3.6085,3.5943,3.5861,3.5683,3.5504,3.5504,3.5294,3.4986,3.4986,3.4773,3.4452,0.0,3.5078,3.5392,3.5179,3.5955,3.7237,3.6718,3.7168,3.8061,3.6863,3.6567,3.6491,3.4848,3.3875,3.3237,3.2109,3.1589,3.1529,3.1721,3.1751,3.1889,3.2723,3.3875,3.4627,3.3887,3.4338,3.4964,3.4462,3.5152,3.5931,3.5981,3.6182,3.6358,3.6358,3.7874,3.9033,3.8599,4.01,4.1339,4.1437,4.1339,4.1535,4.2009,4.2092,4.2092,4.2092,4.2092,4.2092,4.2092,4.2092,4.2092,4.2092,4.2092,4.2092,4.2092,4.2092,4.2092,4.2092,4.1995,4.18,4.1688,4.1521,4.11,4.0416,3.9766,3.9135,3.6464,3.6799,3.7165,3.7294,0.0,3.9701,4.0626,0.0,0.0,0.0,0.0,0.0,0.0,0.0,0.0,0.0,0.0,0.0,0.0,0.0,0.0,0.0,0.0,0.0,0.0,0.0,0.0,0.0,0.0,0.0,3.6492,3.6492,3.6492,3.6492,3.6198,3.6044,3.5966,3.5704,3.5607,3.5634,3.5554,3.5489,3.5279,3.5213,3.5133,3.4935,3.4935,3.4935,3.4964,3.4643,3.5363,3.6499,3.6329,3.6763,3.7417,3.6318,3.5736,3.5281,3.408,3.3437,3.2932,3.1723,3.1071,3.0833,3.0983,3.0791,3.094,3.2607,3.3472,3.3824,3.3202,3.3985,3.4876,3.4751,3.524,3.5855,3.627,3.6358,3.6358,3.6358,3.7704,3.8944,3.921,3.9812,4.0703,4.1912,4.124,4.0972,4.1995,4.2092,4.2092,4.2092,4.2092,4.2092,4.2092,4.2092,4.2092,4.2092,4.2092,4.2092,4.2092,4.2092,4.2092,4.2092,4.2092,4.1995,4.1785,4.1521,4.0916,4.0069,3.9339,3.8612,3.7419,3.7562,3.7527,3.7413,0.0,0.0,4.0379,0.0,0.0,0.0,0.0,0.0,0.0,0.0,0.0,0.0,0.0,0.0,0.0,0.0,0.0,0.0,0.0,0.0,0.0,0.0,0.0,0.0,0.0,0.0,3.6492,3.6492,3.6492,3.6492,3.5876,3.5477,3.5278,3.4652,3.4851,3.5973,3.5767,3.535,3.4677,3.4461,3.4041,3.3367,3.3367,3.3367,3.3297,3.2618,3.2981,3.3968,3.3263,3.3831,3.5004,3.5129,3.4806,3.4114,3.3508,3.2648,3.1869,3.1796,3.1158,3.0583,3.122,3.0973,3.0944,3.3642,3.3569,3.2668,3.3028,3.4274,3.5353,3.4851,3.5529,3.632,3.6358,3.6358,3.6358,3.6358,3.7176,3.816,3.9033,3.9285,3.9927,4.1829,4.124,4.0972,4.1995,4.2092,4.2092,4.2092,4.2092,4.2092,4.2092,4.2092,4.2092,4.2092,4.2092,4.2092,4.2092,4.2092,4.2092,4.2092,4.2092,4.2092,4.2092,4.093,4.0388,4.0215,3.8173,3.7188,3.706,3.7756,3.8322,3.789,0.0,0.0,0.0,0.0,0.0,0.0,0.0,0.0,0.0,0.0,0.0,0.0,0.0,0.0,0.0,0.0,0.0,0.0,0.0,0.0,0.0,0.0,0.0,0.0,0.0,0.0,3.5891,3.5861,3.5676,3.5245,3.4983,3.4845,3.4785,3.4954,3.5017,3.5049,3.5216,3.5359,3.5494,3.5415,3.5139,3.4728,3.4245,3.3973,3.3796,3.3004,3.3444,3.4616,3.4657,3.5022,3.5377,3.5069,3.484,3.4472,3.3449,3.2731,3.2233,3.1378,3.081,3.0508,3.1294,3.1009,3.089,3.3227,3.3076,3.2667,3.4426,3.5131,3.5483,3.5519,3.5989,3.6358,3.6358,3.6358,3.6358,3.6358,3.7176,3.8069,3.9033,3.8675,3.8957,4.0887,4.036,4.0087,4.1071,4.1717,4.2092,4.2092,4.2092,4.2092,4.2092,4.2092,4.2092,4.2092,4.2092,4.2092,4.2092,4.2092,4.2092,4.2092,4.1535,4.1156,4.1156,4.01,3.9312,3.8689,3.7704,3.6989,3.7123,3.8024,3.8786,0.0,0.0,0.0,0.0,0.0,0.0,0.0,0.0,0.0,0.0,0.0,0.0,0.0,0.0,0.0,0.0,0.0,0.0,0.0,0.0,0.0,0.0,0.0,0.0,0.0,0.0,0.0,0.0,3.5168,3.4953,3.4491,3.426,3.4137,3.4137,3.4599,3.4706,3.4491,3.4972,3.5338,3.578,3.5717,3.5698,3.5752,3.5204,3.4595,3.4016,3.3529,3.3847,3.4706,3.5192,3.5411,3.5343,3.4753,3.4609,3.4665,3.3636,3.3144,3.2939,3.1945,3.1315,3.0931,3.1435,3.1091,3.1003,3.3088,3.3324,3.3542,3.6225,3.6151,3.571,3.6484,3.6856,3.7083,3.6977,3.6977,3.7083,3.6977,3.7256,3.7874,3.9108,3.8225,3.8069,4.0,3.9724,3.9536,4.0173,4.1437,4.2175,4.2092,4.2175,4.2175,4.2092,4.2175,4.2175,4.2092,4.2092,4.2092,4.2092,4.2092,4.1912,4.1633,4.0972,4.0418,4.0159,3.9197,3.8419,3.7808,3.7335,3.6709,3.7855,3.8426,0.0,0.0,0.0,0.0,0.0,0.0,0.0,0.0,0.0,0.0,0.0,0.0,0.0,0.0,0.0,0.0,0.0,0.0,0.0,0.0,0.0,0.0,0.0,0.0,0.0,0.0,0.0,0.0,0.0,3.446,3.446,3.4445,3.3767,3.3398,3.3398,3.3398,3.3767,3.4475,3.5153,3.5415,3.5202,3.5095,3.5336,3.5958,3.5737,3.4846,3.3534,3.3874,3.3929,3.3639,3.4188,3.4397,3.4332,3.3796,3.4046,3.4627,3.4045,3.3829,3.3829,3.3829,3.2901,3.1849,3.1836,3.1444,3.1466,3.3612,3.4416,3.5324,3.8311,3.7245,3.5846,3.7645,3.8315,3.8405,3.8198,3.8302,3.8405,3.8121,3.7322,3.7322,3.9156,3.7756,3.7176,3.9237,3.9536,3.9522,3.959,4.1254,4.231,4.2092,4.2242,4.231,4.2092,4.2325,4.231,4.2092,4.2092,4.2092,4.2092,4.2092,4.1619,4.0603,4.0589,4.0159,3.921,3.8251,3.7808,3.7717,3.6815,3.6358,3.6588,0.0,0.0,0.0,0.0,0.0,0.0,0.0,0.0,0.0,0.0,0.0,0.0,0.0,0.0,0.0,0.0,0.0,0.0,0.0,0.0,0.0,0.0,0.0,0.0,0.0,0.0,0.0,0.0,0.0,0.0,3.3976,3.3506,3.3029,3.2798,3.269,3.269,3.3675,3.3998,3.3737,3.4922,3.5476,3.5415,3.5355,3.5141,3.4668,3.4147,3.322,3.2154,3.2386,3.2894,3.3639,3.4188,3.4397,3.4384,3.4214,3.4314,3.4373,3.3819,3.4006,3.4384,3.3356,3.3167,3.3235,3.2769,3.2163,3.2044,3.4356,3.4542,3.4878,3.8429,3.856,3.8117,3.9351,3.9562,3.9285,3.8585,3.893,3.9285,3.8496,3.8662,3.9108,3.9711,3.8751,3.8056,3.8689,3.8765,3.9033,3.9807,4.1506,4.2363,4.1576,4.2184,4.2622,4.2541,4.2474,4.2392,4.231,4.1506,4.1057,4.1057,4.1057,4.0617,3.9637,3.8944,3.8509,3.8251,3.7256,3.6815,3.6815,3.6546,3.6358,3.7218,0.0,0.0,0.0,0.0,0.0,0.0,0.0,0.0,0.0,0.0,0.0,0.0,0.0,0.0,0.0,0.0,0.0,0.0,0.0,0.0,0.0,0.0,0.0,0.0,0.0,0.0,0.0,0.0,0.0,0.0,3.3614,3.306,3.2413,3.2523,3.2523,3.2398,3.362,3.4098,3.3844,3.4953,3.5476,3.5476,3.5476,3.5338,3.5049,3.3933,3.303,3.2354,3.2304,3.2844,3.3675,3.4311,3.4436,3.4481,3.4799,3.4716,3.4428,3.4415,3.4754,3.4993,3.418,3.4278,3.4685,3.4341,3.3527,3.3131,3.4837,3.5253,3.5812,3.8337,3.9398,4.0061,4.0939,4.0893,4.0589,3.9885,3.9972,4.0073,3.9798,3.9651,3.9651,3.9972,3.9197,3.8419,3.8173,3.8445,3.9149,4.0502,4.124,4.1645,4.1811,4.2087,4.2444,4.2688,4.2688,4.2622,4.2541,4.1478,4.0675,4.0145,4.0073,3.9637,3.8675,3.8069,3.7625,3.7268,3.6722,3.6358,3.6358,3.6358,3.6358,3.8595,0.0,0.0,0.0,0.0,0.0,0.0,0.0,0.0,0.0,0.0,0.0,0.0,0.0,0.0,0.0,0.0,0.0,0.0,0.0,0.0,0.0,0.0,0.0,0.0,0.0,0.0,0.0,0.0,0.0,0.0,3.3443,3.3161,3.2547,3.2757,3.2773,3.2508,3.341,3.4094,3.4442,3.5182,3.5476,3.5476,3.5476,3.5784,3.6199,3.4468,3.3627,3.3391,3.3152,3.327,3.372,3.4502,3.4634,3.4568,3.548,3.5264,3.4634,3.5507,3.5896,3.5896,3.583,3.6014,3.6245,3.6189,3.537,3.4525,3.536,3.6428,3.7535,3.8385,3.9933,4.1474,4.2192,4.2223,4.1986,4.167,4.1183,4.1014,4.1518,4.0332,3.9489,4.0131,3.936,3.8432,3.7756,3.8459,3.9678,4.1339,4.0703,4.0774,4.243,4.2184,4.2102,4.2688,4.2915,4.2915,4.2769,4.1728,4.0675,3.9508,3.9271,3.8689,3.7717,3.7625,3.7268,3.6358,3.6358,3.6358,3.6358,3.6358,3.6358,0.0,3.799,0.0,0.0,0.0,0.0,0.0,0.0,0.0,0.0,0.0,0.0,0.0,0.0,0.0,0.0,0.0,0.0,0.0,0.0,0.0,0.0,0.0,0.0,0.0,0.0,0.0,0.0,0.0,0.0,3.4528,3.3748,3.3366,3.3475,3.333,3.3203,3.3134,3.3646,3.3958,0.0,3.501,3.5476,3.5476,3.5476,3.5276,3.486,3.3261,3.2773,3.3006,3.2716,3.2877,3.3417,3.4988,3.5219,3.4793,3.618,3.6122,3.5507,3.6346,3.7078,3.7567,3.6894,3.7133,3.7659,3.7139,3.6351,3.5989,3.7367,3.7502,3.774,3.9548,4.0292,4.0905,4.2087,4.2384,4.2213,4.1957,4.2319,4.2563,4.2058,4.214,4.1961,4.076,4.0332,3.9812,3.8957,3.9651,4.0346,4.0774,4.1212,4.1728,4.2073,4.2659,4.301,4.317,4.3076,4.2981,4.2915,4.1197,3.9972,3.9508,3.8778,3.7913,3.6722,3.6722,3.6628,3.6358,3.6358,3.6358,3.6358,3.6358,3.6358,0.0,0.0,0.0,0.0,0.0,0.0,0.0,0.0,0.0,0.0,0.0,0.0,0.0,0.0,0.0,0.0,0.0,0.0,0.0,0.0,0.0,0.0,0.0,0.0,0.0,0.0,0.0,0.0,0.0,3.5311,3.483,3.399,3.3335,3.3048,3.2676,3.2399,3.2266,3.2593,3.2851,3.2912,3.4115,3.5133,3.5968,3.5968,3.5414,3.4445,3.356,3.293,3.2587,3.3048,3.3282,3.3522,3.5181,3.573,3.5718,3.6774,3.6858,3.6517,3.7309,3.7796,3.8127,3.7706,3.8098,3.8738,3.8384,3.7755,3.7346,3.8165,3.8094,3.8115,3.9173,3.9679,4.0187,4.119,4.1908,4.2458,4.2607,4.2659,4.2659,4.2659,4.2659,4.24,4.1463,4.0859,4.0246,3.9373,3.9986,4.0774,4.1212,4.1296,4.1645,4.2496,4.2659,4.2835,4.325,4.282,4.2739,4.3155,4.093,3.9623,3.9858,3.8419,3.7281,3.6465,3.6358,3.6358,3.6358,3.6358,3.6358,3.6358,3.6358,3.6358,0.0,0.0,0.0,0.0,0.0,0.0,0.0,0.0,0.0,0.0,0.0,0.0,0.0,0.0,0.0,0.0,0.0,0.0,0.0,0.0,0.0,0.0,0.0,0.0,0.0,0.0,0.0,0.0,0.0,3.5581,3.4605,3.3931,3.3201,3.2331,3.1951,3.1598,3.1258,3.1453,3.1607,3.1717,3.2967,3.4477,3.6199,3.6199,3.5599,3.4645,3.4388,3.3563,3.2466,3.3587,3.3892,3.3908,3.5392,3.6105,3.6429,3.7317,3.7506,3.7368,3.813,3.8427,3.8427,3.8427,3.8885,3.9424,3.9424,3.902,3.8571,3.8571,3.8571,3.8571,3.8571,3.899,3.9589,4.0247,4.1235,4.2207,4.2851,4.2503,4.2239,4.3006,4.2504,4.199,4.199,4.1212,4.0418,3.9812,4.0246,4.1029,4.2073,4.138,4.1449,4.3155,4.2659,4.2496,4.325,4.2496,4.2333,4.2996,4.0661,3.9461,3.9958,3.8147,3.6922,3.6546,3.6452,3.6358,3.6358,3.6358,3.6358,3.6358,3.6358,3.6358,0.0,0.0,0.0,0.0,0.0,0.0,0.0,0.0,0.0,0.0,0.0,0.0,0.0,0.0,0.0,0.0,0.0,0.0,0.0,0.0,0.0,0.0,0.0,0.0,0.0,0.0,0.0,0.0,3.4806,3.4491,3.3719,3.3319,3.305,3.2912,3.2566,3.2229,3.1901,3.1678,3.1467,3.1315,3.216,3.346,3.5132,3.484,3.4968,3.5306,3.4722,3.3897,3.3123,3.3887,3.4075,3.4167,3.6103,3.6388,3.6025,3.8042,3.821,3.7594,3.9026,3.9409,3.9265,3.9265,3.9337,3.9424,3.9424,3.9349,3.929,3.929,3.929,3.929,3.929,3.9349,3.9589,4.0247,4.0531,4.0846,4.1504,4.201,4.2399,4.2491,4.2195,4.199,4.199,4.1212,4.0859,4.1547,4.1029,4.1197,4.2915,4.2333,4.2155,4.317,4.317,4.317,4.325,4.2496,4.2073,4.2155,4.0332,3.9121,3.906,3.8031,3.7307,3.7015,3.664,3.6358,3.6358,3.6358,3.6358,3.6358,3.6358,3.6358,3.4767,0.0,0.0,0.0,0.0,0.0,0.0,0.0,0.0,0.0,0.0,0.0,0.0,0.0,0.0,0.0,0.0,0.0,0.0,0.0,0.0,0.0,0.0,0.0,0.0,0.0,0.0,0.0,3.4562,3.4103,3.3539,3.2966,3.258,3.2395,3.1824,3.1368,3.1034,3.0945,3.1032,3.1404,3.1997,3.299,3.4275,3.4623,3.4574,3.4306,3.3998,3.3418,3.2824,3.3897,3.4342,3.4451,3.6058,3.6706,3.6854,3.8105,3.8478,3.8507,3.9369,3.9625,3.9553,3.9424,3.9424,3.9424,3.9424,3.9424,3.9424,3.9424,3.9424,3.9424,3.9424,3.9424,3.9484,3.9783,3.9843,3.9933,4.0217,4.1085,4.1923,4.2374,4.255,4.2578,4.2073,4.2058,4.2058,4.199,4.1645,4.1893,4.3155,4.2578,4.2319,4.317,4.3329,4.3329,4.3329,4.2496,4.199,4.199,4.0246,3.9121,3.9046,3.8018,3.7413,3.7307,3.6922,3.6734,3.6534,3.6534,3.6546,3.6358,3.6358,3.6358,0.0,0.0,0.0,0.0,0.0,0.0,0.0,0.0,0.0,0.0,0.0,0.0,0.0,0.0,0.0,0.0,0.0,0.0,0.0,0.0,0.0,0.0,0.0,0.0,0.0,0.0,0.0,0.0,3.4111,3.3562,3.31,3.2554,3.2072,3.1765,3.1211,3.0764,3.0418,3.0293,3.0603,3.1358,3.175,3.251,3.3529,3.4123,3.3985,3.328,3.3393,3.3013,3.249,3.3706,3.4306,3.4599,3.5768,3.6645,3.7323,3.7855,3.8381,3.8986,3.9395,3.9688,3.9768,3.964,3.9568,3.9568,3.9568,3.9568,3.9568,3.9568,3.9496,3.9496,3.9496,3.9424,3.9424,3.9424,3.9424,3.9469,3.9634,4.0442,4.1369,4.2207,4.2746,4.2882,4.2386,4.2659,4.282,4.24,4.2155,4.2319,4.317,4.2739,4.2578,4.325,4.3329,4.3329,4.3329,4.2496,4.199,4.199,4.0246,3.921,3.921,3.82,3.7598,3.7598,3.7413,3.7108,3.6709,3.6709,3.6628,3.6358,3.6358,3.6358,0.0,0.0,0.0,0.0,0.0,0.0,0.0,0.0,0.0,0.0,0.0,0.0,0.0,0.0,0.0,0.0,0.0,0.0,0.0,0.0,0.0,0.0,0.0,0.0,0.0,0.0,0.0,0.0,3.299,3.2662,3.1918,3.1832,3.1685,3.1346,3.1274,3.1123,3.0804,3.0267,3.0331,3.0946,3.1133,3.175,3.2666,3.2892,3.299,3.2921,3.3249,3.3013,3.2444,3.3167,3.386,3.4552,3.526,3.5953,3.663,3.7307,3.7839,3.8351,3.9023,3.9573,3.9996,3.9996,3.994,3.994,3.994,3.994,3.994,3.994,3.9839,3.9681,3.9681,3.9553,3.9424,3.9424,3.9424,3.9589,4.0217,4.0397,4.0831,4.2117,4.2387,4.2596,4.3145,4.2578,4.2319,4.3076,4.2496,4.2319,4.317,4.325,4.325,4.3344,4.3329,4.3329,4.3329,4.2496,4.199,4.199,4.0246,3.921,3.921,3.8304,3.79,3.79,3.79,3.7505,3.6709,3.6709,3.6628,3.6358,3.6358,3.6358,0.0,0.0,0.0,0.0,0.0,0.0,0.0,0.0,0.0,0.0,0.0,0.0,0.0,0.0,0.0,0.0,0.0,0.0,0.0,0.0,0.0,0.0,0.0,0.0,0.0,0.0,0.0,0.0,0.0,3.2076,3.18,3.18,3.1746,3.1617,3.1634,3.1466,3.1123,3.0723,3.0609,3.0849,3.1386,3.1854,3.2304,3.2819,3.3057,3.3165,3.3076,3.281,3.2444,3.3121,3.3829,3.4537,3.5214,3.5891,3.6569,3.7246,3.7858,3.8453,3.8977,3.9612,4.0137,4.0066,4.0011,4.0011,4.0011,4.0011,4.0011,4.0011,3.9925,3.9925,3.9925,3.9854,3.9783,3.9625,3.9481,3.9484,3.9723,4.0427,4.1175,4.1639,4.2417,4.306,4.3284,4.2996,4.2915,4.325,4.2996,4.2915,4.325,4.3329,4.3329,4.3329,4.3329,4.3329,4.3329,4.2996,4.2578,4.2073,4.138,4.0418,3.9285,3.8881,3.8472,3.79,3.79,3.7703,3.7214,3.7015,3.6815,3.6628,3.6452,3.6358,3.1143,0.0,0.0,0.0,0.0,0.0,0.0,0.0,0.0,0.0,0.0,0.0,0.0,0.0,0.0,0.0,0.0,0.0,0.0,0.0,0.0,0.0,0.0,0.0,0.0,0.0,0.0,0.0,0.0,0.0,3.18,3.18,3.18,3.18,3.18,3.1634,3.1295,3.1083,3.0925,3.0804,3.1809,3.2314,3.2409,3.3285,3.3664,3.3607,3.3224,3.2904,3.2609,3.2946,3.3614,3.4522,3.4968,3.5691,3.6538,3.6999,3.7584,3.8262,3.879,3.9412,4.004,4.013,4.0137,4.0137,4.0137,4.0137,4.0137,4.0137,4.0137,4.0066,4.0066,4.0066,3.9925,3.9768,3.9625,3.9481,3.9409,4.0113,4.0846,4.1294,4.2087,4.2821,4.3254,4.3329,4.3329,4.3329,4.3329,4.3329,4.3329,4.3329,4.3329,4.3329,4.3329,4.3329,4.3329,4.3329,4.3076,4.2496,4.2155,4.1463,4.0159,3.9549,3.8957,3.8304,3.807,3.7808,3.7611,3.7413,3.7108,3.6815,3.6734,3.6546,0.0,0.0,0.0,0.0,0.0,0.0,0.0,0.0,0.0,0.0,0.0,0.0,0.0,0.0,0.0,0.0,0.0,0.0,0.0,0.0,0.0,0.0,0.0,0.0,0.0,0.0,0.0,0.0,3.1946,3.18,3.18,3.18,3.18,3.18,3.18,3.1634,3.1334,3.1295,3.1123,3.0861,3.2303,3.3007,3.3048,3.4243,3.4592,3.4284,3.3716,3.323,3.2897,3.2523,3.3198,3.4445,3.446,3.5291,3.6461,3.6476,3.6923,3.7584,3.8246,3.8939,3.9631,4.0293,4.0509,4.0524,4.0524,4.0524,4.0524,4.0524,4.0401,4.0347,4.0347,4.0137,3.9925,3.9753,3.9681,3.9625,3.9409,3.9424,3.9813,4.113,4.1399,4.1818,4.3105,4.3329,4.3329,4.3329,4.3329,4.3329,4.3329,4.3329,4.3329,4.3329,4.3329,4.3329,4.3329,4.3329,4.3329,4.3329,4.2496,4.199,4.199,4.0246,3.9285,3.921,3.8395,3.79,3.79,3.7611,3.7413,3.7108,3.7108,3.6922,2.9754,0.0,0.0,0.0,0.0,0.0,0.0,0.0,0.0,0.0,0.0,0.0,0.0,0.0,0.0,0.0,0.0,0.0,0.0,0.0,0.0,0.0,0.0,0.0,0.0,0.0,0.0,0.0,3.2037,3.2018,3.2018,3.2018,3.1929,3.18,3.18,3.1763,3.1671,3.1671,3.1634,3.1521,3.2461,3.3076,3.3372,3.4259,3.4779,3.4944,3.4544,3.4053,3.3507,3.2711,3.2906,3.3752,3.4275,3.4999,3.583,3.6307,3.6923,3.7523,3.7707,3.8539,3.9554,3.9739,4.0124,4.0524,4.0524,4.0524,4.0524,4.0524,4.0455,4.0455,4.0455,4.0331,4.0207,4.0121,3.991,3.9681,3.9625,3.9625,3.9944,4.1205,4.1758,4.2357,4.318,4.3329,4.3329,4.3329,4.3329,4.3329,4.3329,4.3329,4.3329,4.3329,4.3329,4.3329,4.3329,4.3329,4.3329,4.3329,4.3076,4.2659,4.199,4.1463,4.0603,3.9197,3.8957,3.8562,3.79,3.7611,3.7505,3.7413,3.7201,3.6922,0.0,0.0,0.0,0.0,0.0,0.0,0.0,3.3546,0.0,0.0,0.0,0.0,0.0,0.0,0.0,0.0,0.0,0.0,0.0,0.0,0.0,0.0,0.0,0.0,0.0,3.2639,3.2539,3.2301,3.2232,3.2161,3.2161,3.2144,3.2054,3.1929,3.1819,3.18,3.18,3.18,3.18,3.18,3.2886,3.3493,3.3796,3.4839,3.5385,3.5453,3.5191,3.4736,3.4185,3.3762,3.3513,3.3444,3.4131,3.4849,3.5537,3.5922,3.6507,3.7123,3.74,3.8015,3.8769,3.9339,3.9785,4.017,4.0447,4.0524,4.0524,4.0524,4.0524,4.0524,4.0524,4.047,4.0331,4.0331,4.0121,3.991,3.9839,3.9839,4.0085,4.0845,4.1355,4.1986,4.2761,4.2925,4.3015,4.3284,4.3329,4.3329,4.3329,4.3329,4.3329,4.3329,4.3329,4.3329,4.3329,4.3329,4.3329,4.3329,4.3329,4.309,4.2578,4.2155,4.1463,4.0418,3.9637,3.8792,3.79,3.7703,3.7703,3.7703,3.74,3.7214,0.0,0.0,0.0,0.0,0.0,0.0,3.3301,3.28,3.2383,0.0,0.0,0.0,0.0,0.0,0.0,0.0,0.0,0.0,0.0,0.0,0.0,0.0,0.0,0.0,3.323,3.3019,3.2885,3.273,3.2473,3.2318,3.2283,3.2197,3.2108,3.2108,3.1893,3.18,3.18,3.18,3.18,3.1817,3.3266,3.3955,3.4007,3.549,3.6011,3.5708,3.5582,3.5266,3.488,3.5235,3.4631,3.3572,3.4125,3.4804,3.5488,3.5505,3.5907,3.6584,3.7184,3.7446,3.7707,3.8908,3.9339,3.9524,4.0216,4.0416,4.0432,4.0509,4.0524,4.0524,4.0524,4.0524,4.047,4.0331,4.0331,4.0277,4.0066,3.9996,4.0107,4.0319,4.0558,4.1083,4.2119,4.2389,4.2629,4.315,4.3284,4.3329,4.3344,4.3329,4.3329,4.3329,4.3329,4.3329,4.3329,4.3329,4.3329,4.3329,4.3329,4.3329,4.3329,4.2578,4.2073,4.199,4.0159,3.8792,3.807,3.7992,3.79,3.79,3.7703,3.7505,0.0,0.0,0.0,0.0,0.0,0.0,0.0,3.0678,3.103,0.0,0.0,0.0,0.0,0.0,0.0,0.0,0.0,0.0,0.0,0.0,0.0,0.0,0.0,0.0,3.5101,3.5037,3.4605,3.3631,3.2926,3.2454,3.2318,3.2283,3.2197,3.2108,3.1893,3.18,3.18,3.18,3.18,3.18,3.2714,3.3128,3.3179,3.4714,3.5363,3.5356,3.5899,3.5793,3.5328,3.583,3.5235,3.4108,3.4886,3.5244,3.5316,3.544,3.5907,3.6507,3.6645,3.7046,3.7538,3.7815,3.8262,3.8831,3.9508,3.9724,3.9831,4.037,4.0524,4.0524,4.0524,4.0524,4.0455,4.047,4.0401,4.0277,4.0277,4.0277,4.0182,4.0092,4.0561,4.1109,4.1761,4.241,4.2879,4.2784,4.3406,4.3817,4.3675,4.3596,4.3518,4.3329,4.3329,4.3329,4.3329,4.3329,4.3329,4.3329,4.3329,4.3329,4.3329,4.317,4.2754,4.199,4.0159,3.9121,3.8957,3.8226,3.79,3.79,3.7808,3.7716,0.0,0.0,0.0,3.3249,0.0,0.0,0.0,0.0,0.0,0.0,0.0,0.0,0.0,0.0,0.0,0.0,0.0,0.0,0.0,0.0,0.0,0.0,0.0,0.0,3.5205,3.5569,3.5485,3.4766,3.4339,3.388,3.3372,3.3288,3.3044,3.2573,3.2179,3.1929,3.1929,3.1873,3.18,3.18,3.2559,3.2904,3.2955,3.449,3.5197,3.5232,3.5973,3.6114,3.5915,3.6473,3.6123,3.5195,3.5251,3.5752,3.638,3.6031,3.6326,3.6952,3.6952,3.694,3.7061,3.7384,3.7738,3.8138,3.8816,3.9247,3.9662,4.0339,4.0524,4.0524,4.0524,4.0524,4.0524,4.0524,4.047,4.0401,4.0401,4.0401,4.0401,4.0261,4.0537,4.0852,4.1319,4.1698,4.2105,4.2274,4.297,4.3487,4.3333,4.3635,4.3754,4.3503,4.3518,4.3423,4.3329,4.3329,4.3329,4.3329,4.3329,4.3329,4.3329,4.3329,4.2915,4.199,4.1113,4.0159,3.921,3.8805,3.8304,3.79,3.79,3.7808,0.0,0.0,0.0,0.0,0.0,3.2133,0.0,0.0,0.0,0.0,0.0,0.0,0.0,0.0,0.0,0.0,0.0,0.0,0.0,0.0,0.0,0.0,0.0,0.0,0.0,3.5093,3.5375,3.5661,3.5214,3.4857,3.4708,3.4402,3.3962,3.3301,3.2592,3.2214,3.2214,3.2001,3.1893,3.1873,3.2478,3.2734,3.2748,3.4283,3.4973,3.5025,3.5921,3.6301,3.6353,3.6861,3.6861,3.6406,3.5836,3.6389,3.738,3.6816,3.6996,3.7578,3.746,3.7118,3.6755,3.7186,3.74,3.76,3.8138,3.8877,3.9631,4.0185,4.0432,4.0524,4.0524,4.0524,4.0524,4.0524,4.0524,4.0524,4.0524,4.0524,4.0524,4.0524,4.0524,4.057,4.0852,4.0978,4.1252,4.1754,4.2423,4.2925,4.3046,4.3533,4.3851,4.3754,4.369,4.3596,4.3423,4.3329,4.3329,4.3344,4.3329,4.3329,4.3329,4.3329,4.2996,4.2237,4.2073,4.1197,3.9461,3.9285,3.8715,3.79,3.79,3.79,0.0,0.0,0.0,0.0,3.5594,0.0,0.0,0.0,0.0,0.0,0.0,0.0,0.0,0.0,0.0,0.0,0.0,0.0,0.0,0.0,0.0,0.0,0.0,0.0,0.0,3.3578,3.3495,3.5769,3.3814,3.3459,3.569,3.4951,3.4407,3.4335,3.3234,3.2636,3.2636,3.2369,3.2197,3.209,3.216,3.2104,3.1972,3.3507,3.4214,3.4283,3.5697,3.6301,3.6318,3.6387,3.6801,3.7317,3.7216,3.7218,3.7336,3.7491,3.791,3.8278,3.7764,3.7445,3.7194,3.6755,3.7015,3.7507,3.7584,3.8508,3.9539,3.9616,4.0062,4.0524,4.0524,4.0524,4.0524,4.0524,4.0524,4.0524,4.0524,4.0524,4.0524,4.0524,4.0524,4.0486,4.0368,4.1045,4.1459,4.1377,4.2119,4.2778,4.3211,4.3349,4.3548,4.3927,4.3847,4.3769,4.391,4.3581,4.3423,4.3596,4.3423,4.3329,4.3329,4.3329,4.325,4.317,4.2415,4.1463,4.0418,3.9637,3.8715,3.79,3.79,3.79,0.0,0.0,0.0,0.0,0.0,0.0,0.0,0.0,3.1169,0.0,0.0,0.0,0.0,0.0,0.0,0.0,0.0,0.0,0.0,0.0,0.0,0.0,0.0,0.0,0.0,0.0,0.0,0.0,3.4181,3.3915,3.6054,3.5823,3.5593,3.5593,3.4389,3.3696,3.3573,3.29,3.2504,3.2454,3.2283,3.2179,3.2196,3.3601,3.4177,3.4162,3.5663,3.6301,3.6301,3.6301,3.649,3.687,3.7302,3.7921,3.8557,3.8246,3.8471,3.8995,3.8707,3.8124,3.7358,3.7118,3.7201,3.7513,3.7904,3.8435,3.8932,3.936,3.9962,4.0458,4.0485,4.0524,4.0524,4.0524,4.0524,4.0524,4.0524,4.0524,4.0524,4.0524,4.0524,4.0455,4.0401,4.0716,4.09,4.083,4.15,4.2125,4.2329,4.3021,4.353,4.3594,4.3899,4.4065,4.3988,4.3817,4.366,4.369,4.3423,4.3329,4.3329,4.3329,4.3329,4.3329,4.2915,4.2319,4.138,4.1029,4.0346,3.9414,3.8408,3.79,3.8443,0.0,0.0,0.0,0.0,0.0,0.0,0.0,0.0,0.0,0.0,0.0,0.0,0.0,0.0,0.0,0.0,0.0,0.0,0.0,0.0,0.0,0.0,0.0,0.0,0.0,0.0,0.0,0.0,3.3844,3.6593,3.6583,3.6583,3.6805,3.5648,3.4836,3.4437,3.3692,3.314,3.2844,3.2897,3.2887,3.294,3.416,3.4669,3.4675,3.5814,3.6301,3.6301,3.6301,3.6301,3.6353,3.6939,3.7912,3.894,3.8803,3.918,3.9714,3.9594,3.8707,3.778,3.778,3.7738,3.7775,3.8046,3.8407,3.8695,3.9118,3.9893,4.0657,4.0484,4.0628,4.0715,4.0524,4.0524,4.0524,4.0524,4.0524,4.0524,4.0524,4.0524,4.0524,4.0524,4.0524,4.0524,4.0524,4.097,4.137,4.1571,4.2432,4.3171,4.3392,4.3792,4.4083,4.4205,4.4065,4.391,4.3769,4.3581,4.3503,4.3423,4.3423,4.3344,4.3329,4.3329,4.2835,4.199,4.199,4.1547,4.0589,3.8997,3.8226,0.0,0.0,0.0,3.6868,0.0,0.0,0.0,0.0,3.3083,0.0,0.0,0.0,0.0,0.0,0.0,0.0,0.0,0.0,0.0,0.0,0.0,0.0,0.0,0.0,0.0,0.0,0.0,0.0,0.0,0.0,3.757,3.7113,3.7058,3.7838,3.6888,3.592,3.5064,3.4851,3.4248,3.3291,3.4063,3.4328,3.4177,3.5332,3.5857,3.5872,3.6186,3.6301,3.6301,3.6301,3.6301,3.6301,3.6335,3.6835,3.7715,3.9146,4.0087,4.0583,4.0003,3.9282,3.8635,3.8635,3.8596,3.8351,3.7796,3.8392,3.913,3.8613,3.9827,4.1238,4.0562,4.0954,4.1327,4.0646,4.0524,4.0524,4.0524,4.0524,4.0524,4.0524,4.0524,4.0524,4.0524,4.0524,4.0524,4.0524,4.0539,4.0816,4.1509,4.1632,4.2155,4.3433,4.3453,4.3639,4.4526,4.4205,4.3988,4.3988,4.3988,4.391,4.369,4.369,4.3596,4.3329,4.3329,4.2835,4.199,4.199,4.1547,4.0589,3.9651,3.9121,0.0,0.0,4.0346,3.8185,0.0,0.0,0.0,0.0,0.0,0.0,0.0,0.0,0.0,0.0,0.0,0.0,0.0,0.0,0.0,0.0,0.0,0.0,0.0,0.0,0.0,0.0,0.0,0.0,3.1159,0.0,0.0,3.6556,3.7058,3.7856,3.758,3.7193,3.6758,3.5588,3.4825,3.4476,3.4608,3.4677,3.4714,3.5918,3.6363,3.6148,3.6682,3.6776,3.6544,3.6544,3.6444,3.6301,3.6301,3.6784,3.7611,3.8594,3.9365,3.9881,3.9733,3.9749,3.9817,3.942,3.9262,3.9156,3.887,3.9051,3.9292,3.9043,3.9761,4.0655,4.0981,4.0896,4.0826,4.11,4.0836,4.0524,4.0524,4.0524,4.0524,4.0524,4.0524,4.0524,4.0524,4.0524,4.0524,4.0524,4.0524,4.0616,4.0863,4.1309,4.1771,4.2217,4.2975,4.3589,4.3895,4.4098,4.4205,4.4205,4.405,4.3988,4.391,4.3769,4.369,4.3596,4.3423,4.317,4.2835,4.2835,4.2659,4.24,4.1463,4.0418,4.0053,4.0451,0.0,3.8831,3.7527,0.0,3.423,0.0,0.0,0.0,0.0,0.0,0.0,0.0,0.0,0.0,0.0,0.0,0.0,0.0,0.0,0.0,0.0,0.0,0.0,0.0,2.9035,3.1582,3.068,0.0,0.0,0.0,3.7058,3.7856,3.8172,3.8136,3.7701,3.6648,3.5964,3.5687,3.5828,3.5919,3.5984,3.6929,3.722,3.6966,3.7201,3.7091,3.6811,3.6725,3.6544,3.6301,3.6301,3.6611,3.718,3.8215,3.9187,3.9993,4.0067,4.0303,4.0583,4.0187,4.0037,3.9935,3.9645,3.9645,3.9746,3.9501,4.0012,4.0771,4.1009,4.1123,4.1257,4.1422,4.1154,4.0904,4.1142,4.0836,4.0593,4.0836,4.0646,4.0524,4.0524,4.0524,4.0524,4.0524,4.0524,4.0524,4.0524,4.0924,4.1324,4.1571,4.2571,4.3417,4.3895,4.425,4.4435,4.4435,4.4281,4.4205,4.4127,4.3988,4.3847,4.369,4.3518,4.3423,4.3329,4.3329,4.3329,4.325,4.2739,4.163]},{"header":{"parameterUnit":"m.s-1","parameterCategory":1,"la1":30.6,"la2":29.2853,"lo1":-89.7004,"lo2":-87.6739,"dy":0.0162,"dx":0.0183,"nx":112,"ny":82,"refTime":"2025-05-17T06:00:00:Z","depth":0,"parameterNumber":3,"parameterNumberName":"V-component_of_WINDS"},"data":[0.0,0.0,0.0,0.0,0.0,0.0,0.0,0.0,0.0,0.0,0.0,0.0,0.0,0.0,0.0,0.0,0.0,0.0,0.0,0.0,0.0,0.0,0.0,0.0,0.0,0.0,0.0,0.0,0.0,0.0,0.0,0.0,0.0,0.0,0.0,0.0,0.0,0.0,0.0,0.0,0.0,0.0,0.0,0.0,0.0,0.0,0.0,0.0,0.0,0.0,0.0,0.0,0.0,0.0,0.0,0.0,0.0,0.0,0.0,0.0,0.0,0.0,0.0,0.0,0.0,0.0,0.0,0.0,0.0,0.0,0.0,0.0,0.0,0.0,0.0,0.0,0.0,0.0,0.0,0.0,0.0,0.0,0.0,0.0,0.0,0.0,0.0,0.0,0.0,0.0,0.0,-1.9081,-2.0412,-2.1211,-2.1211,-2.0867,-2.0252,-1.933,0.0,0.0,0.0,0.0,0.0,0.0,0.0,0.0,0.0,0.0,0.0,0.0,0.0,0.0,0.0,0.0,0.0,0.0,0.0,0.0,0.0,0.0,0.0,0.0,0.0,0.0,0.0,0.0,0.0,0.0,0.0,0.0,0.0,0.0,0.0,0.0,0.0,0.0,0.0,0.0,0.0,0.0,0.0,0.0,0.0,0.0,0.0,0.0,0.0,0.0,0.0,0.0,0.0,0.0,0.0,0.0,0.0,0.0,0.0,0.0,0.0,0.0,0.0,0.0,0.0,0.0,0.0,0.0,0.0,0.0,0.0,0.0,0.0,0.0,0.0,0.0,0.0,0.0,0.0,0.0,0.0,0.0,0.0,0.0,0.0,0.0,0.0,0.0,0.0,0.0,0.0,0.0,0.0,0.0,0.0,0.0,0.0,0.0,0.0,0.0,0.0,0.0,0.0,0.0,-1.8275,-2.0208,-2.0925,-2.1211,-2.1211,-2.0655,-2.0011,-1.9323,0.0,0.0,0.0,0.0,0.0,0.0,0.0,0.0,0.0,0.0,0.0,0.0,0.0,0.0,0.0,0.0,0.0,0.0,0.0,0.0,0.0,0.0,0.0,0.0,0.0,0.0,0.0,0.0,0.0,0.0,0.0,0.0,0.0,0.0,0.0,0.0,0.0,0.0,0.0,0.0,0.0,0.0,0.0,0.0,0.0,0.0,0.0,0.0,0.0,0.0,0.0,0.0,0.0,0.0,0.0,0.0,0.0,0.0,0.0,0.0,0.0,0.0,0.0,0.0,0.0,0.0,0.0,0.0,0.0,0.0,0.0,0.0,0.0,0.0,0.0,0.0,0.0,0.0,0.0,0.0,0.0,0.0,0.0,0.0,0.0,0.0,0.0,0.0,0.0,0.0,0.0,0.0,0.0,0.0,0.0,0.0,0.0,0.0,0.0,0.0,0.0,0.0,0.0,-1.784,-1.8731,-2.0779,-2.1123,-2.1211,-2.1211,-2.0611,-1.9959,-1.9316,-1.8196,0.0,0.0,0.0,0.0,0.0,0.0,0.0,0.0,0.0,0.0,0.0,0.0,0.0,0.0,0.0,0.0,0.0,0.0,0.0,0.0,0.0,0.0,0.0,0.0,0.0,0.0,0.0,0.0,0.0,0.0,0.0,0.0,0.0,0.0,0.0,0.0,0.0,0.0,0.0,0.0,0.0,0.0,0.0,0.0,0.0,0.0,0.0,0.0,0.0,0.0,0.0,0.0,0.0,0.0,0.0,0.0,0.0,0.0,0.0,0.0,0.0,0.0,0.0,0.0,0.0,0.0,0.0,0.0,0.0,0.0,0.0,0.0,0.0,0.0,0.0,0.0,0.0,0.0,0.0,0.0,0.0,0.0,0.0,0.0,0.0,0.0,0.0,0.0,0.0,0.0,0.0,0.0,0.0,0.0,0.0,0.0,0.0,0.0,0.0,0.0,0.0,0.0,-1.8833,-1.9389,-2.1035,-2.1211,-2.1211,-2.1211,-2.0545,-1.9879,-1.9308,-1.7977,0.0,0.0,0.0,0.0,0.0,0.0,0.0,0.0,0.0,0.0,0.0,0.0,0.0,0.0,0.0,0.0,0.0,0.0,0.0,0.0,0.0,0.0,0.0,0.0,0.0,0.0,0.0,0.0,0.0,0.0,0.0,0.0,0.0,0.0,0.0,0.0,0.0,0.0,0.0,0.0,0.0,0.0,0.0,0.0,0.0,0.0,0.0,0.0,0.0,0.0,0.0,0.0,0.0,0.0,0.0,0.0,0.0,0.0,0.0,0.0,0.0,0.0,0.0,0.0,0.0,0.0,0.0,0.0,0.0,0.0,0.0,0.0,0.0,0.0,0.0,0.0,0.0,0.0,0.0,0.0,0.0,0.0,0.0,0.0,0.0,0.0,0.0,0.0,0.0,0.0,0.0,0.0,0.0,0.0,0.0,0.0,0.0,0.0,0.0,0.0,0.0,0.0,-1.9199,-2.0384,-2.113,-2.1211,-2.1211,-2.1211,-2.034,-1.9652,-1.9294,-1.7772,0.0,0.0,0.0,0.0,0.0,0.0,0.0,0.0,0.0,0.0,0.0,0.0,0.0,0.0,0.0,0.0,0.0,0.0,0.0,0.0,0.0,0.0,0.0,0.0,0.0,0.0,0.0,0.0,0.0,0.0,0.0,0.0,0.0,0.0,0.0,0.0,0.0,0.0,0.0,0.0,0.0,0.0,0.0,0.0,0.0,0.0,0.0,0.0,0.0,0.0,0.0,0.0,0.0,0.0,0.0,0.0,0.0,0.0,0.0,0.0,0.0,0.0,0.0,0.0,0.0,0.0,0.0,0.0,0.0,0.0,0.0,0.0,0.0,0.0,0.0,0.0,0.0,0.0,0.0,0.0,0.0,0.0,0.0,0.0,0.0,0.0,0.0,0.0,0.0,0.0,0.0,0.0,0.0,0.0,0.0,0.0,0.0,0.0,0.0,0.0,0.0,0.0,-1.8701,-1.9813,0.0,-2.1211,-2.1211,-2.1211,-2.0501,-1.9747,-1.9016,0.0,0.0,0.0,0.0,0.0,0.0,0.0,0.0,0.0,0.0,0.0,0.0,0.0,0.0,0.0,0.0,0.0,0.0,0.0,0.0,0.0,0.0,0.0,0.0,0.0,0.0,0.0,0.0,0.0,0.0,0.0,0.0,0.0,0.0,0.0,0.0,0.0,0.0,0.0,0.0,0.0,0.0,0.0,0.0,0.0,0.0,0.0,0.0,0.0,0.0,0.0,0.0,0.0,0.0,0.0,0.0,0.0,0.0,0.0,0.0,0.0,0.0,0.0,0.0,0.0,0.0,0.0,0.0,0.0,0.0,0.0,0.0,0.0,0.0,0.0,0.0,0.0,0.0,0.0,0.0,0.0,0.0,0.0,0.0,0.0,0.0,0.0,0.0,0.0,0.0,0.0,0.0,0.0,0.0,0.0,0.0,0.0,0.0,0.0,0.0,0.0,0.0,-1.7465,-1.8591,-1.9755,0.0,-2.1211,-2.1211,-2.1211,-2.042,-1.9663,-1.8686,0.0,0.0,0.0,0.0,0.0,0.0,0.0,0.0,0.0,0.0,0.0,0.0,0.0,0.0,0.0,0.0,0.0,0.0,0.0,0.0,0.0,0.0,0.0,0.0,0.0,0.0,0.0,0.0,0.0,0.0,0.0,0.0,0.0,0.0,0.0,0.0,0.0,0.0,0.0,0.0,0.0,0.0,0.0,0.0,0.0,0.0,0.0,0.0,0.0,0.0,0.0,0.0,0.0,0.0,0.0,0.0,0.0,0.0,0.0,0.0,0.0,0.0,0.0,0.0,0.0,0.0,0.0,0.0,0.0,0.0,0.0,0.0,0.0,0.0,0.0,0.0,0.0,0.0,0.0,0.0,0.0,0.0,0.0,0.0,0.0,0.0,0.0,0.0,0.0,0.0,0.0,0.0,0.0,0.0,0.0,0.0,0.0,0.0,0.0,0.0,0.0,0.0,-1.7245,-1.903,-2.0486,-2.1137,-2.1211,-2.1211,-2.1211,-2.0219,-1.9184,0.0,0.0,0.0,0.0,0.0,0.0,0.0,0.0,0.0,0.0,0.0,0.0,0.0,0.0,0.0,0.0,0.0,0.0,0.0,0.0,0.0,0.0,0.0,0.0,0.0,0.0,0.0,0.0,0.0,0.0,0.0,0.0,0.0,0.0,0.0,0.0,0.0,0.0,0.0,0.0,0.0,0.0,0.0,0.0,0.0,0.0,0.0,0.0,0.0,0.0,0.0,0.0,0.0,0.0,0.0,0.0,0.0,0.0,0.0,0.0,0.0,0.0,0.0,0.0,0.0,0.0,0.0,0.0,0.0,0.0,0.0,0.0,0.0,0.0,0.0,0.0,0.0,0.0,0.0,0.0,0.0,0.0,0.0,0.0,0.0,0.0,0.0,0.0,0.0,0.0,0.0,0.0,0.0,0.0,0.0,0.0,0.0,0.0,0.0,0.0,0.0,0.0,0.0,-1.7216,-1.9126,-2.07,-2.1137,-2.1211,-2.1325,-2.1554,-2.0543,-1.9435,-1.8417,0.0,0.0,0.0,0.0,0.0,0.0,0.0,0.0,0.0,0.0,0.0,0.0,0.0,0.0,0.0,0.0,0.0,0.0,0.0,0.0,0.0,0.0,0.0,0.0,0.0,0.0,0.0,0.0,0.0,0.0,0.0,0.0,0.0,0.0,0.0,0.0,0.0,0.0,0.0,0.0,0.0,0.0,0.0,0.0,0.0,0.0,0.0,0.0,0.0,0.0,0.0,0.0,0.0,0.0,0.0,0.0,0.0,0.0,0.0,0.0,0.0,0.0,0.0,0.0,0.0,0.0,0.0,0.0,0.0,0.0,0.0,0.0,0.0,0.0,0.0,0.0,0.0,0.0,0.0,0.0,0.0,0.0,0.0,0.0,0.0,0.0,0.0,0.0,0.0,0.0,0.0,0.0,0.0,0.0,0.0,0.0,0.0,0.0,0.0,0.0,0.0,0.0,-1.7394,-1.9433,-2.1031,-2.1479,-2.1546,-2.166,-2.1896,-2.0967,-1.9922,-1.8482,0.0,0.0,0.0,0.0,0.0,0.0,0.0,0.0,0.0,0.0,0.0,0.0,0.0,0.0,0.0,0.0,0.0,0.0,0.0,0.0,0.0,0.0,0.0,0.0,0.0,0.0,0.0,0.0,0.0,0.0,0.0,0.0,0.0,0.0,0.0,0.0,0.0,0.0,0.0,0.0,0.0,0.0,0.0,0.0,0.0,0.0,0.0,0.0,0.0,0.0,0.0,0.0,0.0,0.0,0.0,0.0,0.0,0.0,0.0,0.0,0.0,0.0,0.0,0.0,0.0,0.0,0.0,0.0,0.0,0.0,0.0,0.0,0.0,0.0,0.0,0.0,0.0,0.0,0.0,0.0,0.0,0.0,0.0,0.0,0.0,0.0,0.0,0.0,0.0,0.0,0.0,0.0,0.0,0.0,0.0,0.0,0.0,0.0,0.0,0.0,0.0,0.0,-1.7717,-1.9763,-2.1353,-2.204,-2.2116,-2.2108,-2.2108,-2.141,-2.0357,-1.8816,0.0,0.0,0.0,0.0,0.0,0.0,0.0,0.0,0.0,0.0,0.0,0.0,0.0,0.0,0.0,0.0,0.0,0.0,0.0,0.0,0.0,0.0,0.0,0.0,0.0,0.0,0.0,0.0,0.0,0.0,0.0,0.0,0.0,0.0,0.0,0.0,0.0,0.0,0.0,0.0,0.0,0.0,0.0,0.0,0.0,0.0,0.0,0.0,0.0,0.0,0.0,0.0,0.0,0.0,0.0,0.0,0.0,0.0,0.0,0.0,-1.3649,0.0,0.0,0.0,0.0,0.0,0.0,0.0,0.0,0.0,0.0,0.0,0.0,0.0,0.0,0.0,0.0,0.0,0.0,0.0,0.0,0.0,0.0,0.0,0.0,0.0,0.0,0.0,0.0,0.0,0.0,0.0,0.0,0.0,0.0,0.0,0.0,0.0,0.0,0.0,0.0,0.0,-1.8033,-2.0112,-2.1572,-2.204,-2.2116,-2.223,-2.2456,-2.1627,-2.0568,-1.9455,-1.8092,0.0,0.0,0.0,0.0,0.0,0.0,0.0,0.0,0.0,0.0,0.0,0.0,0.0,0.0,0.0,0.0,0.0,0.0,0.0,0.0,0.0,0.0,0.0,0.0,0.0,0.0,0.0,0.0,0.0,0.0,0.0,0.0,0.0,0.0,0.0,0.0,0.0,0.0,0.0,0.0,0.0,0.0,0.0,0.0,0.0,0.0,0.0,0.0,0.0,0.0,0.0,0.0,0.0,0.0,0.0,0.0,0.0,0.0,0.0,0.0,-1.5084,0.0,0.0,0.0,0.0,0.0,0.0,0.0,0.0,0.0,0.0,0.0,0.0,0.0,0.0,0.0,0.0,0.0,0.0,0.0,0.0,0.0,0.0,0.0,0.0,0.0,0.0,0.0,0.0,0.0,0.0,0.0,0.0,0.0,0.0,0.0,0.0,0.0,0.0,0.0,0.0,-1.8407,-2.0861,-2.2538,-2.2484,-2.2562,-2.2562,-2.2796,-2.2675,-2.211,-2.1039,-2.0323,0.0,0.0,0.0,0.0,0.0,0.0,0.0,0.0,0.0,0.0,0.0,0.0,0.0,0.0,0.0,0.0,0.0,0.0,0.0,0.0,0.0,0.0,0.0,0.0,0.0,0.0,0.0,0.0,0.0,0.0,0.0,0.0,0.0,0.0,0.0,0.0,0.0,0.0,0.0,0.0,0.0,0.0,0.0,0.0,0.0,0.0,0.0,0.0,0.0,0.0,0.0,0.0,0.0,-1.6081,-1.615,-1.5934,-1.549,-1.6388,-1.8074,-1.7058,-1.6636,-1.6706,-1.5896,0.0,0.0,0.0,0.0,0.0,0.0,0.0,0.0,0.0,0.0,0.0,0.0,0.0,0.0,0.0,0.0,0.0,0.0,0.0,0.0,0.0,0.0,0.0,0.0,-2.4389,-2.4735,0.0,0.0,0.0,0.0,0.0,0.0,0.0,0.0,0.0,0.0,0.0,0.0,-1.9415,-2.2046,-2.3823,-2.359,-2.356,-2.356,-2.356,-2.4141,-2.3991,-2.2984,-2.2691,-2.1878,0.0,0.0,0.0,0.0,0.0,0.0,0.0,0.0,0.0,0.0,0.0,0.0,0.0,0.0,0.0,0.0,0.0,0.0,0.0,0.0,0.0,0.0,0.0,0.0,0.0,0.0,0.0,0.0,0.0,0.0,0.0,0.0,-1.1564,-1.1538,0.0,0.0,0.0,0.0,0.0,0.0,0.0,0.0,0.0,0.0,0.0,0.0,0.0,-1.6692,-1.7458,-1.7953,-1.803,-1.7631,-1.8405,-1.8206,-1.7194,-1.9332,-2.0477,-2.068,-2.0136,0.0,-1.7545,-1.7187,0.0,0.0,0.0,0.0,0.0,0.0,0.0,0.0,0.0,0.0,0.0,0.0,0.0,0.0,0.0,0.0,0.0,0.0,0.0,0.0,0.0,0.0,-2.6475,-2.6053,-2.6547,-2.6754,0.0,-2.3535,-2.1191,-1.9261,-1.8279,0.0,0.0,0.0,0.0,0.0,0.0,0.0,-2.244,-2.4079,-2.5294,-2.5964,-2.6054,-2.6054,-2.6054,-2.5493,-2.4963,-2.4555,-2.3483,-2.2723,-2.2094,-2.0411,0.0,0.0,0.0,0.0,0.0,0.0,0.0,0.0,0.0,0.0,0.0,0.0,0.0,0.0,0.0,0.0,0.0,0.0,0.0,0.0,0.0,0.0,0.0,0.0,0.0,0.0,0.0,0.0,0.0,-1.0508,-1.1048,-1.1521,-1.1978,-1.2593,0.0,0.0,0.0,0.0,0.0,0.0,0.0,0.0,0.0,-1.7631,-1.7721,-1.8174,-1.8934,-1.8998,-1.8886,-1.871,-1.9106,-1.9391,-1.9578,-2.0715,-2.1167,-2.1218,-2.0966,-2.0505,-1.9688,-1.8753,-1.8145,-1.7719,0.0,0.0,0.0,0.0,-1.6953,-1.7575,-1.8381,-1.8683,0.0,-2.0576,0.0,0.0,0.0,0.0,0.0,0.0,0.0,0.0,0.0,0.0,-2.7492,-2.8161,-2.854,-2.8645,-2.8544,-2.7357,-2.5422,0.0,-2.1938,-2.1286,-1.9525,0.0,0.0,0.0,0.0,-2.28,-2.3542,-2.5395,-2.6597,-2.6534,-2.6481,-2.6481,-2.6481,-2.6605,-2.6408,-2.598,-2.5596,-2.5189,-2.4686,-2.3343,-2.2382,0.0,0.0,0.0,0.0,0.0,0.0,0.0,0.0,0.0,0.0,0.0,0.0,0.0,0.0,0.0,0.0,0.0,0.0,0.0,0.0,0.0,0.0,0.0,0.0,0.0,0.0,0.0,0.0,-1.0731,-1.1128,-1.1838,-1.2524,-1.3243,0.0,0.0,0.0,0.0,0.0,0.0,-1.6875,-1.7413,-1.8156,-1.9022,-1.908,-1.939,-2.0208,-1.993,-1.9736,-1.9754,-2.0127,-2.0789,-2.1609,-2.1586,-2.1474,-2.1447,-2.1439,-2.1526,-2.1428,-2.0249,-1.9626,-1.9361,-1.8619,-1.8342,-1.8318,-1.8326,-1.8619,-1.9248,-2.0424,-2.1033,-2.1477,-2.3099,0.0,-2.3533,-2.3521,0.0,0.0,0.0,0.0,-2.5403,-2.663,-2.745,-2.8331,-2.9558,-2.9884,-3.0081,-3.0204,-2.9944,-2.8826,0.0,-2.5482,-2.4702,-2.2309,0.0,0.0,0.0,0.0,-2.4634,-2.5036,-2.6832,-2.7868,-2.7425,-2.7365,-2.7318,-2.7204,-2.7676,-2.7769,-2.7221,-2.7385,-2.7233,-2.6645,-2.5683,-2.4735,-2.3951,0.0,0.0,0.0,0.0,0.0,0.0,0.0,0.0,0.0,0.0,0.0,0.0,0.0,0.0,0.0,0.0,0.0,0.0,0.0,0.0,0.0,0.0,0.0,0.0,0.0,0.0,0.0,0.0,0.0,-1.2314,-1.4359,0.0,0.0,0.0,0.0,-1.6915,-1.7223,-1.7838,-1.9007,-1.8692,-1.8971,-1.9866,-1.9972,-2.0419,-2.1033,-2.1084,-2.1112,-2.1134,-2.2328,-2.2883,-2.2906,-2.2503,-2.2366,-2.2382,-2.2124,-2.2222,-2.2492,-2.1424,-2.0635,-2.0112,-2.0054,-1.9427,-1.8755,-1.968,-2.0037,-2.0356,-2.2341,-2.3014,-2.3547,-2.6437,-2.7112,-2.6717,-2.629,-2.5521,0.0,0.0,-2.6972,-2.7736,-2.8434,-2.9338,-2.9929,-3.0104,-3.0466,-3.0795,-3.0795,-3.0423,-2.9785,0.0,-2.7661,-2.6708,-2.6151,0.0,-2.5145,-2.5547,-2.6063,-2.6898,-2.8161,-2.8879,-2.9374,-2.9733,-2.9774,-2.9599,-2.9168,-2.9029,-2.8661,-2.7889,-2.7883,-2.7882,-2.7568,-2.6436,-2.5838,-2.5775,-2.353,0.0,0.0,0.0,0.0,0.0,0.0,0.0,0.0,0.0,0.0,0.0,0.0,0.0,0.0,0.0,0.0,0.0,0.0,0.0,0.0,0.0,0.0,0.0,0.0,0.0,0.0,0.0,0.0,-1.4192,-1.5454,0.0,-1.658,-1.7042,-1.7628,-1.8149,-1.8195,-1.8521,-1.9189,-1.9886,-2.0312,-2.0666,-2.149,-2.21,-2.2352,-2.2348,-2.2305,-2.2335,-2.2738,-2.2883,-2.2648,-2.2511,-2.2374,-2.2245,-2.2116,-2.2343,-2.2554,-2.2193,-2.1923,-2.1679,-2.1439,-2.1154,-2.0853,-2.1209,-2.1966,-2.2811,-2.3593,-2.4473,-2.553,-2.7151,-2.7823,-2.8002,-2.8022,-2.7827,-2.765,-2.8294,-2.8834,-2.9324,-2.9583,-3.0104,-3.0583,-3.0777,-3.0906,-3.1127,-3.1333,-3.1192,-3.0965,-3.0629,-2.9514,-2.8349,-2.7564,-2.745,-2.7503,-2.7355,-2.7989,-2.8771,-2.9463,-2.9866,-3.0109,-3.0505,-3.0412,-3.0109,-2.9853,-2.9489,-2.8898,-2.8041,-2.7734,-2.7434,-2.7238,-2.6515,-2.5883,-2.5449,-2.4313,-2.2788,0.0,0.0,0.0,0.0,0.0,0.0,0.0,0.0,0.0,0.0,0.0,0.0,0.0,0.0,0.0,0.0,0.0,0.0,0.0,0.0,0.0,0.0,0.0,0.0,0.0,0.0,-1.5624,-1.5919,-1.6941,-1.7811,-1.8002,-1.8389,-1.8854,-1.9269,-1.9197,-1.942,-2.0222,-2.1209,-2.1785,-2.1785,-2.2519,-2.3014,-2.3014,-2.3014,-2.303,-2.2949,-2.2949,-2.2835,-2.2601,-2.2601,-2.2585,-2.2456,-2.2456,-2.2562,-2.2683,-2.2683,-2.2654,-2.2641,-2.241,-2.2243,-2.2148,-2.2275,-2.3135,-2.4321,-2.5191,-2.6486,-2.7728,-2.8152,-2.8656,-2.9036,-2.9337,-2.9337,-2.9468,-2.996,-3.0226,-3.0451,-3.0552,-3.0788,-3.1127,-3.1322,-3.1322,-3.1424,-3.1527,-3.1618,-3.1618,-3.1618,-3.0723,-2.9856,-2.9053,-2.9084,-2.9093,-2.8774,-2.9264,-2.9838,-3.0306,-3.0419,-3.0609,-3.0827,-3.062,-3.0356,-2.9934,-2.9554,-2.8946,-2.8072,-2.7526,-2.7291,-2.7241,-2.6541,-2.5901,-2.5426,-2.4639,-2.3589,-2.2291,0.0,0.0,0.0,0.0,0.0,0.0,0.0,0.0,0.0,0.0,0.0,0.0,0.0,0.0,0.0,0.0,0.0,0.0,0.0,0.0,0.0,0.0,0.0,-1.5345,-1.6579,-1.7473,-1.7322,-1.8981,-1.9765,-1.845,-1.9291,-2.0003,-2.0248,-2.0226,-2.081,-2.2017,-2.2644,-2.3014,-2.3014,-2.3014,-2.3014,-2.3014,-2.3014,-2.3014,-2.3014,-2.3014,-2.3014,-2.3014,-2.3014,-2.3014,-2.3014,-2.3014,-2.3014,-2.3014,-2.3014,-2.3014,-2.3014,-2.3014,-2.2807,-2.2545,-2.2887,-2.3554,-2.4689,-2.7321,-2.9006,-3.0026,-2.9764,-2.9709,-2.9821,-3.0035,-3.0136,-3.0344,-3.0998,-3.123,-3.123,-3.1527,-3.1618,-3.1618,-3.1618,-3.1618,-3.1618,-3.1618,-3.1618,-3.1629,-3.1629,-3.1424,-3.1079,-3.0615,-3.0338,-3.0147,-3.0147,-3.0147,0.0,-3.0774,-3.0838,-3.0838,-3.0827,-3.0838,-3.0455,-2.9508,-2.9203,-2.8817,-2.8092,-2.7569,-2.7434,-2.7709,-2.6574,-2.5917,-2.5917,-2.4497,-2.4191,-2.5084,0.0,0.0,0.0,0.0,0.0,0.0,0.0,0.0,0.0,0.0,0.0,0.0,0.0,0.0,0.0,0.0,0.0,0.0,0.0,0.0,0.0,0.0,-1.5922,-1.6564,-1.7659,-1.8571,-1.9146,-1.9939,-2.047,-2.0373,-2.0659,-2.0896,-2.0933,-2.0896,-2.1031,-2.1481,-2.2387,-2.3014,-2.3014,-2.3014,-2.3014,-2.3014,-2.3014,-2.3014,-2.3014,-2.3014,-2.3014,-2.3014,-2.3014,-2.3014,-2.3014,-2.3014,-2.3014,-2.3014,-2.3014,-2.3014,-2.3014,-2.3014,-2.295,-2.2879,-2.2982,-2.4258,-2.6235,-2.8638,-2.9869,-3.0266,-3.0244,-3.0305,-3.0533,-3.0831,-3.0933,-3.0955,-3.1392,-3.1527,-3.1527,-3.1618,-3.1618,-3.1618,-3.1618,-3.1924,-3.2218,-3.2218,-3.2533,-3.2745,-3.2745,-3.2745,-3.2398,-3.1444,-3.1229,-3.1229,-3.1229,-3.1229,0.0,-3.1414,-3.123,-3.1127,-3.1322,-3.123,-3.0982,-3.0556,-3.0079,-2.9319,-2.8126,-2.7564,-2.7228,-2.6933,-2.6552,-2.6431,-2.6431,-2.5011,-2.459,0.0,0.0,0.0,0.0,0.0,0.0,0.0,0.0,0.0,0.0,0.0,0.0,0.0,0.0,0.0,0.0,0.0,0.0,0.0,0.0,0.0,0.0,-1.5846,-1.6717,-1.7874,-1.8606,-1.9283,-1.9974,-2.0475,-2.0976,-2.113,-2.1252,-2.1373,-2.1949,-2.1919,-2.1896,-2.1986,-2.2628,-2.4165,-2.652,-2.614,-2.562,-2.4855,-2.5043,-2.4847,-2.4161,-2.4016,-2.3552,-2.3014,-2.3014,-2.3014,0.0,-2.3014,-2.3014,-2.3006,-2.2855,-2.2879,0.0,0.0,0.0,0.0,0.0,-2.5626,-2.7463,-2.9428,-3.0297,-3.0391,-3.0703,-3.0817,-3.1034,-3.1333,-3.1322,-3.1424,-3.1527,-3.1618,-3.1618,-3.1618,-3.1823,-3.2015,-3.2308,-3.2801,-3.3289,-3.3662,-3.3697,-3.3819,-3.4091,-3.3906,0.0,-3.2912,-3.2521,-3.2229,-3.1924,-3.1924,-3.1823,-3.1618,-3.1424,-3.1424,-3.1618,-3.1424,-3.1229,-3.0941,-3.0286,0.0,0.0,0.0,-2.7108,-2.6649,-2.6627,0.0,0.0,0.0,0.0,0.0,0.0,0.0,0.0,-2.833,-2.8597,0.0,0.0,0.0,0.0,0.0,0.0,0.0,0.0,0.0,0.0,0.0,0.0,0.0,0.0,0.0,0.0,-1.6592,-1.8032,-1.9227,-1.9339,-1.9505,-2.024,-2.0933,-2.1252,-2.1193,-2.1351,-2.1858,-2.2925,-2.3465,-2.3819,-2.3754,0.0,0.0,0.0,0.0,-2.9282,-2.7482,-2.7997,-2.7493,-2.6071,-2.5652,-2.4642,-2.3231,-2.3231,-2.3119,-2.3014,-2.2974,-2.3063,-2.3039,-2.2727,-2.2807,-2.3127,-2.3231,-2.3344,-2.3672,-2.5945,-2.7463,-2.8552,-2.9963,0.0,0.0,-3.1023,-3.123,-3.1322,-3.1527,-3.1618,-3.1618,-3.1618,-3.1618,-3.1618,-3.1721,-3.2117,-3.2711,-3.3499,-3.4178,-3.4751,-3.5485,-3.5077,-3.4764,-3.5399,-3.4992,-3.4498,-3.4498,-3.3836,-3.3135,-3.2622,-3.242,-3.2218,-3.1721,-3.1618,-3.1618,-3.1618,0.0,0.0,-3.1018,-3.0111,-2.9543,-2.9489,-2.8222,-2.7315,-2.6966,-2.6998,-2.7009,-2.6955,-2.7348,-2.841,-3.008,-3.0802,-3.1171,-3.1228,-3.0229,-3.0486,0.0,0.0,0.0,0.0,0.0,0.0,0.0,0.0,0.0,0.0,0.0,0.0,0.0,0.0,0.0,-1.7541,-1.8647,-1.9461,-1.9722,-1.9534,-1.9764,-2.0816,-2.1425,-2.1577,-2.1256,-2.2045,-2.2749,-2.2999,-2.6541,-2.8598,-2.8678,-2.7303,-2.6974,-2.8151,-3.0143,-3.035,-2.8476,-2.8633,-2.8105,-2.7032,0.0,0.0,-2.4744,-2.4744,-2.4103,-2.2998,-2.3148,-2.3239,-2.3239,-2.3165,-2.3353,-2.3801,-2.4539,-2.5084,-2.5753,-2.7795,-2.8764,-2.9081,-3.0287,-3.0817,-3.1023,-3.1127,-3.1322,-3.1527,-3.1618,-3.1618,0.0,-3.1618,-3.1618,-3.1721,-3.2117,-3.2812,-3.3499,-3.4091,-3.5138,-3.5986,-3.6068,-3.6024,-3.5919,-3.6011,-3.5565,-3.5171,-3.5171,-3.4591,-3.3906,-3.3135,-3.2723,-3.2308,-3.2218,-3.1823,-3.1618,-3.1618,-3.1618,-3.1586,-3.1487,-3.0614,-2.9904,-2.951,-2.8844,-2.8615,-2.8921,-2.9314,-2.9336,-2.8943,-2.9019,-2.9244,-2.9609,-3.1355,-3.2735,-3.3715,-3.3149,-3.2788,0.0,0.0,0.0,0.0,0.0,0.0,0.0,0.0,0.0,0.0,0.0,-1.5578,-1.6486,0.0,-1.7879,-1.9114,-2.0282,-2.102,-2.1053,-2.0922,-2.0877,-2.1084,-2.119,-2.2025,-2.3703,-2.4412,-2.4735,-2.47,-2.8272,-3.0377,-3.0452,-2.9489,-2.9172,-2.949,-3.068,-3.0968,-3.0203,-3.0108,-2.9499,-2.8396,-2.8396,-2.7649,-2.6245,-2.563,-2.4898,-2.4251,-2.4382,-2.3994,-2.3427,-2.372,-2.4333,-2.5277,-2.6308,-2.6816,-2.7149,-2.8552,-2.9418,-3.0068,-3.0713,-3.1127,-3.123,-3.1322,-3.1527,-3.1618,-3.1618,-3.1618,-3.1629,-3.1924,-3.2015,-3.2218,-3.3201,-3.3895,-3.4666,-3.5618,-3.6362,-3.6909,-3.7273,-3.683,-3.6426,-3.6806,-3.6292,-3.5833,-3.5833,-3.5556,-3.4996,-3.3884,-3.3742,-3.3697,-3.3201,-3.3001,-3.2901,-3.3201,-3.2711,-3.2409,-3.2409,-3.1252,-3.0351,-2.9871,-2.962,-2.9873,-3.0583,-3.083,-3.1213,-3.1576,-3.1831,-3.2053,-3.2124,-3.3428,-3.4295,-3.4997,-3.5021,-3.5027,0.0,0.0,0.0,0.0,0.0,0.0,0.0,0.0,-1.4817,-1.6019,-1.6309,-1.6643,-1.7633,-1.8152,-1.8858,-2.0063,-2.1166,-2.195,-2.2268,-2.2443,-2.2269,-2.1797,-2.1604,-2.2828,-2.6037,-2.6599,-2.6871,-2.7333,-2.9439,-3.0812,-3.0878,-3.0902,-3.1095,-3.1463,-3.1336,-3.1302,-3.1629,-3.1424,-3.0785,-2.9911,-2.9818,-2.9025,-2.7506,-2.6471,-2.5872,-2.5554,-2.5587,-2.5153,-2.4421,-2.4765,-2.5575,-2.6911,-2.8096,-2.8542,-2.8436,-2.9292,-3.0162,-3.1034,-3.123,-3.1333,-3.1333,-3.1527,-3.1618,-3.1618,-3.1618,-3.1618,-3.1823,-3.2319,-3.2521,-3.2812,-3.419,-3.4969,-3.5738,-3.723,-3.7637,-3.7843,-3.8263,-3.7491,-3.6764,-3.7196,-3.6721,-3.6273,-3.6273,-3.6366,-3.6061,-3.4836,-3.5022,-3.5041,-3.4557,-3.4374,-3.4471,-3.486,-3.4068,-3.3441,-3.3063,-3.1905,-3.1031,-3.0656,-3.0916,-3.1422,-3.2367,-3.2462,-3.3019,-3.401,-3.4438,-3.4752,-3.4915,-3.5548,-3.5771,-3.5866,-3.6539,-3.6926,-0.856,-0.8559,-0.8848,-0.9452,-1.0174,-1.1315,0.0,0.0,-1.5793,-1.7592,-1.7989,-1.8207,-1.8927,-1.9191,-1.9535,-2.0508,-2.1041,-2.1612,-2.2694,-2.3116,-2.3628,-2.4395,-2.4136,-2.433,-2.5541,-2.6844,-2.83,-3.0185,-3.045,-3.0705,-3.1029,-3.1152,-3.1202,-3.1284,-3.1489,-3.156,-3.1618,-3.1516,-3.1516,-3.1403,-3.0969,-3.0024,-2.8654,-2.8005,-2.7084,-2.5844,-2.5987,-2.6531,-2.7149,-2.7363,-2.7678,-2.8164,-2.9608,-3.0172,-3.0172,-3.0991,-3.1414,-3.1516,-3.1516,-3.1527,-3.1527,-3.1629,-3.1618,-3.1618,-3.1618,-3.1913,-3.2319,-3.2409,-3.2734,-3.3434,-3.4787,-3.563,-3.6471,-3.7808,-3.8612,-3.8959,-3.8532,-3.7863,-3.728,-3.6809,-3.6184,-3.5751,-3.5751,-3.6183,-3.6476,-3.607,-3.5621,-3.5544,-3.6018,-3.5593,-3.5294,-3.5101,-3.5005,-3.4233,-3.2753,-3.2368,-3.2323,-3.2265,-3.3291,-3.4161,-3.4703,-3.4919,-3.511,-3.5301,-3.5362,-3.5399,-3.5387,-3.6407,-3.6926,-3.7217,-3.816,-3.816,-0.9239,-0.9504,0.0,0.0,-1.195,-1.3256,-1.5217,-1.6259,-1.7149,-1.8323,-1.8584,-1.8942,-1.9894,-1.9942,-2.0409,0.0,-2.2552,-2.3213,-2.4285,-2.4933,-2.5415,-2.5791,-2.624,-2.6514,-2.6636,-2.74,-2.863,-3.0316,-3.0756,-3.0955,-3.117,-3.1343,-3.1424,-3.1424,-3.1516,-3.1924,-3.251,-3.1638,-3.1494,-3.2072,-3.1009,-3.0186,-2.9547,-2.8577,-2.7856,-2.7252,-2.6884,-2.7352,-2.833,-2.8218,-2.8583,-2.9125,-2.9766,-3.0289,-3.0729,-3.1418,-3.1618,-3.1618,-3.1618,-3.1618,-3.1618,-3.1618,-3.1823,-3.2117,-3.2117,-3.2432,-3.2967,-3.3348,-3.3655,-3.4162,-3.5508,-3.6161,-3.661,-3.755,-3.7731,-3.7663,-3.7419,-3.689,-3.6402,-3.6144,-3.5886,-3.571,-3.571,-3.5927,-3.6127,-3.6439,-3.6515,-3.6574,-3.6623,-3.6734,-3.6646,-3.6068,-3.6068,-3.5411,-3.3967,-3.3859,-3.3847,-3.4005,-3.4474,-3.5252,-3.6138,-3.6339,-3.6726,-3.7468,-3.7481,-3.7573,-3.7678,-3.816,-3.8445,-3.8549,-3.8922,-3.8922,-1.0153,0.0,0.0,-1.2186,-1.353,-1.4855,-1.6413,-1.7323,-1.8138,-1.8789,-1.8847,-1.9162,-2.0367,-2.0389,-2.0846,-2.295,-2.3582,-2.4428,-2.5845,-2.6507,-2.7009,-2.7454,-2.8125,-2.8451,-2.8218,-2.8349,-2.8962,-3.0115,-3.1034,-3.1578,-3.171,-3.2218,-3.251,-3.251,-3.2499,-3.2821,-3.3464,-3.2419,-3.1973,-3.231,-3.0987,-3.0292,-2.9991,-2.8903,-2.8466,-2.8582,-2.7963,-2.8244,-2.9194,-2.8904,-2.9182,-2.9812,-2.9812,-3.0213,-3.0756,-3.1105,-3.1236,-3.1258,-3.1378,-3.1422,-3.1444,-3.1779,-3.2117,-3.2409,-3.2622,-3.3124,-3.3848,-3.4426,-3.4682,-3.5127,-3.6348,-3.6564,-3.6618,-3.7344,-3.7189,-3.6809,-3.6632,-3.6266,-3.5913,-3.575,-3.571,-3.571,-3.571,-3.571,-3.5859,-3.6293,-3.6807,-3.7148,-3.7289,-3.774,-3.7808,-3.7322,-3.6938,-3.6282,-3.5439,-3.5343,-3.5426,-3.5581,-3.5949,-3.6527,-3.7494,-3.7586,-3.8056,-3.8997,-3.9011,-3.9114,-3.9305,-3.9305,-3.9305,-3.9305,-3.9305,-3.9305,0.0,0.0,-1.0997,-1.2785,-1.3952,-1.519,-1.6866,-1.7795,-1.8474,-1.9125,-1.9008,-1.9089,-2.0068,-2.0241,-2.0771,-2.2622,-2.3419,-2.4753,-2.7051,-2.7458,-2.8097,-2.9723,-2.9487,-2.9413,0.0,-2.9821,-2.9923,-3.0407,-3.1483,-3.2389,-3.3078,-3.4091,-3.4678,-3.4678,-3.4921,-3.475,-3.4147,-3.4147,-3.341,-3.1864,-3.1192,-3.0413,-2.9489,-2.8997,-2.903,-2.9456,-2.8986,-2.9325,-3.0079,-2.9622,-2.9709,-3.0133,-3.0133,-3.0231,-3.0231,-3.0253,-3.0253,-3.0319,-3.0766,-3.0919,-3.1096,-3.2062,-3.2409,-3.2521,-3.3035,-3.4115,-3.5174,-3.5162,-3.5625,-3.6315,-3.7048,-3.688,-3.6618,-3.7344,-3.7514,-3.7338,-3.6727,-3.6592,-3.6402,-3.5818,-3.571,-3.571,-3.571,-3.571,-3.5723,-3.5737,-3.6266,-3.6996,-3.8174,-3.8497,-3.8679,-3.8805,-3.7599,-3.6658,-3.6671,-3.6845,-3.6832,-3.6658,-3.7965,-3.8805,-3.8805,-3.91,-3.9203,-3.9305,-3.9305,-3.9305,-3.9305,-3.9305,-3.9305,-3.9305,-3.9305,-3.9305,0.0,0.0,-1.2591,-1.3912,-1.5196,-1.6487,-1.7703,-1.818,-1.8364,-1.8584,-1.854,-1.8892,-2.0241,-2.0703,-2.1836,-2.4553,-2.5618,-2.6714,-2.8638,-2.9096,-2.939,-2.9973,-2.986,0.0,0.0,0.0,0.0,-3.1757,-3.2711,-3.3622,-3.4264,-3.4234,-3.4234,-3.4234,-3.4074,-3.4169,-3.4641,-3.371,-3.3259,-3.3449,-3.1384,-3.0251,-2.9975,-2.9194,-2.8844,-2.9008,-2.9172,-2.9237,-2.9281,-2.9773,-2.9871,-2.9729,-2.9729,-2.9729,-2.9685,-2.9368,-2.9248,-2.9401,-3.0515,-3.1097,-3.1539,-3.1794,-3.2347,-3.3024,-3.379,-3.4811,-3.5879,-3.6437,-3.6755,-3.6891,-3.681,-3.6703,-3.6461,-3.6333,-3.6632,-3.6849,-3.6646,-3.6605,-3.6537,-3.6347,-3.5981,-3.571,-3.571,-3.571,-3.5995,-3.6795,-3.7094,-3.7514,-3.8315,-3.8762,-3.9024,-3.8908,-3.8432,-3.8069,-3.7717,-3.7913,-3.8018,-3.7926,-3.8549,-3.8997,-3.9203,-3.9203,-3.9305,-3.9305,-3.9305,-3.9305,-3.9305,-3.9305,-3.9305,-3.9305,-3.9305,-3.9305,-1.22,-1.2793,-1.3758,-1.5355,-1.6377,-1.715,-1.8275,-1.8291,-1.816,-1.8277,-1.8409,-1.885,-2.0287,-2.0851,-2.2127,-2.5238,-2.6134,-2.7166,-2.9116,-2.9536,-2.9808,-3.0463,-3.044,-3.0885,0.0,0.0,0.0,-3.2744,-3.3669,-3.4295,-3.4673,-3.4718,-3.4706,-3.4706,-3.4554,-3.4729,-3.5185,-3.4149,-3.3696,-3.3781,-3.1644,-3.0519,-3.017,-2.9555,-2.9106,-2.8779,-2.9085,-2.9041,-2.8894,-2.9434,-2.95,-2.9226,-2.9226,-2.9226,-2.9183,-2.8866,-2.9151,-2.9686,-3.0612,-3.114,-3.16,-3.2256,-3.2949,-3.3632,-3.4676,-3.5668,-3.6539,-3.739,-3.7679,-3.7571,-3.702,-3.6768,-3.6497,-3.6117,-3.632,-3.6659,-3.689,-3.6931,-3.6931,-3.6931,-3.6442,-3.6035,-3.6035,-3.6035,-3.6293,-3.708,-3.7568,-3.807,-3.8654,-3.8973,-3.9114,-3.9011,-3.8997,-3.8819,-3.8472,-3.8679,-3.8769,-3.8666,-3.8935,-3.91,-3.9305,-3.9305,-3.9305,-3.9305,-3.9305,-3.9305,-3.9305,-3.9305,-3.9305,-3.9305,-3.9305,-3.9305,-1.4222,-1.4276,-1.4213,-1.6892,-1.7335,-1.7422,-1.8535,-1.8247,-1.7874,-1.8167,-1.8388,-1.887,0.0,0.0,-2.1768,-2.4718,-2.5409,-2.6372,-2.8835,-2.9103,-2.9703,0.0,0.0,0.0,0.0,0.0,0.0,-3.3385,0.0,-3.4702,-3.4675,-3.5543,-3.6057,-3.6057,-3.6318,-3.6141,-3.5587,-3.5548,-3.4725,-3.3066,-3.2103,-3.1223,-3.0351,-3.026,-2.9726,-2.8932,-2.885,-2.885,-2.885,-2.885,-2.8757,-2.8757,-2.8757,-2.885,-2.885,-2.885,-2.9725,-3.1027,-3.1145,-3.1072,-3.1445,-3.3382,-3.3993,-3.4288,-3.5593,-3.6564,-3.7335,-3.7939,-3.8287,-3.8274,-3.765,-3.7066,-3.6632,-3.6605,-3.6646,-3.6849,-3.7446,-3.7582,-3.7568,-3.7541,-3.6999,-3.6564,-3.6592,-3.6605,-3.6619,-3.6687,-3.7677,-3.8627,-3.9183,-3.9087,-3.9011,-3.9292,-3.91,-3.8908,-3.8908,-3.9114,-3.9203,-3.8908,-3.91,-3.9305,-3.9305,-3.9305,-3.9305,-3.9305,-3.9305,-3.9305,-3.9305,-3.9305,-3.9305,-3.9305,-3.9305,-3.9305,-1.362,-1.4533,-1.5644,-1.6847,-1.7645,-1.796,-1.8018,-1.7743,-1.7406,-1.7252,-1.7896,-1.8726,0.0,0.0,0.0,-2.5395,-2.6871,0.0,-2.9526,-3.0483,0.0,-3.1564,0.0,-3.3238,-3.4933,-3.4719,0.0,0.0,-3.5195,-3.5318,-3.5732,-3.5544,-3.5495,-3.5495,-3.5344,-3.5125,-3.498,-3.4967,-3.4721,-3.4037,-3.3079,-3.255,-3.2277,-3.0878,-3.0429,-3.0789,-2.9371,-2.9198,-2.9818,-2.9106,-2.8757,-2.8757,-2.8757,-2.9024,-2.9301,-2.9301,-3.0063,-3.1215,-3.2487,-3.2795,-3.2823,-3.3935,-3.4591,-3.5083,-3.6109,-3.7129,-3.7924,-3.7698,-3.802,-3.8179,-3.7107,-3.7066,-3.7175,-3.6714,-3.7297,-3.7989,-3.8152,-3.8193,-3.807,-3.7623,-3.6673,-3.6076,-3.6524,-3.6605,-3.6904,-3.7813,-3.822,-3.8477,-3.8627,-3.8932,-3.9203,-3.9305,-3.9203,-3.9114,-3.8908,-3.9114,-3.9203,-3.8908,-3.91,-3.9305,-3.9305,-3.9305,-3.9305,-3.9305,-3.9305,-3.9305,-3.9305,-3.9305,-3.9305,-3.9305,-3.9305,-3.9305,-1.4353,-1.5533,-1.689,-1.7791,-1.8138,-1.8218,-1.7889,-1.7732,-1.7568,-1.7325,-1.8264,0.0,0.0,0.0,0.0,0.0,0.0,0.0,-2.9989,-3.0955,-3.1779,0.0,-3.3586,0.0,-3.5687,-3.5361,-3.5185,0.0,-3.5469,-3.5312,-3.5351,-3.5064,-3.4907,-3.4907,-3.4748,-3.466,-3.466,-3.466,-3.4577,-3.4397,-3.3869,-3.3433,-3.298,-3.1928,-3.1488,-3.1577,0.0,-3.0079,-3.017,-2.9646,-2.9198,-2.8757,-2.8757,-2.9128,-2.9485,-2.9485,-3.0261,-3.1472,-3.2834,-3.3635,-3.4244,-3.5313,-3.5762,-3.6176,-3.7035,-3.7672,-3.8249,-3.8229,-3.8355,-3.826,-3.7582,-3.746,-3.7514,-3.7419,-3.7921,-3.8491,-3.8749,-3.8803,-3.864,-3.803,-3.7161,-3.6619,-3.6958,-3.7229,-3.7636,-3.8315,-3.864,-3.8803,-3.8803,-3.9102,-3.9305,-3.9305,-3.9305,-3.9203,-3.91,-3.9203,-3.9203,-3.91,-3.9203,-3.9305,-3.9305,-3.9305,-3.9305,-3.9305,-3.9305,-3.9305,-3.9305,-3.9305,-3.9305,-3.9305,-3.9305,-3.9305,-1.5476,-1.6611,-1.7687,-1.8959,-1.8789,-1.8218,-1.7889,-1.8048,-1.8079,-1.7676,0.0,-2.0144,-2.0199,-2.1384,-2.2808,-2.4466,0.0,-2.7389,-3.0195,-3.1124,-3.2409,-3.4569,-3.4812,-3.5264,-3.6131,-3.5609,-3.521,-3.524,-3.5135,-3.4946,-3.4424,-3.4397,-3.4397,-3.4397,-3.4397,-3.4397,-3.4397,-3.4397,-3.4397,-3.4397,-3.4397,-3.3953,-3.3164,-3.3079,-3.2636,-3.1928,-3.1665,0.0,-3.0519,-3.026,-2.9726,-2.8932,-2.885,-2.9128,-2.9485,-2.9658,-3.0617,-3.1988,-3.2869,-3.4164,-3.5571,-3.6685,-3.7075,-3.7206,-3.7806,-3.8,-3.8219,-3.8695,-3.8505,-3.8179,-3.8179,-3.7853,-3.7677,-3.8274,-3.8477,-3.8667,-3.9197,-3.9237,-3.9034,-3.8518,-3.7935,-3.7568,-3.7636,-3.807,-3.845,-3.8532,-3.8966,-3.9305,-3.9305,-3.9305,-3.9305,-3.9305,-3.9305,-3.9305,-3.9305,-3.9305,-3.9305,-3.9305,-3.9305,-3.9305,-3.9305,-3.9305,-3.9305,-3.9305,-3.9305,-3.9305,-3.9305,-3.9305,-3.9305,-3.9305,-3.9305,-3.9305,-1.531,-1.6074,-1.6717,-1.8743,-1.8789,-1.8218,-1.7889,-1.8048,0.0,0.0,0.0,-1.9977,-1.9558,-2.1157,-2.2988,-2.4374,0.0,0.0,0.0,0.0,-3.3801,0.0,0.0,0.0,0.0,0.0,0.0,0.0,0.0,-3.4347,-3.441,-3.4397,-3.4397,-3.4397,-3.4397,-3.4397,-3.4397,-3.4397,-3.4397,-3.4397,-3.4397,-3.4314,-3.4134,-3.3335,-3.3335,-3.3869,-3.2277,0.0,-3.2364,-3.0878,-3.0079,-2.9909,-2.9106,-2.9128,-2.9566,-3.0531,-3.1669,-3.2869,-3.452,-3.5579,-3.6253,-3.6446,-3.6901,-3.7214,-3.6941,-3.7263,-3.7452,-3.6536,-3.6619,-3.6917,-3.6917,-3.7216,-3.7677,-3.8274,-3.879,-3.9169,-3.9278,-3.8925,-3.8545,-3.8437,-3.7935,-3.7691,-3.8179,-3.8355,-3.8586,-3.9074,-3.9237,-3.9305,-3.9305,-3.9305,-3.9305,-3.9305,-3.9305,-3.9305,-3.9305,-3.9305,-3.9305,-3.9305,-3.9305,-3.9305,-3.9305,-3.9305,-3.9305,-3.9305,-3.9305,-3.9305,-3.9305,-3.9305,-3.9305,-3.9305,-3.9305,-3.9305,-1.4471,-1.5755,-1.7041,-1.8108,-1.8375,-1.8174,-1.7677,0.0,0.0,0.0,-1.9165,-2.0416,-2.0048,0.0,0.0,0.0,0.0,0.0,0.0,0.0,0.0,0.0,0.0,0.0,0.0,0.0,0.0,0.0,0.0,-3.4063,-3.4397,-3.4397,-3.4397,-3.4397,-3.4397,-3.4397,-3.4397,-3.4397,-3.4397,-3.4397,-3.4397,-3.4397,-3.4397,-3.3953,-3.3953,-3.4314,-3.3433,0.0,-3.2895,-3.2016,-3.14,-3.0866,-3.0429,-3.0531,-3.0979,-3.1589,-3.2211,-3.3071,-3.4451,-3.5339,-3.5858,-3.5978,-3.6681,-3.7324,-3.7172,-3.7297,-3.7406,-3.6822,-3.6632,-3.6673,-3.6999,-3.7311,-3.7677,-3.8274,-3.8871,-3.9305,-3.9305,-3.8844,-3.8505,-3.8817,-3.8396,-3.8179,-3.8776,-3.8884,-3.8979,-3.9264,-3.9305,-3.9305,-3.9305,-3.9203,-3.9114,-3.9305,-3.9305,-3.9305,-3.9305,-3.9305,-3.9305,-3.9305,-3.9305,-3.9305,-3.9305,-3.9305,-3.9305,-3.9305,-3.9305,-3.9305,-3.9305,-3.9305,-3.9305,-3.9305,-3.9305,-3.9305,-1.404,-1.5761,-1.7674,-1.7816,-1.8115,-1.8116,-1.7391,-1.8111,0.0,0.0,-1.9529,-2.0819,-2.0644,0.0,0.0,0.0,0.0,0.0,0.0,0.0,0.0,0.0,0.0,0.0,0.0,0.0,0.0,0.0,0.0,0.0,-3.4314,-3.4397,-3.4397,-3.4397,-3.4397,-3.4397,-3.4397,-3.4397,-3.4397,-3.4397,-3.4397,-3.4397,-3.4397,-3.4397,-3.4397,-3.4397,-3.4397,0.0,0.0,-3.3066,-3.255,-3.184,-3.1665,-3.1853,-3.2215,-3.2376,-3.2747,-3.3189,-3.4217,-3.4866,-3.5336,-3.5534,-3.636,-3.7311,-3.7175,-3.7134,-3.7134,-3.7134,-3.6782,-3.6551,-3.7175,-3.7433,-3.7704,-3.8437,-3.8952,-3.9305,-3.9305,-3.8939,-3.8735,-3.921,-3.8925,-3.8749,-3.9224,-3.9305,-3.9292,-3.9203,-3.9292,-3.9305,-3.9127,-3.9011,-3.8997,-3.9127,-3.9127,-3.9216,-3.9305,-3.9203,-3.9203,-3.9305,-3.9305,-3.9305,-3.9305,-3.9305,-3.9305,-3.9305,-3.9305,-3.9305,-3.9305,-3.9305,-3.9305,-3.9305,-3.9305,-3.9305,-1.4995,-1.6393,-1.7732,-1.849,-1.8462,-1.8057,-1.7113,0.0,0.0,-1.8151,-1.9362,-2.0644,-2.0566,-2.0673,0.0,0.0,0.0,0.0,0.0,0.0,0.0,0.0,0.0,0.0,0.0,0.0,0.0,0.0,0.0,0.0,-3.4076,-3.4314,-3.4397,-3.4397,-3.4397,-3.4397,-3.4397,-3.4397,-3.4397,-3.4397,-3.4397,-3.4397,-3.4397,-3.4397,-3.4397,-3.4397,-3.4397,0.0,0.0,-3.3335,-3.298,-3.2809,-3.1928,-3.1665,-3.1753,-3.2796,-3.3224,-3.3395,-3.4647,-3.5194,-3.5385,-3.5413,-3.5994,-3.6592,-3.6049,-3.5886,-3.5886,-3.5886,-3.5845,-3.5927,-3.6537,-3.7107,-3.7813,-3.8952,-3.9264,-3.9305,-3.9305,-3.9264,-3.9237,-3.9292,-3.9264,-3.9237,-3.9292,-3.9305,-3.9203,-3.8997,-3.9114,-3.9127,-3.8692,-3.8832,-3.8832,-3.8692,-3.8692,-3.8872,-3.9305,-3.91,-3.9011,-3.9292,-3.9305,-3.9305,-3.9305,-3.9305,-3.9305,-3.9305,-3.9305,-3.9305,-3.9305,-3.9305,-3.9305,-3.9305,-3.9305,-3.9305,-1.4067,-1.5642,-1.743,-1.7735,-1.8065,-1.8003,-1.7138,0.0,-1.8156,-1.7989,-1.8966,-2.001,-2.0489,-2.0566,-2.0752,0.0,0.0,0.0,0.0,0.0,0.0,0.0,0.0,0.0,0.0,0.0,0.0,0.0,0.0,0.0,-3.3654,-3.3894,-3.3966,-3.3966,-3.4468,-3.4551,-3.4243,-3.4551,-3.4634,-3.4397,-3.4314,-3.4314,-3.4397,-3.4397,-3.4397,-3.4397,-3.4397,0.0,0.0,-3.3966,-3.3869,-3.3784,-3.342,-3.325,-3.3335,-3.3771,-3.394,-3.4037,-3.4743,-3.5003,-3.5086,-3.5154,-3.5479,-3.5708,-3.571,-3.571,-3.571,-3.571,-3.571,-3.5845,-3.6626,-3.7481,-3.8533,-3.9823,-3.9706,-3.9455,-3.9954,-3.9706,-3.9305,-3.9305,-3.9305,-3.9305,-3.9305,-3.9203,-3.9011,-3.8908,-3.8935,-3.8782,-3.8602,-3.8485,-3.8485,-3.8602,-3.8602,-3.8692,-3.8859,-3.8769,-3.8845,-3.9011,-3.91,-3.9114,-3.9305,-3.9305,-3.9305,-3.9305,-3.9305,-3.9305,-3.9305,-3.9305,-3.9305,-3.9305,-3.9305,-3.9305,-1.383,-1.5305,-1.6879,-1.7094,-1.7542,-1.7699,0.0,-1.7379,-1.7969,-1.7989,-1.8886,-1.9775,-2.0489,-2.0566,-2.0489,0.0,0.0,0.0,0.0,0.0,0.0,0.0,0.0,0.0,0.0,0.0,0.0,0.0,0.0,0.0,-3.3313,-3.3484,-3.3556,-3.3713,-3.4538,-3.4799,-3.4397,-3.4799,-3.4868,-3.4551,-3.4243,-3.416,-3.423,-3.4314,-3.4397,-3.4314,-3.4397,0.0,0.0,-3.4397,-3.4397,-3.4397,-3.4397,-3.4397,-3.4397,-3.4397,-3.4397,-3.4397,-3.4577,-3.4756,-3.4839,-3.5003,-3.5086,-3.5154,-3.548,-3.5562,-3.5562,-3.5562,-3.5562,-3.575,-3.6847,-3.7529,-3.8394,-4.0279,-4.0009,-3.9573,-4.0404,-4.0114,-3.9631,-3.938,-3.9203,-3.9203,-3.9203,-3.9011,-3.8742,-3.8729,-3.8666,-3.8512,-3.8434,-3.8317,-3.8213,-3.8421,-3.8434,-3.8421,-3.8602,-3.8512,-3.8589,-3.8832,-3.8908,-3.8997,-3.9189,-3.9203,-3.9203,-3.9305,-3.9203,-3.9203,-3.9305,-3.9305,-3.9305,-3.9305,-3.9305,-3.9305,-1.5004,-1.5676,-1.6273,-1.7207,-1.7281,-1.6985,0.0,-1.7551,-1.8464,-1.807,-1.9213,-2.0342,-2.0566,-2.042,-2.0342,-2.0566,0.0,0.0,0.0,0.0,0.0,0.0,0.0,0.0,0.0,0.0,0.0,0.0,0.0,0.0,-3.3081,-3.3081,-3.3326,-3.3713,-3.4538,-3.5032,-3.495,-3.5032,-3.5032,-3.495,-3.4397,-3.3979,-3.3713,-3.423,-3.4314,0.0,0.0,0.0,0.0,-3.4397,-3.4397,-3.4397,-3.4397,-3.4397,-3.4397,-3.4397,-3.4397,-3.4397,-3.4397,-3.4577,-3.4756,-3.4756,-3.4921,-3.5086,-3.5086,-3.5086,-3.5086,-3.5086,-3.5086,-3.5438,-3.704,-3.6729,-3.689,-4.012,-4.0092,-3.9606,-4.0463,-4.0603,-4.036,-3.9469,-3.91,-3.8908,-3.8908,-3.8756,-3.8498,-3.8213,-3.8408,-3.8434,-3.7992,-3.8044,-3.8122,-3.79,-3.79,-3.8083,-3.8602,-3.8395,-3.8304,-3.8602,-3.8742,-3.8908,-3.8908,-3.8908,-3.9011,-3.9292,-3.9011,-3.9011,-3.9305,-3.9305,-3.9305,-3.9305,-3.9305,-3.9305,-1.469,-1.5499,-1.6278,-1.658,-1.655,-1.6316,-1.5826,-1.6001,-1.632,-1.6621,-1.7504,-1.847,-1.9116,-1.9854,-2.0361,-2.0569,-2.159,0.0,0.0,0.0,0.0,0.0,0.0,0.0,0.0,0.0,0.0,0.0,0.0,0.0,-3.3081,-3.3081,-3.3154,-3.3326,-3.4147,-3.4634,-3.4799,-3.4634,-3.4716,-3.495,-3.405,-3.3641,-3.3725,-3.3882,-3.3979,0.0,0.0,0.0,0.0,-3.4397,-3.4397,-3.4397,-3.4397,-3.4397,-3.4397,-3.4397,-3.4397,-3.4397,-3.4397,-3.4494,-3.4494,-3.4494,-3.4577,-3.4647,-3.4647,-3.4825,-3.5236,-3.5777,-3.6294,-3.6985,-3.7961,-3.868,-3.9492,-4.0514,-4.0694,-4.0841,-4.1285,-4.1231,-4.1043,-4.0703,-4.0128,-3.9631,-3.9631,-3.8922,-3.8304,-3.82,-3.8148,-3.8083,-3.79,-3.7992,-3.7979,-3.79,-3.79,-3.7992,-3.8083,-3.807,-3.8057,-3.8304,-3.8395,-3.8472,-3.8679,-3.8666,-3.8756,-3.9011,-3.8908,-3.9011,-3.9305,-3.9305,-3.9305,-3.9305,-3.9305,-3.9305,0.0,-1.4913,-1.5318,-1.5819,-1.5814,-1.5638,-1.5369,-1.5427,-1.5604,-1.5944,-1.6927,-1.7908,-1.8479,-1.9371,-2.0115,-2.0292,-2.1184,0.0,0.0,0.0,0.0,0.0,0.0,0.0,0.0,0.0,0.0,0.0,0.0,0.0,-3.3068,-3.2867,-3.2754,-3.2754,-3.3875,-3.4363,-3.4222,-3.414,-3.4104,-3.4124,-3.3251,-3.2848,-3.2835,-3.3002,-3.3296,0.0,0.0,0.0,0.0,-3.4314,-3.4314,-3.4397,-3.4397,-3.4397,-3.4397,-3.4397,-3.4397,-3.4397,-3.4397,-3.4397,-3.4397,-3.4397,-3.4397,-3.4397,-3.4397,-3.4564,-3.4977,-3.583,-3.6439,-3.707,-3.8193,-3.8828,-3.9407,-4.0118,-4.064,-4.1016,-4.1193,-4.1526,-4.1645,-4.0972,-4.0315,-3.9719,-3.9367,-3.8666,-3.8044,-3.8044,-3.7979,-3.79,-3.79,-3.79,-3.79,-3.79,-3.79,-3.79,-3.79,-3.79,-3.7979,-3.8044,-3.8122,-3.8304,-3.8408,-3.8408,-3.8589,-3.8742,-3.8652,-3.8832,-3.91,-3.9203,-3.9305,-3.9305,-3.9305,-3.9305,0.0,-1.4251,-1.3761,-1.5048,-1.5097,-1.4993,-1.5171,-1.5618,0.0,-1.5854,-1.709,-1.8149,-1.8434,-1.9073,-1.9576,-1.9869,-2.0635,0.0,0.0,0.0,0.0,0.0,0.0,0.0,0.0,0.0,0.0,0.0,0.0,0.0,-3.3018,-3.2466,-3.2164,-3.2152,-3.3495,-3.3923,-3.3443,-3.3362,-3.3169,-3.2725,-3.2034,-3.1643,-3.1386,-3.1873,-3.2248,0.0,0.0,0.0,0.0,-3.4063,-3.4243,-3.4314,-3.4397,-3.4397,-3.4397,-3.4397,-3.4397,-3.4397,-3.4397,-3.4371,-3.4332,-3.4293,-3.428,-3.428,-3.4402,-3.4454,-3.4551,-3.5426,-3.5749,-3.6201,-3.7965,-3.7796,-3.7599,-3.9279,-4.0135,-4.0607,-4.0464,-4.166,-4.2266,-4.0588,-3.9968,-3.9428,-3.8639,-3.8148,-3.79,-3.7979,-3.79,-3.79,-3.79,-3.79,-3.79,-3.79,-3.79,-3.79,-3.79,-3.79,-3.79,-3.79,-3.8057,-3.8213,-3.8213,-3.8213,-3.8304,-3.8602,-3.8395,-3.8472,-3.8908,-3.9203,-3.9305,-3.9305,-3.9305,-3.9305,-1.4255,0.0,-1.4045,-1.4289,-1.4342,-1.4295,0.0,-1.4484,-1.4578,-1.4594,0.0,0.0,-1.7448,-1.8177,-1.8995,-2.0127,0.0,-2.1627,0.0,0.0,0.0,0.0,0.0,0.0,0.0,0.0,0.0,0.0,0.0,-3.2017,-3.1944,-3.1735,-3.1505,-3.1352,-3.1877,-3.2354,-3.2842,-3.2213,-3.2137,-3.2725,-3.186,-3.1468,-3.1386,-3.1549,-3.1719,0.0,0.0,0.0,-3.3193,-3.3811,-3.3979,-3.3882,-3.423,-3.4314,-3.416,-3.4314,-3.4397,-3.4397,-3.4397,-3.4123,-3.3705,-3.3247,-3.3091,-3.3329,-3.4393,-3.4523,-3.4551,-3.5426,-3.6122,-3.6894,-3.7933,-3.9293,-4.0216,-3.9609,-4.1113,-4.2376,-4.1374,-4.2179,-4.301,-4.2592,-4.138,-4.0518,-4.1043,-3.9353,-3.8148,-3.8792,-3.8317,-3.79,-3.79,-3.79,-3.79,-3.79,-3.79,-3.79,-3.79,-3.79,-3.79,-3.79,-3.7979,-3.7979,-3.7979,-3.7979,-3.8057,-3.8304,-3.8549,-3.8819,-3.8908,-3.9203,-3.9305,-3.9305,-3.9305,-3.9305,-1.3458,-1.3814,-1.4088,-1.4088,-1.4088,-1.4088,-1.4088,0.0,0.0,0.0,0.0,0.0,0.0,0.0,0.0,0.0,-2.0412,0.0,0.0,0.0,0.0,0.0,0.0,0.0,0.0,0.0,0.0,0.0,0.0,-3.1183,-3.1196,-3.0927,-3.0723,-3.056,-3.053,-3.0905,-3.1729,-3.1263,-3.1137,-3.1344,-3.0884,-3.0658,-3.0658,-3.0658,-3.0876,0.0,0.0,0.0,-3.2465,-3.311,-3.3341,-3.3354,-3.3862,-3.3979,-3.3979,-3.4147,-3.4074,-3.3853,-3.4018,-3.3652,-3.321,-3.3172,-3.3223,-3.3432,-3.4489,-3.4917,-3.5303,-3.654,-3.6908,-3.7204,-3.8412,-3.9639,-4.0293,-3.9491,-4.0857,-4.2234,-4.1414,-4.2361,-4.317,-4.2754,-4.1547,-4.0603,-4.0689,-3.9176,-3.807,-3.8562,-3.8226,-3.79,-3.79,-3.79,-3.79,-3.79,-3.79,-3.79,-3.79,-3.79,-3.79,-3.79,-3.79,-3.79,-3.79,-3.79,-3.7979,-3.8057,-3.8381,-3.8652,-3.8742,-3.9011,-3.9203,-3.9305,-3.9305,-3.9305,-1.2377,-1.306,-1.3581,-1.3847,-1.3971,-1.4004,-1.4004,0.0,0.0,0.0,0.0,0.0,0.0,0.0,0.0,0.0,0.0,0.0,0.0,0.0,0.0,0.0,0.0,0.0,0.0,0.0,0.0,0.0,0.0,-3.0358,-3.0535,-3.0126,-2.9843,-2.9843,-2.9522,-2.9667,-3.039,-3.0495,-3.0256,-2.9792,-2.9792,-2.9869,-3.0011,-3.0011,-3.0264,-3.0864,0.0,0.0,-3.1877,-3.2521,-3.2885,-3.3083,-3.3726,-3.3888,-3.3869,-3.4056,-3.3719,-3.3209,-3.3378,-3.3146,-3.2985,-3.3509,-3.3696,-3.3847,-3.459,-3.5204,-3.5991,-3.7601,-3.7691,-3.7548,-3.89,-3.9561,-3.9801,-3.9425,-4.0556,-4.1635,-4.1331,-4.2361,-4.309,-4.2319,-4.1296,-4.0418,-3.9724,-3.8652,-3.7992,-3.807,-3.7992,-3.79,-3.79,-3.79,-3.79,-3.79,-3.79,-3.79,-3.79,-3.79,-3.79,-3.79,-3.79,-3.79,-3.79,-3.79,-3.79,-3.79,-3.8135,-3.8304,-3.8512,-3.8742,-3.9011,-3.9203,-3.938,-3.9455,-1.0725,-1.0888,-1.1338,-1.2787,-1.3477,-1.3737,-1.3737,0.0,0.0,0.0,0.0,0.0,0.0,0.0,0.0,0.0,0.0,0.0,0.0,0.0,0.0,0.0,0.0,0.0,0.0,0.0,0.0,0.0,0.0,-2.9646,-2.9576,-2.9321,-2.9175,-2.9004,-2.9089,-2.9324,-2.9543,-2.9827,-2.988,-2.9792,-2.9792,-3.0139,-3.0758,-3.0758,-3.1172,-3.1884,0.0,-3.2269,-3.1863,-3.3309,-3.37,-3.3509,-3.4658,-3.4929,-3.4498,-3.4243,-3.3682,-3.2903,-3.2659,-3.3063,-3.3542,-3.3204,-3.3167,-3.3393,-3.4126,-3.4337,-3.4806,-3.6866,-3.8055,-3.8673,-3.8483,-4.0186,-4.1654,-4.0472,-4.1667,-4.2832,-4.2291,-4.2787,-4.325,-4.317,-4.1713,-4.0774,-4.1463,-3.9516,-3.8148,-3.8881,-3.8395,-3.79,-3.79,-3.79,-3.79,-3.79,-3.79,-3.79,-3.79,-3.79,-3.79,-3.79,-3.79,-3.79,-3.79,-3.79,-3.79,-3.79,-3.8135,-3.82,-3.8304,-3.8729,-3.8908,-3.8997,-3.9927,-4.0432,-0.9575,-1.0096,-1.0603,-1.0931,-1.1545,-1.2032,-1.2088,0.0,0.0,0.0,0.0,0.0,0.0,0.0,0.0,0.0,0.0,0.0,0.0,0.0,0.0,0.0,0.0,0.0,0.0,0.0,0.0,0.0,0.0,0.0,-2.8871,-2.8802,-2.8736,-2.8657,-2.8803,-2.8961,-2.9106,-2.93,-2.9546,-2.9792,-2.9792,-3.0011,-3.0279,-3.0279,-3.0495,-3.0885,0.0,-3.1034,-3.0766,-3.2236,-3.266,-3.2513,-3.3794,-3.391,-3.3232,-3.2613,-3.221,-3.2001,-3.1932,-3.2287,-3.2804,-3.3396,-3.3728,-3.3811,-3.4166,-3.4802,-3.5572,-3.6503,-3.7622,-3.8626,-3.8811,-4.0382,-4.1669,-4.107,-4.1893,-4.2821,-4.288,-4.312,-4.3329,-4.3329,-4.1879,-4.0774,-4.1212,-3.9752,-3.8549,-3.8472,-3.8549,-3.8395,-3.7992,-3.79,-3.79,-3.79,-3.79,-3.79,-3.79,-3.79,-3.79,-3.79,-3.79,-3.79,-3.79,-3.79,-3.79,-3.79,-3.7979,-3.8135,-3.82,-3.8381,-3.8832,-3.9543,-4.0114,-4.0703,-0.8586,-0.9431,-0.9958,-0.9385,0.0,-1.1197,-1.1076,0.0,0.0,0.0,0.0,0.0,0.0,0.0,0.0,0.0,0.0,0.0,0.0,0.0,0.0,0.0,0.0,0.0,0.0,0.0,0.0,0.0,0.0,0.0,-2.851,-2.851,-2.851,-2.851,-2.8536,-2.8542,-2.8609,-2.8655,-2.8963,-2.9636,-2.9702,-2.9779,-2.9998,-3.0075,-3.0139,-3.0368,-3.0368,-3.0368,-3.0394,-3.1606,-3.2121,-3.2434,-3.3582,-3.3687,-3.2959,-3.1991,-3.1617,-3.1628,-3.1641,-3.1869,-3.2362,-3.3575,-3.4206,-3.4394,-3.4259,-3.511,-3.6067,-3.5898,-3.7012,-3.8399,-3.922,-4.0502,-4.1564,-4.1414,-4.1998,-4.2731,-4.3225,-4.3329,-4.3329,-4.3329,-4.2058,-4.0859,-4.0603,-3.9986,-3.9135,-3.807,-3.8626,-3.8881,-3.7979,-3.79,-3.79,-3.79,-3.79,-3.79,-3.79,-3.79,-3.79,-3.79,-3.79,-3.79,-3.79,-3.79,-3.79,-3.79,-3.79,-3.7979,-3.8122,-3.8381,-3.8997,-3.9895,-4.056,-4.1226,-0.7698,-0.8156,-0.8405,-0.8982,0.0,0.0,-1.2153,0.0,0.0,0.0,0.0,0.0,0.0,0.0,0.0,0.0,0.0,0.0,0.0,0.0,0.0,0.0,0.0,0.0,0.0,0.0,0.0,0.0,0.0,0.0,-2.851,-2.851,-2.851,-2.851,-2.8029,-2.7842,-2.8062,-2.7563,-2.7971,-2.9131,-2.9353,-2.9793,-3.0545,-3.0758,-3.1193,-3.1942,-3.1942,-3.1942,-3.2015,-3.2761,-3.3856,-3.5022,-3.5826,-3.5963,-3.5621,-3.4222,-3.332,-3.28,-3.2218,-3.2648,-3.3437,-3.3506,-3.4153,-3.4721,-3.407,-3.4399,-3.4976,-3.4685,-3.6314,-3.8418,-3.9188,-4.0846,-4.2132,-4.1534,-4.2342,-4.3284,-4.3329,-4.3329,-4.3329,-4.3329,-4.2578,-4.1645,-4.0774,-4.0504,-3.9927,-3.8161,-3.8626,-3.8881,-3.7979,-3.79,-3.79,-3.79,-3.79,-3.79,-3.79,-3.79,-3.79,-3.79,-3.79,-3.79,-3.79,-3.79,-3.79,-3.79,-3.79,-3.79,-3.79,-3.9011,-3.9516,-3.9692,-4.1659,-4.2592,-0.6785,-0.751,-0.8058,-0.7537,0.0,0.0,0.0,0.0,0.0,0.0,0.0,0.0,0.0,0.0,0.0,0.0,0.0,0.0,0.0,0.0,0.0,0.0,0.0,0.0,0.0,0.0,0.0,0.0,0.0,0.0,-2.8041,-2.8017,-2.7873,-2.7536,-2.7332,-2.7224,-2.73,-2.7432,-2.7605,-2.7754,-2.839,-2.9018,-2.9651,-2.9716,-3.0012,-3.0456,-3.097,-3.1267,-3.1516,-3.3149,-3.4033,-3.4465,-3.5113,-3.5329,-3.5223,-3.4312,-3.3791,-3.3581,-3.3449,-3.3746,-3.4115,-3.4243,-3.452,-3.4787,-3.4002,-3.4288,-3.4762,-3.4108,-3.5626,-3.7414,-3.7569,-4.0059,-4.21,-4.086,-4.1952,-4.3329,-4.3329,-4.3329,-4.3329,-4.3329,-4.2578,-4.1728,-4.0774,-4.1113,-4.0873,-3.897,-3.9489,-3.9738,-3.8805,-3.8226,-3.79,-3.79,-3.79,-3.79,-3.79,-3.79,-3.79,-3.79,-3.79,-3.79,-3.79,-3.79,-3.79,-3.79,-3.8395,-3.8715,-3.8715,-3.9752,-4.0532,-4.1127,-4.2058,-4.2739,-0.6546,-0.7047,-0.7539,0.0,0.0,0.0,0.0,0.0,0.0,0.0,0.0,0.0,0.0,0.0,0.0,0.0,0.0,0.0,0.0,0.0,0.0,0.0,0.0,0.0,0.0,0.0,0.0,0.0,0.0,0.0,0.0,-2.7476,-2.7308,-2.6947,-2.6767,-2.6671,-2.6671,-2.7031,-2.7115,-2.6947,-2.7694,-2.8362,-2.8717,-2.8795,-2.9036,-2.9341,-2.9935,-3.0607,-3.1307,-3.3093,-3.4293,-3.501,-3.5655,-3.5878,-3.5808,-3.5211,-3.4913,-3.4665,-3.4528,-3.4623,-3.471,-3.4862,-3.4932,-3.4961,-3.4456,-3.453,-3.4583,-3.367,-3.4963,-3.6445,-3.5754,-3.8767,-4.1444,-3.9816,-4.1113,-4.2659,-4.2725,-4.2725,-4.2659,-4.2725,-4.2482,-4.1879,-4.0675,-4.1532,-4.1728,-3.9826,-4.0073,-4.0232,-3.9651,-3.8472,-3.7808,-3.79,-3.7808,-3.7808,-3.79,-3.7808,-3.7808,-3.79,-3.79,-3.79,-3.79,-3.79,-3.807,-3.8317,-3.8881,-3.9373,-3.9637,-4.0589,-4.138,-4.199,-4.2386,-4.2981,-0.7102,-0.6689,0.0,0.0,0.0,0.0,0.0,0.0,0.0,0.0,0.0,0.0,0.0,0.0,0.0,0.0,0.0,0.0,0.0,0.0,0.0,0.0,0.0,0.0,0.0,0.0,0.0,0.0,0.0,0.0,0.0,-2.6923,-2.6923,-2.6911,-2.6382,-2.6093,-2.6093,-2.6093,-2.6382,-2.6935,-2.7464,-2.7794,-2.8001,-2.8166,-2.8614,-2.9118,-2.9328,-3.0291,-3.1823,-3.2711,-3.4678,-3.736,-3.797,-3.8202,-3.813,-3.7535,-3.6831,-3.6014,-3.5409,-3.5184,-3.5184,-3.5184,-3.5282,-3.5372,-3.5357,-3.4922,-3.4189,-3.3175,-3.4416,-3.5634,-3.3894,-3.7083,-4.0339,-3.8475,-3.9676,-4.1365,-4.1504,-4.1435,-4.1365,-4.1601,-4.2371,-4.2371,-4.0547,-4.1932,-4.2578,-4.0631,-4.0232,-4.0218,-4.0287,-3.8639,-3.7598,-3.79,-3.7703,-3.7598,-3.79,-3.7611,-3.7598,-3.79,-3.79,-3.79,-3.79,-3.79,-3.8304,-3.921,-3.9197,-3.9637,-4.0603,-4.1561,-4.199,-4.2073,-4.2915,-4.3329,-0.5959,0.0,0.0,0.0,0.0,0.0,0.0,0.0,0.0,0.0,0.0,0.0,0.0,0.0,0.0,0.0,0.0,0.0,0.0,0.0,0.0,0.0,0.0,0.0,0.0,0.0,0.0,0.0,0.0,0.0,0.0,-2.5953,-2.6178,-2.5805,-2.5624,-2.554,-2.554,-2.631,-2.6562,-2.6358,-2.7284,-2.7717,-2.7794,-2.7871,-2.7827,-2.7824,-2.84,-2.9391,-3.078,-3.3536,-3.5741,-3.736,-3.797,-3.8202,-3.8188,-3.7999,-3.7777,-3.7512,-3.6907,-3.6308,-3.5761,-3.5926,-3.5568,-3.5022,-3.4683,-3.4794,-3.4665,-3.2603,-3.3649,-3.5031,-3.3553,-3.5801,-3.8284,-3.7835,-3.9047,-4.0504,-4.1197,-4.0845,-4.0504,-4.1281,-4.1099,-4.0675,-4.0059,-4.1014,-4.1713,-4.1127,-4.1029,-4.0774,-4.0156,-3.8368,-3.7479,-3.8264,-3.7651,-3.7214,-3.7307,-3.7413,-3.7505,-3.7598,-3.8368,-3.8792,-3.8792,-3.8792,-3.9224,-4.0159,-4.0859,-4.1296,-4.1561,-4.2482,-4.2915,-4.2915,-4.317,-4.3329,-0.5728,0.0,0.0,0.0,0.0,0.0,0.0,0.0,0.0,0.0,0.0,0.0,0.0,0.0,0.0,0.0,0.0,0.0,0.0,0.0,0.0,0.0,0.0,0.0,0.0,0.0,0.0,0.0,0.0,0.0,0.0,-2.4873,-2.5253,-2.5324,-2.5182,-2.5182,-2.5312,-2.6031,-2.6402,-2.6442,-2.7308,-2.7717,-2.7717,-2.7717,-2.7734,-2.7754,-2.8473,-2.9223,-3.017,-3.3017,-3.5068,-3.6589,-3.7118,-3.7745,-3.8127,-3.781,-3.7886,-3.8069,-3.7394,-3.6784,-3.6395,-3.6493,-3.5808,-3.4837,-3.4491,-3.4416,-3.401,-3.2203,-3.3018,-3.4133,-3.3033,-3.4551,-3.6389,-3.67,-3.7967,-3.9197,-3.9885,-3.9798,-3.9724,-3.9972,-4.0173,-4.0173,-3.9798,-4.0589,-4.138,-4.1659,-4.1408,-4.0717,-3.9455,-3.8626,-3.816,-3.7978,-3.773,-3.7387,-3.7108,-3.7108,-3.7214,-3.7307,-3.8342,-3.9108,-3.9623,-3.9724,-4.0159,-4.1113,-4.1728,-4.2155,-4.2496,-4.2996,-4.3329,-4.3329,-4.3329,-4.3329,-0.6027,0.0,0.0,0.0,0.0,0.0,0.0,0.0,0.0,0.0,0.0,0.0,0.0,0.0,0.0,0.0,0.0,0.0,0.0,0.0,0.0,0.0,0.0,0.0,0.0,0.0,0.0,0.0,0.0,0.0,0.0,-2.3745,-2.4204,-2.5087,-2.4909,-2.4921,-2.517,-2.5406,-2.5926,-2.6788,-2.7363,-2.7717,-2.7717,-2.7717,-2.7957,-2.8409,-2.9051,-2.949,-2.9933,-3.146,-3.327,-3.5071,-3.5728,-3.6817,-3.789,-3.7063,-3.7323,-3.7962,-3.7092,-3.6688,-3.6688,-3.678,-3.5857,-3.4697,-3.4643,-3.386,-3.2907,-3.1978,-3.2514,-3.3209,-3.2495,-3.3508,-3.4801,-3.5403,-3.6542,-3.7638,-3.8017,-3.8572,-3.8751,-3.8211,-3.9461,-4.036,-3.961,-4.0404,-4.1394,-4.2117,-4.1423,-4.0201,-3.8549,-3.9135,-3.9033,-3.7374,-3.7651,-3.7743,-3.7108,-3.6815,-3.6815,-3.7015,-3.8069,-3.9108,-4.0204,-4.049,-4.1127,-4.2073,-4.2155,-4.2496,-4.3329,-4.3329,-4.3329,-4.3329,-4.3329,-4.3329,0.0,-0.5847,0.0,0.0,0.0,0.0,0.0,0.0,0.0,0.0,0.0,0.0,0.0,0.0,0.0,0.0,0.0,0.0,0.0,0.0,0.0,0.0,0.0,0.0,0.0,0.0,0.0,0.0,0.0,0.0,-2.2103,-2.3412,-2.402,-2.3768,-2.4105,-2.4345,-2.4406,-2.5125,-2.5589,0.0,-2.7107,-2.7717,-2.7717,-2.7717,-2.756,-2.7236,-2.7663,-2.8239,-2.9073,-3.0641,-3.1888,-3.2983,-3.4533,-3.5683,-3.6505,-3.6022,-3.6439,-3.7092,-3.6188,-3.5494,-3.5032,-3.5628,-3.5238,-3.4357,-3.3883,-3.4046,-3.4003,-3.2483,-3.2744,-3.339,-3.348,-3.3809,-3.4324,-3.5316,-3.5722,-3.6373,-3.7612,-3.7441,-3.7163,-3.7704,-3.7612,-3.7782,-3.9019,-3.9461,-3.9986,-4.0873,-4.0173,-3.9475,-3.9033,-3.8599,-3.8069,-3.7717,-3.7083,-3.6734,-3.6546,-3.6628,-3.6709,-3.6815,-3.8585,-3.9798,-4.0204,-4.1043,-4.1922,-4.2996,-4.2996,-4.3076,-4.3329,-4.3329,-4.3329,-4.3329,-4.3329,-4.3329,0.0,0.0,0.0,0.0,0.0,0.0,0.0,0.0,0.0,0.0,0.0,0.0,0.0,0.0,0.0,0.0,0.0,0.0,0.0,0.0,0.0,0.0,0.0,0.0,0.0,0.0,0.0,0.0,0.0,-2.0904,-2.1659,-2.2285,-2.2911,-2.3356,-2.3307,-2.3324,-2.3442,-2.3789,-2.4198,-2.4801,-2.606,-2.7203,-2.8102,-2.8102,-2.7669,-2.6911,-2.7176,-2.7267,-2.7344,-2.8728,-2.9967,-3.1123,-3.2521,-3.3907,-3.51,-3.4594,-3.513,-3.6042,-3.5251,-3.4786,-3.4481,-3.4855,-3.4454,-3.3674,-3.3367,-3.3403,-3.3333,-3.2453,-3.2536,-3.2842,-3.3016,-3.3294,-3.3721,-3.4562,-3.5165,-3.5785,-3.6874,-3.7083,-3.7083,-3.7083,-3.7083,-3.7348,-3.8328,-3.8944,-3.9549,-4.0418,-3.9812,-3.9033,-3.8599,-3.8509,-3.816,-3.7268,-3.7083,-3.6909,-3.6452,-3.6896,-3.6989,-3.6534,-3.8841,-4.0145,-3.9858,-4.138,-4.2511,-4.3265,-4.3329,-4.3329,-4.3329,-4.3329,-4.3329,-4.3329,-4.3329,-4.3329,0.0,0.0,0.0,0.0,0.0,0.0,0.0,0.0,0.0,0.0,0.0,0.0,0.0,0.0,0.0,0.0,0.0,0.0,0.0,0.0,0.0,0.0,0.0,0.0,0.0,0.0,0.0,0.0,0.0,-1.9927,-2.1206,-2.0997,-2.1458,-2.2849,-2.2268,-2.2125,-2.2503,-2.2332,-2.2754,-2.3792,-2.4956,-2.6455,-2.8155,-2.8155,-2.7813,-2.7067,-2.7109,-2.6578,-2.5825,-2.6956,-2.8188,-2.9346,-3.0496,-3.2084,-3.3675,-3.3161,-3.377,-3.4846,-3.4332,-3.4147,-3.4147,-3.4147,-3.3654,-3.3081,-3.3081,-3.2742,-3.2365,-3.2365,-3.2365,-3.2365,-3.2365,-3.2717,-3.3219,-3.3771,-3.46,-3.5416,-3.5956,-3.6785,-3.7206,-3.6407,-3.7111,-3.7808,-3.7808,-3.8599,-3.9373,-3.9986,-3.9549,-3.8765,-3.7717,-3.8419,-3.8315,-3.6534,-3.7083,-3.7268,-3.6452,-3.7268,-3.7453,-3.6722,-3.9094,-4.0332,-3.9784,-4.163,-4.285,-4.317,-4.325,-4.3329,-4.3329,-4.3329,-4.3329,-4.3329,-4.3329,-4.3329,0.0,0.0,0.0,0.0,0.0,0.0,0.0,0.0,0.0,0.0,0.0,0.0,0.0,0.0,0.0,0.0,0.0,0.0,0.0,0.0,0.0,0.0,0.0,0.0,0.0,0.0,0.0,0.0,-1.9592,-1.9514,-1.937,-1.9823,-2.0154,-2.0268,-2.0747,-2.1231,-2.1721,-2.2079,-2.2445,-2.2856,-2.4566,-2.5791,-2.6594,-2.6976,-2.732,-2.7584,-2.7128,-2.6723,-2.6347,-2.6955,-2.7471,-2.7916,-2.9497,-3.0804,-3.1732,-3.178,-3.2491,-3.3407,-3.3038,-3.3068,-3.324,-3.324,-3.3154,-3.3081,-3.3081,-3.3018,-3.2968,-3.2968,-3.2968,-3.2968,-3.2968,-3.3018,-3.3219,-3.3771,-3.401,-3.4274,-3.4826,-3.5407,-3.5735,-3.5655,-3.6842,-3.7808,-3.7808,-3.8599,-3.8944,-3.8238,-3.8765,-3.8585,-3.6815,-3.7453,-3.7625,-3.6546,-3.6546,-3.6546,-3.6452,-3.7268,-3.7717,-3.7625,-3.9461,-4.0689,-4.0802,-4.1868,-4.2541,-4.2769,-4.309,-4.3329,-4.3329,-4.3329,-4.3329,-4.3329,-4.3329,-4.3329,-0.4809,0.0,0.0,0.0,0.0,0.0,0.0,0.0,0.0,0.0,0.0,0.0,0.0,0.0,0.0,0.0,0.0,0.0,0.0,0.0,0.0,0.0,0.0,0.0,0.0,0.0,0.0,0.0,-1.8864,-1.8807,-1.8976,-1.9033,-1.9191,-1.9465,-1.9502,-1.9792,-2.0347,-2.0482,-2.1228,-2.24,-2.3677,-2.486,-2.5946,-2.6328,-2.6649,-2.6803,-2.6562,-2.6226,-2.5876,-2.6723,-2.7073,-2.7281,-2.8682,-2.9591,-3.0245,-3.0719,-3.1437,-3.2168,-3.2598,-3.281,-3.2896,-3.3081,-3.3081,-3.3081,-3.3081,-3.3081,-3.3081,-3.3081,-3.3081,-3.3081,-3.3081,-3.3081,-3.3131,-3.3382,-3.3432,-3.3508,-3.3746,-3.4474,-3.5177,-3.5399,-3.6341,-3.7176,-3.7717,-3.7704,-3.7704,-3.7808,-3.816,-3.7887,-3.6534,-3.7176,-3.7441,-3.6546,-3.6358,-3.6358,-3.6358,-3.7268,-3.7808,-3.7808,-3.9549,-4.0689,-4.0788,-4.1854,-4.2474,-4.2541,-4.285,-4.301,-4.3155,-4.3155,-4.317,-4.3329,-4.3329,-4.3329,0.0,0.0,0.0,0.0,0.0,0.0,0.0,0.0,0.0,0.0,0.0,0.0,0.0,0.0,0.0,0.0,0.0,0.0,0.0,0.0,0.0,0.0,0.0,0.0,0.0,0.0,0.0,0.0,-1.8137,-1.8128,-1.8442,-1.8138,-1.8238,-1.8805,-1.8476,-1.8576,-1.91,-1.9299,-2.0256,-2.1855,-2.2856,-2.3837,-2.4923,-2.5597,-2.5843,-2.5768,-2.5973,-2.5793,-2.5384,-2.6334,-2.6803,-2.7031,-2.7945,-2.8631,-2.916,-2.9842,-3.053,-3.115,-3.2044,-3.2426,-3.2636,-3.2822,-3.2909,-3.2909,-3.2909,-3.2909,-3.2909,-3.2909,-3.2995,-3.2995,-3.2995,-3.3081,-3.3081,-3.3081,-3.3081,-3.3119,-3.3257,-3.3935,-3.4713,-3.5416,-3.5868,-3.6463,-3.7335,-3.7083,-3.6896,-3.7348,-3.7625,-3.7441,-3.6546,-3.6989,-3.7176,-3.6452,-3.6358,-3.6358,-3.6358,-3.7268,-3.7808,-3.7808,-3.9549,-4.0603,-4.0603,-4.1688,-4.231,-4.231,-4.2474,-4.2688,-4.2981,-4.2981,-4.3076,-4.3329,-4.3329,-4.3329,0.0,0.0,0.0,0.0,0.0,0.0,0.0,0.0,0.0,0.0,0.0,0.0,0.0,0.0,0.0,0.0,0.0,0.0,0.0,0.0,0.0,0.0,0.0,0.0,0.0,0.0,0.0,0.0,-1.7541,-1.7367,-1.706,-1.7014,-1.7204,-1.7735,-1.7784,-1.7969,-1.8509,-1.9375,-2.0171,-2.0972,-2.2207,-2.2856,-2.3086,-2.4339,-2.486,-2.492,-2.5744,-2.5793,-2.5348,-2.5913,-2.6454,-2.6995,-2.7548,-2.8089,-2.8619,-2.9148,-2.983,-3.0506,-3.1041,-3.1761,-3.2388,-3.2388,-3.2487,-3.2487,-3.2487,-3.2487,-3.2487,-3.2487,-3.255,-3.2711,-3.2711,-3.2896,-3.3081,-3.3081,-3.3081,-3.3219,-3.3746,-3.3897,-3.4261,-3.5341,-3.5567,-3.5742,-3.6364,-3.7176,-3.7441,-3.6628,-3.7268,-3.7441,-3.6546,-3.6452,-3.6452,-3.637,-3.6358,-3.6358,-3.6358,-3.7268,-3.7808,-3.7808,-3.9549,-4.0603,-4.0603,-4.1619,-4.2092,-4.2092,-4.2092,-4.2392,-4.2981,-4.2981,-4.3076,-4.3329,-4.3329,-4.3329,0.0,0.0,0.0,0.0,0.0,0.0,0.0,0.0,0.0,0.0,0.0,0.0,0.0,0.0,0.0,0.0,0.0,0.0,0.0,0.0,0.0,0.0,0.0,0.0,0.0,0.0,0.0,0.0,0.0,-1.7055,-1.6908,-1.6908,-1.6968,-1.7166,-1.7176,-1.7442,-1.7969,-1.8643,-1.9127,-1.937,-2.0091,-2.0984,-2.1892,-2.2661,-2.358,-2.4429,-2.5038,-2.529,-2.5348,-2.5877,-2.643,-2.6983,-2.7512,-2.8041,-2.857,-2.91,-2.9711,-3.0314,-3.1004,-3.165,-3.2213,-3.23,-3.24,-3.24,-3.24,-3.24,-3.24,-3.24,-3.2475,-3.2475,-3.2475,-3.2562,-3.2649,-3.281,-3.2982,-3.3131,-3.3332,-3.3922,-3.455,-3.4939,-3.5592,-3.6132,-3.632,-3.6722,-3.6815,-3.6452,-3.6722,-3.6815,-3.6452,-3.6358,-3.6358,-3.6358,-3.6358,-3.6358,-3.6358,-3.6722,-3.7176,-3.7717,-3.8419,-3.9373,-4.0504,-4.0972,-4.1437,-4.2092,-4.2092,-4.2242,-4.2622,-4.2769,-4.2915,-4.3076,-4.325,-4.3329,-0.2588,0.0,0.0,0.0,0.0,0.0,0.0,0.0,0.0,0.0,0.0,0.0,0.0,0.0,0.0,0.0,0.0,0.0,0.0,0.0,0.0,0.0,0.0,0.0,0.0,0.0,0.0,0.0,0.0,0.0,-1.6908,-1.6908,-1.6908,-1.6908,-1.6908,-1.7176,-1.7706,-1.8037,-1.8307,-1.8509,-1.9113,-1.9899,-2.0846,-2.1615,-2.26,-2.3751,-2.425,-2.4683,-2.5135,-2.5625,-2.6262,-2.6971,-2.732,-2.7885,-2.8546,-2.8907,-2.9364,-2.9893,-3.058,-3.121,-3.1707,-3.2064,-3.2213,-3.2213,-3.2213,-3.2213,-3.2213,-3.2213,-3.2213,-3.23,-3.23,-3.23,-3.2475,-3.2636,-3.281,-3.2982,-3.3068,-3.3658,-3.4274,-3.465,-3.5316,-3.5931,-3.6295,-3.6358,-3.6358,-3.6358,-3.6358,-3.6358,-3.6358,-3.6358,-3.6358,-3.6358,-3.6358,-3.6358,-3.6358,-3.6358,-3.6628,-3.7268,-3.7625,-3.8328,-3.9637,-4.0246,-4.0873,-4.1619,-4.1912,-4.2175,-4.2325,-4.2474,-4.2688,-4.2915,-4.301,-4.317,0.0,0.0,0.0,0.0,0.0,0.0,0.0,0.0,0.0,0.0,0.0,0.0,0.0,0.0,0.0,0.0,0.0,0.0,0.0,0.0,0.0,0.0,0.0,0.0,0.0,0.0,0.0,0.0,-1.663,-1.6908,-1.6908,-1.6908,-1.6908,-1.6908,-1.6908,-1.7176,-1.7638,-1.7706,-1.7969,-1.8452,-1.9314,-1.9735,-1.9857,-2.1087,-2.2038,-2.2692,-2.339,-2.4143,-2.479,-2.5182,-2.5937,-2.6911,-2.6923,-2.7572,-2.8486,-2.8498,-2.8847,-2.9364,-2.9881,-3.0422,-3.0963,-3.148,-3.1649,-3.1661,-3.1661,-3.1661,-3.1661,-3.1661,-3.1849,-3.195,-3.195,-3.2213,-3.2475,-3.2624,-3.2711,-3.281,-3.3068,-3.3081,-3.3407,-3.4512,-3.4738,-3.509,-3.6169,-3.6358,-3.6358,-3.6358,-3.6358,-3.6358,-3.6358,-3.6358,-3.6358,-3.6358,-3.6358,-3.6358,-3.6358,-3.6358,-3.6358,-3.6358,-3.7268,-3.7808,-3.7808,-3.9549,-4.0504,-4.0603,-4.1535,-4.2092,-4.2092,-4.2325,-4.2474,-4.2688,-4.2688,-4.285,-0.0844,0.0,0.0,0.0,0.0,0.0,0.0,0.0,0.0,0.0,0.0,0.0,0.0,0.0,0.0,0.0,0.0,0.0,0.0,0.0,0.0,0.0,0.0,0.0,0.0,0.0,0.0,0.0,-1.6412,-1.6491,-1.6491,-1.6491,-1.6621,-1.6908,-1.6908,-1.6978,-1.7107,-1.7107,-1.7176,-1.7382,-1.7901,-1.8524,-1.9268,-1.9879,-2.0691,-2.1624,-2.2113,-2.2861,-2.379,-2.4874,-2.5709,-2.637,-2.6779,-2.7344,-2.7993,-2.8366,-2.8847,-2.9316,-2.946,-3.011,-3.0903,-3.1048,-3.1348,-3.1661,-3.1661,-3.1661,-3.1661,-3.1661,-3.1749,-3.1749,-3.1749,-3.1937,-3.2125,-3.2201,-3.2463,-3.2711,-3.281,-3.281,-3.3221,-3.4422,-3.5039,-3.5542,-3.6232,-3.6358,-3.6358,-3.6358,-3.6358,-3.6358,-3.6358,-3.6358,-3.6358,-3.6358,-3.6358,-3.6358,-3.6358,-3.6358,-3.6358,-3.6358,-3.6628,-3.7083,-3.7808,-3.8328,-3.921,-4.0589,-4.0873,-4.1353,-4.2092,-4.2325,-4.2392,-4.2474,-4.2607,-4.285,0.0,0.0,0.0,0.0,0.0,0.0,0.0,-0.4045,0.0,0.0,0.0,0.0,0.0,0.0,0.0,0.0,0.0,0.0,0.0,0.0,0.0,0.0,0.0,0.0,0.0,-1.5133,-1.5346,-1.5842,-1.5982,-1.6123,-1.6123,-1.6202,-1.6421,-1.6621,-1.683,-1.6908,-1.6908,-1.6908,-1.6908,-1.6908,-1.7486,-1.8091,-1.8637,-1.9212,-1.9918,-2.0779,-2.1145,-2.1811,-2.2734,-2.3971,-2.514,-2.6129,-2.6071,-2.674,-2.7765,-2.8065,-2.8522,-2.9003,-2.922,-2.9701,-3.029,-3.0735,-3.1084,-3.1384,-3.1601,-3.1661,-3.1661,-3.1661,-3.1661,-3.1661,-3.1661,-3.1761,-3.1937,-3.1937,-3.2201,-3.2463,-3.255,-3.255,-3.2897,-3.4122,-3.4547,-3.4919,-3.5881,-3.6019,-3.6094,-3.632,-3.6358,-3.6358,-3.6358,-3.6358,-3.6358,-3.6358,-3.6358,-3.6358,-3.6358,-3.6358,-3.6358,-3.6358,-3.6358,-3.664,-3.7176,-3.7625,-3.8328,-3.9373,-4.0159,-4.1057,-4.2092,-4.2242,-4.2242,-4.2242,-4.2459,-4.2622,0.0,0.0,0.0,0.0,0.0,0.0,-0.3427,-0.352,-0.3904,0.0,0.0,0.0,0.0,0.0,0.0,0.0,0.0,0.0,0.0,0.0,0.0,0.0,0.0,0.0,-1.4535,-1.4961,-1.516,-1.5262,-1.5576,-1.5762,-1.5833,-1.6053,-1.6272,-1.6272,-1.6691,-1.6908,-1.6908,-1.6908,-1.6908,-1.6917,-1.7688,-1.8054,-1.8082,-1.8871,-1.9552,-2.01,-2.044,-2.0981,-2.169,-2.2555,-2.4024,-2.5645,-2.5136,-2.599,-2.7478,-2.7615,-2.8053,-2.8582,-2.9051,-2.9256,-2.946,-3.0398,-3.0735,-3.0879,-3.142,-3.1577,-3.1589,-3.1649,-3.1661,-3.1661,-3.1661,-3.1661,-3.1761,-3.1937,-3.1937,-3.2038,-3.23,-3.2388,-3.2623,-3.3533,-3.3582,-3.3866,-3.5186,-3.5411,-3.5612,-3.6207,-3.632,-3.6358,-3.637,-3.6358,-3.6358,-3.6358,-3.6358,-3.6358,-3.6358,-3.6358,-3.6358,-3.6358,-3.6358,-3.6358,-3.6358,-3.7176,-3.7717,-3.7808,-3.9637,-4.1057,-4.1912,-4.2009,-4.2092,-4.2092,-4.2242,-4.2392,0.0,0.0,0.0,0.0,0.0,0.0,0.0,-0.3157,-0.3535,0.0,0.0,0.0,0.0,0.0,0.0,0.0,0.0,0.0,0.0,0.0,0.0,0.0,0.0,0.0,-1.4629,-1.4782,-1.5047,-1.5593,-1.5441,-1.548,-1.5762,-1.5833,-1.6053,-1.6272,-1.6691,-1.6908,-1.6908,-1.6908,-1.6908,-1.6908,-1.7394,-1.7614,-1.7642,-1.8458,-1.8902,-1.8997,-1.939,-2.0148,-2.0914,-2.0479,-2.1486,-2.3442,-2.4884,-2.5724,-2.6252,-2.7317,-2.8053,-2.8522,-2.8631,-2.8943,-2.9328,-2.9544,-2.9893,-3.0338,-3.0867,-3.1036,-3.112,-3.1541,-3.1661,-3.1661,-3.1661,-3.1661,-3.1749,-3.1761,-3.1849,-3.2038,-3.2038,-3.2038,-3.225,-3.2611,-3.2993,-3.3588,-3.4425,-3.4805,-3.5034,-3.5425,-3.5623,-3.58,-3.6003,-3.6098,-3.6193,-3.6358,-3.6358,-3.6358,-3.6358,-3.6358,-3.6358,-3.6358,-3.6358,-3.6358,-3.6358,-3.6546,-3.7002,-3.7808,-3.9637,-4.0689,-4.0873,-4.1717,-4.2092,-4.2092,-4.2175,-4.2257,0.0,0.0,0.0,-0.2179,0.0,0.0,0.0,0.0,0.0,0.0,0.0,0.0,0.0,0.0,0.0,0.0,0.0,0.0,0.0,0.0,0.0,0.0,0.0,0.0,-1.3957,-1.4101,-1.4517,-1.5117,-1.502,-1.4996,-1.5033,-1.517,-1.5234,-1.5275,-1.6132,-1.6621,-1.6621,-1.6769,-1.6908,-1.6908,-1.7312,-1.7495,-1.7523,-1.8339,-1.8715,-1.8733,-1.9127,-1.9608,-2.001,-2.001,-2.0437,-2.1252,-2.2783,-2.4115,-2.5238,-2.5701,-2.6757,-2.7846,-2.7846,-2.8345,-2.8955,-2.9208,-2.9484,-2.9797,-3.0326,-3.0663,-3.0987,-3.1517,-3.1661,-3.1661,-3.1661,-3.1661,-3.1661,-3.1661,-3.1761,-3.1849,-3.1849,-3.1849,-3.1849,-3.2025,-3.2244,-3.2788,-3.3609,-3.3917,-3.4096,-3.4539,-3.4952,-3.5215,-3.5404,-3.5651,-3.5908,-3.6181,-3.6193,-3.6275,-3.6358,-3.6358,-3.6358,-3.6358,-3.6358,-3.6358,-3.6358,-3.6358,-3.6815,-3.7808,-3.8675,-3.9637,-4.0603,-4.1071,-4.1619,-4.2092,-4.2092,-4.2175,0.0,0.0,0.0,0.0,0.0,-0.2177,0.0,0.0,0.0,0.0,0.0,0.0,0.0,0.0,0.0,0.0,0.0,0.0,0.0,0.0,0.0,0.0,0.0,0.0,0.0,-1.3383,-1.3846,-1.4499,-1.4406,-1.4349,-1.4199,-1.4426,-1.4416,-1.4221,-1.5371,-1.6061,-1.6061,-1.6482,-1.6691,-1.6769,-1.7088,-1.7314,-1.7413,-1.8229,-1.8595,-1.8623,-1.91,-1.9301,-1.9329,-1.991,-1.991,-1.9767,-2.0899,-2.2518,-2.4275,-2.4138,-2.5308,-2.6928,-2.7092,-2.7592,-2.8331,-2.8922,-2.922,-2.9376,-2.9797,-3.0374,-3.0963,-3.1396,-3.1589,-3.1661,-3.1661,-3.1661,-3.1661,-3.1661,-3.1661,-3.1661,-3.1661,-3.1661,-3.1661,-3.1661,-3.1661,-3.1982,-3.2788,-3.3036,-3.3257,-3.3661,-3.42,-3.4605,-3.4703,-3.5095,-3.551,-3.5908,-3.6015,-3.6098,-3.6275,-3.6358,-3.6358,-3.637,-3.6358,-3.6358,-3.6358,-3.6358,-3.6722,-3.7533,-3.7717,-3.8585,-4.0332,-4.0504,-4.1156,-4.2092,-4.2092,-4.2092,0.0,0.0,0.0,0.0,-0.1476,0.0,0.0,0.0,0.0,0.0,0.0,0.0,0.0,0.0,0.0,0.0,0.0,0.0,0.0,0.0,0.0,0.0,0.0,0.0,0.0,-1.2806,-1.3448,-1.391,-1.3491,-1.3433,-1.379,-1.3856,-1.3901,-1.3872,-1.4623,-1.5046,-1.5046,-1.5613,-1.6053,-1.6351,-1.6386,-1.6623,-1.7,-1.7816,-1.8192,-1.8229,-1.8981,-1.9301,-1.9311,-1.9347,-1.9567,-2.0051,-2.1595,-2.2473,-2.288,-2.3885,-2.4855,-2.5819,-2.6565,-2.708,-2.7522,-2.8331,-2.8919,-2.9304,-2.9364,-3.0086,-3.0891,-3.0951,-3.13,-3.1661,-3.1661,-3.1661,-3.1661,-3.1661,-3.1661,-3.1661,-3.1661,-3.1661,-3.1661,-3.1661,-3.1661,-3.1773,-3.211,-3.2357,-3.2684,-3.2913,-3.3204,-3.3724,-3.4372,-3.4481,-3.4795,-3.5571,-3.5824,-3.592,-3.5716,-3.6086,-3.6275,-3.6098,-3.6275,-3.6358,-3.6358,-3.6358,-3.6452,-3.6546,-3.7361,-3.8328,-3.9373,-4.0159,-4.1156,-4.2092,-4.2092,-4.2092,0.0,0.0,0.0,0.0,0.0,0.0,0.0,0.0,-0.2248,0.0,0.0,0.0,0.0,0.0,0.0,0.0,0.0,0.0,0.0,0.0,0.0,0.0,0.0,0.0,0.0,0.0,0.0,0.0,-1.3035,-1.3019,-1.3212,-1.3216,-1.3219,-1.3219,-1.3894,-1.439,-1.4773,-1.508,-1.533,-1.548,-1.5833,-1.6044,-1.614,-1.7213,-1.7886,-1.8164,-1.8962,-1.9301,-1.9301,-1.9301,-1.9402,-1.9604,-2.057,-2.1345,-2.1926,-2.2193,-2.3345,-2.4723,-2.5136,-2.608,-2.7267,-2.7592,-2.7906,-2.814,-2.8433,-2.8831,-2.947,-3.0613,-3.0664,-3.0626,-3.1488,-3.1661,-3.1661,-3.1661,-3.1661,-3.1661,-3.1661,-3.1661,-3.1661,-3.1661,-3.1661,-3.1749,-3.1849,-3.1954,-3.2099,-3.2188,-3.2569,-3.2911,-3.322,-3.3763,-3.4316,-3.4832,-3.5233,-3.5524,-3.562,-3.58,-3.5991,-3.6015,-3.6275,-3.6358,-3.6358,-3.6358,-3.6358,-3.6358,-3.6815,-3.7441,-3.8419,-3.8765,-3.9475,-4.046,-4.1549,-4.2092,0.2015,0.0,0.0,0.0,0.0,0.0,0.0,0.0,0.0,0.0,0.0,0.0,0.0,0.0,0.0,0.0,0.0,0.0,0.0,0.0,0.0,0.0,0.0,0.0,0.0,0.0,0.0,0.0,0.0,-1.2486,-1.2689,-1.2597,-1.2597,-1.2673,-1.324,-1.3722,-1.4088,-1.4301,-1.4496,-1.4537,-1.4992,-1.5248,-1.5273,-1.6753,-1.757,-1.7859,-1.8843,-1.9301,-1.9301,-1.9301,-1.9301,-1.9329,-1.9641,-2.0264,-2.1033,-2.0959,-2.2054,-2.3627,-2.379,-2.5136,-2.6577,-2.6577,-2.667,-2.682,-2.7515,-2.7649,-2.7985,-2.9612,-2.9654,-2.9404,-3.0785,-3.1175,-3.1383,-3.1661,-3.1661,-3.1661,-3.1661,-3.1661,-3.1661,-3.1661,-3.1661,-3.1661,-3.1661,-3.1661,-3.1661,-3.1661,-3.201,-3.2322,-3.2478,-3.3152,-3.3729,-3.4207,-3.4678,-3.5065,-3.532,-3.5524,-3.5716,-3.592,-3.6086,-3.6181,-3.6275,-3.6275,-3.637,-3.6358,-3.6358,-3.6909,-3.7808,-3.7808,-3.8238,-3.9197,-4.0916,-4.1717,0.0,0.0,0.0,0.0724,0.0,0.0,0.0,0.0,-0.2313,0.0,0.0,0.0,0.0,0.0,0.0,0.0,0.0,0.0,0.0,0.0,0.0,0.0,0.0,0.0,0.0,0.0,0.0,0.0,0.0,0.0,-1.2298,-1.2059,-1.2041,-1.2294,-1.2612,-1.272,-1.2503,-1.303,-1.3404,-1.3535,-1.3762,-1.4044,-1.4507,-1.6288,-1.7103,-1.7206,-1.8637,-1.9301,-1.9301,-1.9301,-1.9301,-1.9301,-1.932,-1.9586,-2.0053,-2.0814,-2.154,-2.2264,-2.3096,-2.419,-2.521,-2.521,-2.5305,-2.5746,-2.6588,-2.6758,-2.6893,-2.7797,-2.8147,-2.8342,-2.9335,-2.9892,-3.0441,-3.1472,-3.1661,-3.1661,-3.1661,-3.1661,-3.1661,-3.1661,-3.1661,-3.1661,-3.1661,-3.1661,-3.1661,-3.1661,-3.1673,-3.1889,-3.243,-3.2527,-3.2935,-3.3933,-3.4256,-3.4556,-3.4787,-3.532,-3.562,-3.562,-3.562,-3.5716,-3.6015,-3.6015,-3.6098,-3.6358,-3.6358,-3.6909,-3.7808,-3.7808,-3.8238,-3.9197,-4.0173,-4.0689,0.0,0.0,0.3619,0.2085,0.0,0.0,0.0,0.0,0.0,0.0,0.0,0.0,0.0,0.0,0.0,0.0,0.0,0.0,0.0,0.0,0.0,0.0,0.0,0.0,0.0,0.0,0.0,0.0,-1.0653,0.0,0.0,-1.1878,-1.2041,-1.23,-1.2392,-1.2625,-1.2927,-1.2777,-1.2761,-1.2804,-1.3285,-1.3485,-1.3499,-1.5154,-1.6095,-1.6665,-1.7595,-1.8336,-1.8922,-1.8922,-1.9073,-1.9301,-1.9301,-1.9558,-1.9998,-2.0521,-2.1151,-2.1879,-2.3172,-2.3531,-2.3454,-2.4039,-2.4296,-2.4467,-2.4882,-2.4998,-2.5274,-2.6708,-2.6693,-2.6654,-2.8165,-2.9171,-2.9935,-3.0551,-3.1193,-3.1661,-3.1661,-3.1661,-3.1661,-3.1661,-3.1661,-3.1661,-3.1661,-3.1661,-3.1661,-3.1661,-3.1661,-3.1733,-3.1925,-3.2274,-3.2635,-3.2984,-3.3727,-3.4209,-3.4294,-3.492,-3.532,-3.532,-3.5512,-3.562,-3.5716,-3.592,-3.6015,-3.6098,-3.6275,-3.6546,-3.6909,-3.6909,-3.7083,-3.7348,-3.8328,-3.9373,0.421,0.4341,0.0,0.3227,0.2871,0.0,0.0747,0.0,0.0,0.0,0.0,0.0,0.0,0.0,0.0,0.0,0.0,0.0,0.0,0.0,0.0,0.0,0.0,0.0,0.0,0.0,-0.9364,-1.0185,-1.0117,0.0,0.0,0.0,-1.2041,-1.23,-1.2403,-1.2575,-1.289,-1.2529,-1.2296,-1.2201,-1.2687,-1.2896,-1.2831,-1.4268,-1.5227,-1.5786,-1.6758,-1.7691,-1.8353,-1.8612,-1.8922,-1.9301,-1.9301,-1.9467,-1.9769,-2.0319,-2.0946,-2.1714,-2.2669,-2.2687,-2.2264,-2.2853,-2.3115,-2.329,-2.3704,-2.3704,-2.3764,-2.5165,-2.5124,-2.4862,-2.6504,-2.7608,-2.8488,-2.9274,-3.0314,-3.1104,-3.0722,-3.1193,-3.1572,-3.1193,-3.1472,-3.1661,-3.1661,-3.1661,-3.1661,-3.1661,-3.1661,-3.1661,-3.1661,-3.1973,-3.2286,-3.2478,-3.326,-3.3921,-3.4294,-3.4727,-3.503,-3.503,-3.5223,-3.532,-3.5416,-3.562,-3.5824,-3.6015,-3.6193,-3.6275,-3.6358,-3.6358,-3.6358,-3.6452,-3.6989,-3.8147]}]]